[[{"header":{"parameterUnit":"m.s-1","parameterCategory":1,"la1":31.0,"la2":29.5877,"lo1":-88.7671,"lo2":-86.6584,"dy":0.0162,"dx":0.0185,"nx":115,"ny":88,"refTime":"2023-08-12T18:00:00:Z","depth":0,"parameterNumber":2,"parameterNumberName":"U-component_of_WINDS"},"data":[0.0,0.0,0.0,0.0,0.0,0.0,0.0,0.0,0.0,0.0,0.0,0.0,0.0,0.0,0.0,0.0,0.0,0.0,0.0,0.0,0.0,0.0,0.0,0.0,0.0,0.0,0.0,0.0,0.0,0.0,0.0,0.0,0.0,0.0,0.0,0.0,0.0,0.0,0.0,0.0,0.0,0.0,0.0,0.0,0.0,0.0,0.0,0.0,0.0,0.0,0.0,0.0,0.0,0.0,0.0,0.0,0.0,0.0,0.0,0.0,0.0,0.0,0.0,0.0,0.0,0.0,0.0,0.0,0.0,0.0,0.0,0.0,0.0,0.0,0.0,0.0,0.0,0.0,0.0,0.0,0.0,0.0,0.0,0.0,0.0,0.0,0.0,0.0,0.0,0.0,0.0,0.0,0.0,0.0,0.0,0.0,0.0,0.0,0.0,0.0,0.0,0.0,0.0,0.0,0.0,0.0,0.0,0.0,0.0,0.0,0.0,0.0,0.0,0.0,0.0,0.0,0.0,0.0,0.0,0.0,0.0,0.0,0.0,0.0,0.0,0.0,0.0,0.0,0.0,0.0,0.0,0.0,0.0,0.0,0.0,0.0,0.0,0.0,0.0,0.0,0.0,0.0,0.0,0.0,0.0,0.0,0.0,0.0,0.0,0.0,0.0,0.0,0.0,0.0,0.0,0.0,0.0,0.0,0.0,0.0,0.0,0.0,0.0,0.0,0.0,0.0,0.0,0.0,0.0,0.0,0.0,0.0,0.0,0.0,0.0,0.0,0.0,0.0,0.0,0.0,0.0,0.0,0.0,0.0,0.0,0.0,0.0,0.0,0.0,0.0,0.0,0.0,0.0,0.0,0.0,0.0,0.0,0.0,0.0,0.0,0.0,0.0,0.0,0.0,0.0,0.0,0.0,0.0,0.0,0.0,0.0,0.0,0.0,0.0,0.0,0.0,0.0,0.0,0.0,0.0,0.0,0.0,0.0,0.0,0.0,0.0,0.0,0.0,0.0,0.0,0.0,0.0,0.0,0.0,0.0,0.0,0.0,0.0,0.0,0.0,0.0,0.0,0.0,0.0,0.0,0.0,0.0,0.0,0.0,0.0,0.0,0.0,0.0,0.0,0.0,0.0,0.0,0.0,0.0,0.0,0.0,0.0,0.0,0.0,0.0,0.0,0.0,0.0,0.0,0.0,0.0,0.0,0.0,0.0,0.0,0.0,0.0,0.0,0.0,0.0,0.0,0.0,0.0,0.0,0.0,0.0,0.0,0.0,0.0,0.0,0.0,0.0,0.0,0.0,0.0,0.0,0.0,0.0,0.0,0.0,0.0,0.0,0.0,0.0,0.0,0.0,0.0,0.0,0.0,0.0,0.0,0.0,0.0,0.0,0.0,0.0,0.0,0.0,0.0,0.0,0.0,0.0,0.0,0.0,0.0,0.0,0.0,0.0,0.0,0.0,0.0,0.0,0.0,0.0,0.0,0.0,0.0,0.0,0.0,0.0,0.0,0.0,0.0,0.0,0.0,0.0,0.0,0.0,0.0,0.0,0.0,0.0,0.0,0.0,0.0,0.0,0.0,0.0,0.0,0.0,0.0,0.0,0.0,0.0,0.0,0.0,0.0,0.0,0.0,0.0,0.0,0.0,0.0,0.0,0.0,0.0,0.0,0.0,0.0,0.0,0.0,0.0,0.0,0.0,0.0,0.0,0.0,0.0,0.0,0.0,0.0,0.0,0.0,0.0,0.0,0.0,0.0,0.0,0.0,0.0,0.0,0.0,0.0,0.0,0.0,0.0,0.0,0.0,0.0,0.0,0.0,0.0,0.0,0.0,0.0,0.0,0.0,0.0,0.0,0.0,0.0,0.0,0.0,0.0,0.0,0.0,0.0,0.0,0.0,0.0,0.0,0.0,0.0,0.0,0.0,0.0,0.0,0.0,0.0,0.0,0.0,0.0,0.0,0.0,0.0,0.0,0.0,0.0,0.0,0.0,0.0,0.0,0.0,0.0,0.0,0.0,0.0,0.0,0.0,0.0,0.0,0.0,0.0,0.0,0.0,0.0,0.0,0.0,0.0,0.0,0.0,0.0,0.0,0.0,0.0,0.0,0.0,0.0,0.0,0.0,0.0,0.0,0.0,0.0,0.0,0.0,0.0,0.0,0.0,0.0,0.0,0.0,0.0,0.0,0.0,0.0,0.0,0.0,0.0,0.0,0.0,0.0,0.0,0.0,0.0,0.0,0.0,0.0,0.0,0.0,0.0,0.0,0.0,0.0,0.0,0.0,0.0,0.0,0.0,0.0,0.0,0.0,0.0,0.0,0.0,0.0,0.0,0.0,0.0,0.0,0.0,0.0,0.0,0.0,0.0,0.0,0.0,0.0,0.0,0.0,0.0,0.0,0.0,0.0,0.0,0.0,0.0,0.0,0.0,0.0,0.0,0.0,0.0,0.0,0.0,0.0,0.0,0.0,0.0,0.0,0.0,0.0,0.0,0.0,0.0,0.0,0.0,0.0,0.0,0.0,0.0,0.0,0.0,0.0,0.0,0.0,0.0,0.0,0.0,0.0,0.0,0.0,0.0,0.0,0.0,0.0,0.0,0.0,0.0,0.0,0.0,0.0,0.0,0.0,0.0,0.0,0.0,0.0,0.0,0.0,0.0,0.0,0.0,0.0,0.0,0.0,0.0,0.0,0.0,0.0,0.0,0.0,0.0,0.0,0.0,0.0,0.0,0.0,0.0,0.0,0.0,0.0,0.0,0.0,0.0,0.0,0.0,0.0,0.0,0.0,0.0,0.0,0.0,0.0,0.0,0.0,0.0,0.0,0.0,0.0,0.0,0.0,0.0,0.0,0.0,0.0,0.0,0.0,0.0,0.0,0.0,0.0,0.0,0.0,0.0,0.0,0.0,0.0,0.0,0.0,0.0,0.0,0.0,0.0,0.0,0.0,0.0,0.0,0.0,0.0,0.0,0.0,0.0,0.0,0.0,0.0,0.0,0.0,0.0,0.0,0.0,0.0,0.0,0.0,0.0,0.0,0.0,0.0,0.0,0.0,0.0,0.0,0.0,0.0,0.0,0.0,0.0,0.0,0.0,0.0,0.0,0.0,0.0,0.0,0.0,0.0,0.0,0.0,0.0,0.0,0.0,0.0,0.0,0.0,0.0,0.0,0.0,0.0,0.0,0.0,0.0,0.0,0.0,0.0,0.0,0.0,0.0,0.0,0.0,0.0,0.0,0.0,0.0,0.0,0.0,0.0,0.0,0.0,0.0,0.0,0.0,0.0,0.0,0.0,0.0,0.0,0.0,0.0,0.0,0.0,0.0,0.0,0.0,0.0,0.0,0.0,0.0,0.0,0.0,0.0,0.0,0.0,0.0,0.0,0.0,0.0,0.0,0.0,0.0,0.0,0.0,0.0,0.0,0.0,0.0,0.0,0.0,0.0,0.0,0.0,0.0,0.0,0.0,0.0,0.0,0.0,0.0,0.0,0.0,0.0,0.0,0.0,0.0,0.0,0.0,0.0,0.0,0.0,0.0,0.0,0.0,0.0,0.0,0.0,0.0,0.0,0.0,0.0,0.0,0.0,0.0,0.0,0.0,0.0,0.0,0.0,0.0,0.0,0.0,0.0,0.0,0.0,0.0,0.0,0.0,0.0,0.0,0.0,0.0,0.0,0.0,0.0,0.0,0.0,0.0,0.0,0.0,0.0,0.0,0.0,0.0,0.0,0.0,0.0,0.0,0.0,0.0,0.0,0.0,0.0,0.0,0.0,0.0,0.0,0.0,0.0,0.0,0.0,0.0,0.0,0.0,0.0,0.0,0.0,0.0,0.0,0.0,0.0,0.0,0.0,0.0,0.0,0.0,0.0,0.0,0.0,0.0,0.0,0.0,0.0,0.0,0.0,0.0,0.0,0.0,0.0,0.0,0.0,0.0,0.0,0.0,0.0,0.0,0.0,0.0,0.0,0.0,0.0,0.0,0.0,0.0,0.0,0.0,0.0,0.0,0.0,0.0,0.0,0.0,0.0,0.0,0.0,0.0,0.0,0.0,0.0,0.0,0.0,0.0,0.0,0.0,0.0,0.0,0.0,0.0,0.0,0.0,0.0,0.0,0.0,0.0,0.0,0.0,0.0,0.0,0.0,0.0,0.0,0.0,0.0,0.0,0.0,0.0,0.0,0.0,0.0,0.0,0.0,0.0,0.0,0.0,0.0,0.0,0.0,0.0,0.0,0.0,0.0,0.0,0.0,0.0,0.0,0.0,0.0,0.0,0.0,-0.0391,0.0,0.0,0.0,0.0,0.0,0.0,0.0,0.0,0.0,0.0,0.0,0.0,0.0,0.0,0.0,0.0,0.0,0.0,0.0,0.0,0.0,0.0,0.0,0.0,0.0,0.0,0.0,0.0,0.0,0.0,0.0,0.0,0.0,0.0,0.0,0.0,0.0,0.0,0.0,0.0,0.0,0.0,0.0,0.0,0.0,0.0,0.0,0.0,0.0,0.0,0.0,0.0,0.0,0.0,0.0,0.0,0.0,0.0,0.0,0.0,0.0,0.0,0.0,0.0,0.0,0.0,0.0,0.0,0.0,0.0,0.0,0.0,0.0,0.0,0.0,0.0,0.0,0.0,0.0,0.0,0.0,0.0,0.0,0.0,0.0,0.0,0.0,0.0,0.0,0.0,0.0,0.0,0.0,0.0,0.0,0.0,0.0,0.0,0.0,0.0,0.0,0.0,0.0,0.0,0.0,0.0,0.0,0.0,0.0,0.0,0.0715,-0.1171,-0.1548,-0.2041,-0.2578,0.0,0.0,0.0,0.0,0.0,0.0,0.0,0.0,0.0,0.0,0.0,0.0,0.0,0.0,0.0,0.0,0.0,0.0,0.0,0.0,0.0,0.0,0.0,0.0,0.0,0.0,0.0,0.0,0.0,0.0,0.0,0.0,0.0,0.0,0.0,0.0,0.0,0.0,0.0,0.0,0.0,0.0,0.0,0.0,0.0,0.0,0.0,0.0,0.0,0.0,0.0,0.0,0.0,0.0,0.0,0.0,0.0,0.0,0.0,0.0,0.0,0.0,0.0,0.0,0.0,0.0,0.0,0.0,0.0,0.0,0.0,0.0,0.0,0.0,0.0,0.0,0.0,0.0,0.0,0.0,0.0,0.0,0.0,0.0,0.0,0.0,0.0,0.0,0.0,0.0,0.0,0.0,0.0,0.0,0.0,0.0,0.0,0.0,0.0,0.0,0.0,0.0,0.0,0.0,0.0,0.0,0.0,0.0,0.0,0.0,0.0,0.0,-0.3574,-0.391,-0.4335,0.0,0.0,0.0,0.0,0.0,0.0,0.0,0.0,0.0,0.0,0.0,0.0,0.0,0.0,0.0,0.0,0.0,0.0,0.0,0.0,0.0,0.0,0.0,0.0,0.0,0.0,0.0,0.0,0.0,0.0,0.0,0.0,0.0,0.0,0.0,0.0,0.0,0.0,0.0,0.0,0.0,0.0,0.0,0.0,0.0,0.0,0.0,0.0,0.0,0.0,0.0,0.0,0.0,0.0,0.0,0.0,0.0,0.0,0.0,0.0,0.0,0.0,0.0,0.0,0.0,0.0,0.0,0.0,0.0,0.0,0.0,0.0,0.0,0.0,0.0,0.0,0.0,0.0,0.0,0.0,0.0,0.0,0.0,0.0,0.0,0.0,0.0,0.0,0.0,0.0,0.0,0.0,0.0,0.0,0.0,0.0,0.0,0.0,0.0,0.0,0.0,0.0,0.0,0.0,0.0,0.0,0.0,0.0,0.0,0.0,-0.4896,-0.6026,-0.6936,0.0,-0.6337,0.0,0.0,0.0,0.0,0.0,0.0,0.0,0.0,0.0,0.0,0.0,0.0,0.0,0.0,0.0,0.0,0.0,0.0,0.0,0.0,0.0,0.0,0.0,0.0,0.0,0.0,0.0,0.0,0.0,0.0,0.0,0.0,0.0,0.0,0.0,0.0,0.0,0.0,0.0,0.0,0.0,0.0,0.0,0.0,0.0,0.0,0.0,0.0,0.0,0.0,0.0,0.0,0.0,0.0,0.0,0.0,0.0,0.0,0.0,0.0,0.0,0.0,0.0,0.0,0.0,0.0,0.0,0.0,0.0,0.0,0.0,0.0,0.0,0.0,0.0,0.0,0.0,0.0,0.0,0.0,0.0,0.0,0.0,0.0,0.0,0.0,0.0,0.0,0.0,0.0,0.0,0.0,0.0,0.0,0.0,0.0,0.0,0.0,0.0,0.0,0.0,0.0,0.0,0.0,0.0,0.0,0.0,0.0,0.0,0.0,-0.6454,-0.7965,-0.837,-0.8396,0.0,0.0,0.0,0.0,0.0,0.0,0.0,0.0,0.0,0.0,0.0,0.0,0.0,0.0,0.0,0.0,0.0,0.0,0.0,0.0,0.0,0.0,0.0,0.0,0.0,0.0,0.0,0.0,0.0,0.0,0.0,0.0,0.0,0.0,0.0,0.0,0.0,0.0,0.0,0.0,0.0,0.0,0.0,0.0,0.0,0.0,0.0,0.0,0.0,0.0,0.0,0.0,0.0,0.0,0.0,0.0,0.0,0.0,0.0,0.0,0.0,0.0,0.0,0.0,0.0,0.0,0.0,0.0,0.0,0.0,0.0,0.0,0.0,0.0,0.0,0.0,0.0,0.0,0.0,0.0,0.0,0.0,0.0,0.0,0.0,0.0,0.0,0.0,0.0,0.0,0.0,0.0,0.0,0.0,0.0,0.0,0.0,0.0,0.0,0.0,0.0,0.0,0.0,0.0,0.0,0.0,0.0,0.0,0.0,0.0,-0.645,-0.7852,-0.9468,-0.9526,-0.9416,-0.9168,0.0,0.0,0.0,0.0,0.0,0.0,0.0,0.0,0.0,0.0,0.0,0.0,0.0,0.0,0.0,0.0,0.0,0.0,0.0,0.0,0.0,0.0,0.0,0.0,0.0,0.0,0.0,0.0,0.0,0.0,0.0,0.0,0.0,0.0,0.0,0.0,0.0,0.0,0.0,0.0,0.0,0.0,0.0,0.0,0.0,0.0,0.0,0.0,0.0,0.0,0.0,0.0,0.0,0.0,0.0,0.0,0.0,0.0,0.0,0.0,0.0,0.0,0.0,0.0,0.0,0.0,0.0,0.0,0.0,0.0,0.0,0.0,0.0,0.0,0.0,0.0,0.0,0.0,0.0,0.0,0.0,0.0,0.0,0.0,0.0,0.0,0.0,0.0,0.0,0.0,0.0,0.0,0.0,0.0,0.0,0.0,0.0,0.0,0.0,0.0,0.0,0.0,0.0,0.0,0.0,0.0,0.0,0.0,-0.6784,-0.8201,-0.9483,-1.0654,-1.0682,-1.0545,0.0,0.0,0.0,0.0,0.0,0.0,0.0,0.0,0.0,0.0,0.0,0.0,0.0,0.0,0.0,0.0,0.0,0.0,0.0,0.0,0.0,0.0,0.0,0.0,0.0,0.0,0.0,0.0,0.0,0.0,0.0,0.0,0.0,0.0,0.0,0.0,0.0,0.0,0.0,0.0,0.0,0.0,0.0,0.0,0.0,0.0,0.0,0.0,0.0,0.0,0.0,0.0,0.0,0.0,0.0,0.0,0.0,0.0,0.0,0.0,0.0,0.0,0.0,0.0,0.0,0.0,0.0,0.0,0.0,0.0,0.0,0.0,0.0,0.0,0.0,0.0,0.0,0.0,0.0,0.0,0.0,0.0,0.0,0.0,0.0,0.0,0.0,0.0,0.0,0.0,0.0,0.0,0.0,0.0,0.0,0.0,0.0,0.0,0.0,0.0,0.0,0.0,0.0,0.0,0.0,0.0,0.0,0.0,0.0,-0.8829,-1.0594,-1.1787,-1.2408,-1.2234,-1.2048,0.0,0.0,0.0,0.0,0.0,0.0,0.0,0.0,0.0,0.0,0.0,0.0,0.0,0.0,0.0,0.0,0.0,0.0,0.0,0.0,0.0,0.0,0.0,0.0,0.0,0.0,0.0,0.0,0.0,0.0,0.0,0.0,0.0,0.0,0.0,0.0,0.0,0.0,0.0,0.0,0.0,0.0,0.0,0.0,0.0,0.0,0.0,0.0,0.0,0.0,0.0,0.0,0.0,0.0,0.0,0.0,0.0,0.0,0.0,0.0,0.0,0.0,0.0,0.0,0.0,0.0,0.0,0.0,0.0,0.0,0.0,0.0,0.0,0.0,0.0,0.0,0.0,0.0,0.0,0.0,0.0,0.0,0.0,0.0,0.0,0.0,0.0,0.0,0.0,0.0,0.0,0.0,0.0,0.0,0.0,0.0,0.0,0.0,0.0,0.0,0.0,0.0,0.0,0.0,0.0,0.0,0.0,0.0,0.0,-1.1147,0.0,-1.3653,-1.3509,-1.3445,-1.3131,0.0,0.0,0.0,0.0,0.0,0.0,0.0,0.0,0.0,0.0,0.0,0.0,0.0,0.0,0.0,0.0,0.0,0.0,0.0,0.0,0.0,0.0,0.0,0.0,0.0,0.0,0.0,0.0,0.0,0.0,0.0,0.0,0.0,0.0,0.0,0.0,0.0,0.0,0.0,0.0,0.0,0.0,0.0,0.0,0.0,0.0,0.0,0.0,0.0,0.0,0.0,0.0,0.0,0.0,0.0,0.0,0.0,0.0,0.0,0.0,0.0,0.0,0.0,0.0,0.0,0.0,0.0,0.0,0.0,0.0,0.0,0.0,0.0,0.0,0.0,0.0,0.0,0.0,0.0,0.0,0.0,0.0,0.0,0.0,0.0,0.0,0.0,0.0,0.0,0.0,0.0,0.0,0.0,0.0,0.0,0.0,0.0,0.0,0.0,0.0,0.0,0.0,0.0,0.0,0.0,0.0,0.0,0.0,-1.1803,-1.3689,-1.4649,-1.4743,-1.3895,-1.4143,-1.3672,0.0,0.0,0.0,0.0,0.0,0.0,0.0,0.0,0.0,0.0,0.0,0.0,0.0,0.0,0.0,0.0,0.0,0.0,0.0,0.0,0.0,0.0,0.0,0.0,0.0,0.0,0.0,0.0,0.0,0.0,0.0,0.0,0.0,0.0,0.0,0.0,0.0,0.0,0.0,0.0,0.0,0.0,0.0,0.0,0.0,0.0,0.0,0.0,0.0,0.0,0.0,0.0,0.0,0.0,0.0,0.0,0.0,0.0,0.0,0.0,0.0,0.0,0.0,0.0,0.0,0.0,0.0,0.0,0.0,0.0,0.0,0.0,0.0,0.0,0.0,0.0,0.0,0.0,0.0,0.0,0.0,0.0,0.0,0.0,0.0,0.0,0.0,0.0,0.0,0.0,0.0,0.0,0.0,0.0,0.0,0.0,0.0,0.0,0.0,0.0,0.0,0.0,0.0,0.0,0.0,0.0,0.0,0.0,0.0,-1.3784,-1.4766,-1.5321,-1.5528,-1.4958,-1.4552,0.0,0.0,0.0,0.0,0.0,0.0,0.0,0.0,0.0,0.0,0.0,0.0,0.0,0.0,0.0,0.0,0.0,0.0,0.0,0.0,0.0,0.0,0.0,0.0,0.0,0.0,0.0,0.0,0.0,0.0,0.0,0.0,0.0,0.0,0.0,0.0,0.0,0.0,0.0,0.0,0.0,0.0,0.0,0.0,0.0,0.0,0.0,0.0,0.0,0.0,0.0,0.0,0.0,0.0,0.0,0.0,0.0,0.0,0.0,0.0,0.0,0.0,0.0,0.0,0.0,0.0,0.0,0.0,0.0,0.0,0.0,0.0,0.0,0.0,0.0,0.0,0.0,0.0,0.0,0.0,0.0,0.0,0.0,0.0,0.0,0.0,0.0,0.0,0.0,0.0,0.0,0.0,0.0,0.0,0.0,0.0,0.0,0.0,0.0,0.0,0.0,0.0,0.0,0.0,0.0,0.0,0.0,0.0,0.0,-1.4147,-1.511,-1.5882,-1.6302,-1.552,-1.5172,-1.5134,0.0,0.0,0.0,0.0,0.0,0.0,0.0,0.0,0.0,0.0,0.0,0.0,0.0,0.0,0.0,0.0,0.0,0.0,0.0,0.0,0.0,0.0,0.0,0.0,0.0,0.0,0.0,0.0,0.0,0.0,0.0,0.0,0.0,0.0,0.0,0.0,0.0,0.0,0.0,0.0,0.0,0.0,0.0,0.0,0.0,0.0,0.0,0.0,0.0,0.0,0.0,0.0,0.0,0.0,0.0,0.0,0.0,0.0,0.0,0.0,0.0,0.0,0.0,0.0,0.0,0.0,0.0,0.0,0.0,0.0,0.0,0.0,0.0,0.0,0.0,0.0,0.0,0.0,0.0,0.0,0.0,0.0,0.0,0.0,0.0,0.0,0.0,0.0,0.0,0.0,0.0,0.0,0.0,0.0,0.0,0.0,0.0,0.0,0.0,0.0,0.0,0.0,0.0,0.0,0.0,0.0,0.0,0.0,-1.4599,-1.5623,-1.6212,-1.636,-1.5928,-1.5589,0.0,0.0,0.0,0.0,0.0,0.0,0.0,0.0,0.0,0.0,0.0,0.0,0.0,0.0,0.0,0.0,0.0,0.0,0.0,0.0,0.0,0.0,0.0,0.0,0.0,0.0,0.0,0.0,0.0,0.0,0.0,0.0,0.0,0.0,0.0,0.0,0.0,0.0,0.0,0.0,0.0,0.0,0.0,0.0,0.0,0.0,0.0,0.0,0.0,0.0,0.0,0.0,0.0,0.0,0.0,0.0,0.0,0.0,0.0,0.0,0.0,0.0,0.0,0.0,0.0,0.0,0.0,0.0,0.0,0.0,0.0,0.0,0.0,0.0,0.0,0.0,0.0,0.0,0.0,0.0,0.0,0.0,0.0,0.0,0.0,0.0,0.0,0.0,0.0,0.0,0.0,0.0,0.0,0.0,0.0,0.0,0.0,0.0,0.0,0.0,0.0,0.0,0.0,0.0,0.0,0.0,0.0,0.0,0.0,-1.4942,-1.5599,-1.6253,-1.6924,-1.6434,-1.6287,0.0,0.0,0.0,0.0,0.0,0.0,0.0,0.0,0.0,0.0,0.0,0.0,0.0,0.0,0.0,0.0,0.0,0.0,0.0,0.0,0.0,0.0,0.0,0.0,0.0,0.0,0.0,0.0,0.0,0.0,0.0,0.0,0.0,0.0,0.0,0.0,0.0,0.0,0.0,0.0,0.0,0.0,0.0,0.0,0.0,0.0,0.0,0.0,0.0,0.0,0.0,0.0,0.0,0.0,0.0,0.0,0.0,0.0,0.0,0.0,0.0,0.0,0.0,0.0,0.0,0.0,0.0,0.0,0.0,0.0,0.0,0.0,0.0,0.0,0.0,0.0,0.0,0.0,0.0,0.0,0.0,0.0,0.0,0.0,0.0,0.0,0.0,0.0,0.0,0.0,0.0,0.0,0.0,0.0,0.0,0.0,0.0,0.0,0.0,0.0,0.0,0.0,0.0,0.0,0.0,0.0,0.0,0.0,-1.4505,-1.4847,-1.5633,-1.6436,-1.7292,-1.6721,-1.6523,0.0,0.0,0.0,0.0,0.0,0.0,0.0,0.0,0.0,0.0,0.0,0.0,0.0,0.0,0.0,0.0,0.0,0.0,0.0,0.0,0.0,0.0,0.0,0.0,0.0,0.0,0.0,0.0,0.0,0.0,0.0,0.0,0.0,0.0,0.0,0.0,0.0,0.0,0.0,0.0,0.0,0.0,0.0,0.0,0.0,0.0,0.0,0.0,0.0,0.0,0.0,0.0,0.0,0.0,0.0,0.0,0.0,0.0,0.0,0.0,0.0,0.0,0.0,0.0,0.0,0.0,0.0,0.0,0.0,0.0,0.0,0.0,0.0,0.0,0.0,0.0,0.0,0.0,0.0,0.0,0.0,0.0,0.0,0.0,0.0,0.0,0.0,0.0,0.0,0.0,0.0,0.0,0.0,0.0,0.0,0.0,0.0,0.0,0.0,0.0,0.0,0.0,0.0,0.0,0.0,0.0,0.0,0.0,-1.4479,-1.4531,-1.5516,-1.6484,-1.7334,-1.6891,-1.6647,0.0,0.0,0.0,0.0,0.0,0.0,0.0,0.0,0.0,0.0,0.0,0.0,0.0,0.0,0.0,0.0,0.0,0.0,0.0,0.0,0.0,0.0,0.0,0.0,0.0,0.0,0.0,0.0,0.0,0.0,0.0,0.0,0.0,0.0,0.0,0.0,0.0,0.0,0.0,0.0,0.0,0.0,0.0,0.0,0.0,0.0,0.0,0.0,0.0,0.0,0.0,0.0,0.0,0.0,0.0,0.0,0.0,0.0,0.0,0.0,0.0,0.0,0.0,0.0,0.0,0.0,0.0,0.0,0.0,0.0,0.0,0.0,0.0,0.0,0.0,0.0,0.0,0.0,0.0,0.0,0.0,0.0,0.0,0.0,0.0,0.0,0.0,0.0,0.0,0.0,0.0,0.0,0.0,0.0,0.0,0.0,0.0,0.0,0.0,0.0,0.0,0.0,0.0,0.0,0.0,0.0,0.0,0.0,-1.4352,-1.4597,-1.5554,-1.6484,-1.7359,-1.7115,-1.7009,0.0,0.0,0.0,0.0,0.0,0.0,0.0,0.0,0.0,0.0,0.0,0.0,0.0,0.0,0.0,0.0,0.0,0.0,0.0,0.0,0.0,0.0,0.0,0.0,0.0,0.0,0.0,0.0,0.0,0.0,0.0,0.0,0.0,0.0,0.0,0.0,0.0,0.0,0.0,0.0,0.0,0.0,0.0,0.0,0.0,0.0,0.0,0.0,-1.9561,0.0,0.0,0.0,0.0,0.0,0.0,0.0,0.0,0.0,0.0,0.0,0.0,0.0,0.0,0.0,0.0,0.0,0.0,0.0,0.0,0.0,0.0,0.0,0.0,0.0,0.0,0.0,0.0,0.0,0.0,0.0,0.0,0.0,0.0,0.0,0.0,0.0,0.0,0.0,0.0,0.0,0.0,0.0,0.0,0.0,0.0,0.0,0.0,0.0,0.0,0.0,0.0,0.0,0.0,0.0,0.0,0.0,0.0,0.0,-1.4295,-1.461,-1.5584,-1.6492,-1.7334,-1.7441,-1.7301,0.0,0.0,0.0,0.0,0.0,0.0,0.0,0.0,0.0,0.0,0.0,0.0,0.0,0.0,0.0,0.0,0.0,0.0,0.0,0.0,0.0,0.0,0.0,0.0,0.0,0.0,0.0,0.0,0.0,0.0,0.0,0.0,0.0,0.0,0.0,0.0,0.0,0.0,0.0,0.0,0.0,0.0,0.0,0.0,0.0,0.0,0.0,0.0,0.0,0.0,0.0,0.0,0.0,0.0,0.0,0.0,0.0,0.0,0.0,0.0,0.0,0.0,0.0,0.0,0.0,0.0,0.0,0.0,0.0,0.0,0.0,0.0,0.0,0.0,0.0,0.0,0.0,0.0,0.0,0.0,0.0,0.0,0.0,0.0,0.0,0.0,0.0,0.0,0.0,0.0,0.0,0.0,0.0,0.0,0.0,0.0,0.0,0.0,0.0,0.0,0.0,0.0,0.0,0.0,0.0,0.0,0.0,-1.3776,-1.4237,-1.4674,-1.5524,-1.6476,-1.735,-1.7646,-1.7355,-1.6455,0.0,0.0,0.0,0.0,0.0,0.0,0.0,0.0,0.0,0.0,0.0,0.0,0.0,0.0,0.0,0.0,0.0,0.0,0.0,0.0,0.0,0.0,0.0,0.0,0.0,0.0,0.0,0.0,0.0,0.0,0.0,0.0,0.0,0.0,0.0,0.0,0.0,0.0,-2.0799,-2.0924,0.0,0.0,0.0,0.0,0.0,0.0,0.0,0.0,-2.372,0.0,0.0,0.0,0.0,0.0,0.0,0.0,0.0,0.0,0.0,0.0,0.0,0.0,0.0,0.0,0.0,0.0,0.0,0.0,0.0,0.0,0.0,0.0,0.0,0.0,0.0,0.0,0.0,0.0,0.0,0.0,0.0,0.0,0.0,0.0,0.0,0.0,0.0,0.0,0.0,0.0,0.0,0.0,0.0,0.0,0.0,0.0,0.0,0.0,0.0,0.0,0.0,0.0,0.0,0.0,0.0,-1.3014,-1.3403,-1.4017,-1.465,-1.5372,-1.6304,-1.7342,-1.7179,-1.6907,-1.6463,0.0,0.0,0.0,0.0,0.0,0.0,0.0,0.0,0.0,0.0,0.0,0.0,0.0,0.0,0.0,0.0,0.0,0.0,0.0,0.0,0.0,0.0,0.0,0.0,0.0,0.0,0.0,0.0,0.0,0.0,0.0,0.0,0.0,0.0,0.0,0.0,0.0,0.0,0.0,-2.2542,-2.3531,0.0,0.0,0.0,0.0,0.0,0.0,0.0,0.0,-2.5004,0.0,0.0,0.0,0.0,0.0,0.0,0.0,0.0,0.0,0.0,0.0,0.0,0.0,0.0,0.0,0.0,0.0,0.0,0.0,0.0,0.0,0.0,0.0,0.0,0.0,0.0,0.0,0.0,0.0,0.0,0.0,0.0,0.0,0.0,0.0,0.0,0.0,0.0,0.0,0.0,0.0,0.0,0.0,0.0,0.0,0.0,0.0,0.0,0.0,0.0,0.0,0.0,0.0,0.0,0.0,-1.5537,-1.4208,-1.3872,-1.4545,-1.5311,-1.6229,-1.735,-1.7108,-1.6752,0.0,0.0,0.0,0.0,0.0,0.0,0.0,0.0,0.0,0.0,0.0,0.0,0.0,0.0,0.0,0.0,0.0,0.0,0.0,0.0,0.0,0.0,0.0,0.0,0.0,0.0,0.0,0.0,0.0,0.0,0.0,0.0,0.0,0.0,0.0,0.0,0.0,0.0,0.0,0.0,-2.4184,-2.492,-2.5469,0.0,0.0,0.0,0.0,0.0,0.0,-2.7203,-2.6888,0.0,0.0,0.0,0.0,0.0,0.0,0.0,0.0,0.0,0.0,0.0,0.0,0.0,0.0,0.0,0.0,0.0,0.0,0.0,0.0,0.0,0.0,0.0,0.0,0.0,0.0,0.0,0.0,0.0,0.0,0.0,0.0,0.0,0.0,0.0,0.0,0.0,0.0,0.0,0.0,0.0,0.0,0.0,0.0,0.0,0.0,0.0,0.0,0.0,0.0,0.0,0.0,0.0,0.0,0.0,-1.7931,-1.5872,-1.4624,-1.4427,-1.5235,-1.6214,-1.735,-1.6954,-1.6669,0.0,0.0,0.0,0.0,0.0,0.0,0.0,0.0,0.0,0.0,0.0,0.0,0.0,0.0,0.0,0.0,0.0,0.0,0.0,0.0,0.0,0.0,0.0,0.0,0.0,0.0,0.0,0.0,0.0,0.0,0.0,0.0,0.0,0.0,0.0,0.0,0.0,0.0,0.0,0.0,0.0,-2.6649,-2.7551,-2.8484,0.0,0.0,0.0,0.0,-2.9553,-2.8855,0.0,0.0,0.0,0.0,0.0,0.0,0.0,0.0,0.0,0.0,0.0,0.0,0.0,0.0,0.0,0.0,0.0,0.0,0.0,0.0,0.0,0.0,0.0,0.0,0.0,0.0,0.0,0.0,0.0,0.0,0.0,0.0,0.0,0.0,0.0,0.0,0.0,0.0,0.0,0.0,0.0,0.0,0.0,0.0,0.0,0.0,0.0,0.0,0.0,0.0,0.0,0.0,0.0,0.0,0.0,0.0,-1.8135,-1.8472,-1.7387,-1.458,-1.5061,-1.6049,-1.735,-1.669,-1.6395,0.0,0.0,0.0,0.0,0.0,0.0,0.0,0.0,0.0,0.0,0.0,0.0,0.0,0.0,0.0,0.0,0.0,0.0,0.0,0.0,0.0,0.0,0.0,0.0,0.0,0.0,0.0,0.0,0.0,0.0,0.0,0.0,0.0,0.0,0.0,0.0,0.0,0.0,0.0,0.0,0.0,-2.9563,-2.9865,-3.0999,-3.1442,0.0,0.0,-3.1263,-2.995,-2.9789,0.0,0.0,0.0,0.0,0.0,0.0,0.0,0.0,0.0,0.0,0.0,0.0,0.0,0.0,0.0,0.0,0.0,0.0,0.0,0.0,0.0,0.0,0.0,0.0,0.0,0.0,0.0,0.0,0.0,0.0,0.0,0.0,0.0,0.0,0.0,0.0,0.0,0.0,0.0,0.0,0.0,0.0,0.0,0.0,0.0,0.0,0.0,0.0,0.0,0.0,0.0,0.0,0.0,0.0,0.0,-2.7561,-2.4299,-2.124,-1.8954,-1.7484,-1.5907,-1.569,-1.6756,-1.6244,-1.5947,0.0,0.0,0.0,0.0,0.0,0.0,0.0,0.0,0.0,0.0,0.0,0.0,0.0,0.0,0.0,0.0,0.0,0.0,0.0,0.0,0.0,0.0,0.0,0.0,0.0,0.0,0.0,0.0,0.0,0.0,0.0,0.0,0.0,0.0,0.0,0.0,0.0,0.0,0.0,0.0,0.0,0.0,-3.1784,-3.254,0.0,0.0,0.0,-3.2523,-3.1304,0.0,0.0,0.0,0.0,0.0,0.0,0.0,0.0,0.0,0.0,0.0,0.0,0.0,0.0,0.0,0.0,0.0,0.0,0.0,0.0,0.0,0.0,0.0,0.0,0.0,0.0,0.0,0.0,0.0,0.0,0.0,0.0,0.0,0.0,0.0,0.0,0.0,0.0,0.0,0.0,0.0,0.0,0.0,0.0,0.0,0.0,0.0,0.0,0.0,0.0,0.0,0.0,0.0,0.0,0.0,0.0,0.0,-2.8914,-2.3853,-2.07,-1.9512,-1.6413,-1.5245,-1.6286,-1.608,0.0,0.0,0.0,0.0,0.0,0.0,0.0,0.0,0.0,0.0,0.0,0.0,0.0,0.0,0.0,0.0,0.0,0.0,0.0,0.0,0.0,0.0,0.0,0.0,0.0,0.0,0.0,-2.2972,0.0,0.0,0.0,0.0,0.0,0.0,0.0,0.0,0.0,0.0,0.0,0.0,0.0,0.0,-3.2571,-3.3483,-3.382,-3.3887,0.0,0.0,-3.362,-3.2617,-3.2454,-3.2195,0.0,0.0,0.0,0.0,0.0,0.0,0.0,0.0,0.0,0.0,0.0,0.0,0.0,0.0,0.0,0.0,0.0,0.0,0.0,0.0,0.0,0.0,0.0,0.0,0.0,0.0,0.0,0.0,0.0,0.0,0.0,0.0,0.0,0.0,0.0,0.0,0.0,0.0,0.0,0.0,0.0,0.0,0.0,0.0,0.0,0.0,0.0,0.0,0.0,0.0,0.0,0.0,0.0,0.0,-3.2914,-2.8476,-2.622,-2.3043,-1.9,-1.5974,-1.501,-1.6269,-1.6581,-1.6714,0.0,0.0,0.0,0.0,0.0,0.0,0.0,0.0,0.0,0.0,0.0,0.0,0.0,0.0,0.0,0.0,0.0,0.0,0.0,0.0,0.0,0.0,0.0,0.0,0.0,0.0,0.0,0.0,0.0,0.0,0.0,0.0,0.0,0.0,0.0,0.0,0.0,0.0,0.0,0.0,0.0,-3.4252,-3.4866,-3.4944,-3.4673,0.0,-3.4431,-3.4414,-3.3633,-3.3479,-3.3287,-3.2788,0.0,0.0,0.0,0.0,0.0,0.0,0.0,0.0,0.0,0.0,0.0,0.0,0.0,0.0,0.0,0.0,0.0,0.0,0.0,0.0,0.0,0.0,0.0,0.0,0.0,0.0,0.0,0.0,0.0,0.0,0.0,0.0,0.0,0.0,0.0,0.0,0.0,0.0,0.0,0.0,0.0,0.0,0.0,0.0,0.0,0.0,0.0,0.0,0.0,0.0,0.0,0.0,0.0,-3.3939,-3.1427,-2.7027,-2.3884,-2.2016,-1.6747,-1.4426,-1.5397,-1.6108,-1.6383,0.0,0.0,0.0,0.0,0.0,0.0,0.0,0.0,0.0,0.0,0.0,0.0,0.0,0.0,0.0,0.0,0.0,0.0,0.0,0.0,0.0,0.0,0.0,0.0,0.0,0.0,0.0,0.0,-2.6605,-2.7215,-2.812,0.0,0.0,0.0,0.0,0.0,0.0,0.0,0.0,0.0,0.0,-3.5157,-3.5605,-3.5605,0.0,0.0,-3.5436,-3.5266,-3.4479,-3.4333,-3.4186,-3.3633,-3.3355,0.0,0.0,0.0,0.0,0.0,0.0,0.0,0.0,0.0,0.0,0.0,0.0,0.0,0.0,0.0,0.0,0.0,0.0,0.0,0.0,0.0,0.0,0.0,0.0,0.0,0.0,0.0,0.0,0.0,0.0,0.0,0.0,0.0,0.0,0.0,0.0,0.0,0.0,0.0,0.0,0.0,0.0,0.0,0.0,0.0,0.0,0.0,0.0,0.0,0.0,0.0,0.0,-3.4308,-3.313,-2.7239,-2.4073,-2.3834,-1.6987,-1.3844,-1.484,-1.5745,-1.6201,0.0,0.0,0.0,0.0,0.0,0.0,0.0,0.0,0.0,0.0,0.0,0.0,0.0,0.0,0.0,0.0,0.0,0.0,0.0,0.0,0.0,0.0,0.0,0.0,0.0,0.0,0.0,0.0,-2.902,-2.9823,-3.0541,0.0,0.0,0.0,0.0,0.0,0.0,0.0,0.0,0.0,0.0,-3.6096,-3.6131,-3.6174,-3.6131,-3.6019,-3.6019,-3.5871,-3.522,-3.5128,-3.4894,-3.4186,0.0,0.0,0.0,0.0,0.0,0.0,0.0,0.0,0.0,0.0,0.0,0.0,0.0,0.0,0.0,0.0,0.0,0.0,0.0,0.0,0.0,0.0,0.0,0.0,0.0,0.0,0.0,0.0,0.0,0.0,-3.3993,0.0,0.0,0.0,0.0,0.0,0.0,0.0,0.0,0.0,0.0,0.0,0.0,0.0,0.0,0.0,0.0,0.0,0.0,0.0,0.0,0.0,0.0,-3.4091,-3.2462,-2.6928,-2.37,-2.3003,-1.6454,-1.365,-1.4832,-1.5621,-1.6405,-1.7212,0.0,0.0,0.0,0.0,0.0,0.0,0.0,0.0,0.0,0.0,0.0,0.0,0.0,0.0,0.0,0.0,0.0,0.0,0.0,0.0,0.0,0.0,0.0,0.0,0.0,0.0,-2.8942,-3.0382,-3.1348,0.0,0.0,0.0,0.0,0.0,0.0,0.0,0.0,0.0,0.0,-3.718,-3.712,-3.6481,-3.6492,-3.6468,-3.6062,-3.6105,-3.614,-3.5975,-3.5844,-3.5407,0.0,0.0,0.0,0.0,0.0,0.0,0.0,0.0,0.0,0.0,0.0,0.0,0.0,0.0,0.0,0.0,0.0,0.0,0.0,0.0,0.0,0.0,0.0,0.0,0.0,0.0,0.0,-3.3353,-3.4086,0.0,0.0,0.0,0.0,0.0,0.0,0.0,0.0,0.0,0.0,0.0,-3.8506,-3.7709,0.0,0.0,0.0,0.0,0.0,0.0,0.0,0.0,0.0,0.0,0.0,0.0,-3.3474,-3.1716,-2.834,-2.5393,-2.2968,-1.8623,-1.5773,-1.4759,-1.5542,-1.6345,-1.7044,0.0,0.0,0.0,0.0,0.0,0.0,0.0,0.0,0.0,0.0,0.0,0.0,0.0,0.0,0.0,0.0,0.0,0.0,0.0,0.0,0.0,0.0,0.0,0.0,0.0,-3.104,0.0,0.0,0.0,0.0,0.0,0.0,0.0,0.0,0.0,0.0,0.0,-3.7598,-3.8122,-3.8008,-3.7596,-3.6843,-3.6719,-3.6615,0.0,0.0,0.0,0.0,0.0,0.0,0.0,0.0,0.0,0.0,0.0,0.0,0.0,0.0,-3.4384,-3.3818,-3.4374,-3.4978,-3.5086,0.0,0.0,0.0,0.0,0.0,0.0,0.0,0.0,0.0,0.0,0.0,0.0,0.0,0.0,-3.6476,0.0,-3.7973,0.0,0.0,0.0,0.0,0.0,0.0,0.0,0.0,-3.9337,-3.9166,-3.899,-3.8401,-3.8098,0.0,-3.7661,-3.6844,0.0,0.0,0.0,0.0,0.0,0.0,0.0,0.0,-3.2921,-3.1385,-2.9109,-2.6398,-2.3318,-1.9768,-1.6994,-1.5151,-1.6105,-1.6958,-1.7512,-1.8076,-1.8117,0.0,0.0,0.0,0.0,0.0,0.0,0.0,0.0,0.0,0.0,0.0,0.0,0.0,0.0,0.0,0.0,0.0,0.0,0.0,0.0,0.0,0.0,0.0,-3.3087,0.0,0.0,0.0,0.0,0.0,0.0,0.0,0.0,0.0,-3.7908,-3.8781,-3.9123,-3.8606,-3.8449,-3.8132,-3.7321,0.0,0.0,0.0,0.0,0.0,0.0,0.0,-3.6017,-3.5449,-3.5413,-3.5481,-3.554,-3.5387,-3.5282,-3.5298,0.0,0.0,-3.4888,-3.5508,-3.6189,-3.6243,-3.6711,-3.7037,-3.6783,-3.6504,-3.6124,0.0,0.0,0.0,0.0,0.0,0.0,0.0,0.0,-3.8886,-3.8749,0.0,-3.9715,0.0,0.0,0.0,0.0,0.0,-4.0396,0.0,0.0,-3.9976,-3.9919,-3.9253,-3.9166,-3.9116,-3.899,-3.8281,-3.7878,-3.7802,-3.7428,0.0,0.0,0.0,0.0,0.0,0.0,-3.2495,-3.1452,-2.9294,-2.6762,-2.3961,-2.0079,-1.7297,-1.5852,-1.7166,-1.8202,-1.8721,-1.877,-1.9169,-2.003,-1.9189,0.0,0.0,0.0,0.0,0.0,0.0,0.0,0.0,0.0,0.0,0.0,0.0,0.0,0.0,0.0,0.0,0.0,0.0,0.0,0.0,-3.3895,0.0,0.0,0.0,0.0,0.0,0.0,0.0,0.0,0.0,0.0,-3.6755,-3.7927,-3.8605,-3.8141,0.0,0.0,0.0,0.0,-3.7321,-3.6856,-3.665,-3.6444,-3.6301,-3.6251,-3.6065,-3.5629,0.0,0.0,-3.6394,-3.5884,-3.5505,-3.5473,-3.631,-3.6686,-3.5887,-3.6442,-3.7032,-3.7134,-3.7403,-3.7649,-3.7826,-3.7285,-3.6688,-4.3546,0.0,0.0,0.0,0.0,-4.1531,-4.133,-4.1745,-4.0454,-4.0169,-4.0655,-4.0424,0.0,0.0,0.0,0.0,0.0,0.0,-4.0539,-4.0346,-4.0463,-4.0385,-4.0127,-4.006,-3.9994,-3.9924,-3.9733,-3.9362,-3.8802,-3.8623,-3.7504,-3.5396,0.0,0.0,0.0,0.0,-3.2802,-3.2272,-3.202,-2.907,-2.3322,-2.2177,-1.9768,-1.5835,-1.7235,-1.8279,-1.8818,-1.9391,-1.9737,-1.9846,-2.0205,0.0,0.0,0.0,0.0,0.0,0.0,0.0,0.0,0.0,0.0,0.0,0.0,0.0,0.0,0.0,0.0,0.0,0.0,0.0,-3.3318,-3.4369,-3.488,0.0,0.0,0.0,0.0,0.0,0.0,0.0,0.0,0.0,-3.7962,-3.8591,-3.9077,0.0,0.0,-3.8554,-3.8101,-3.7667,-3.7264,-3.6856,-3.6533,0.0,-3.6233,-3.6233,-3.5966,-3.5033,-3.538,-3.5919,-3.6311,-3.6674,-3.688,-3.6864,-3.7502,-3.7907,-3.7729,-3.8036,-3.8381,-3.8418,-3.8435,-3.8504,-3.8535,-3.7236,-3.5858,-4.4422,-4.388,-4.3276,-4.3221,-4.3451,-4.2711,-4.2455,-4.249,-4.1766,-4.1395,-4.1356,-4.0976,-4.0875,-4.0961,-4.0987,0.0,0.0,0.0,-4.0823,-4.0796,-4.0662,-4.0593,-4.0549,-4.0504,-4.0457,-4.0422,-4.0154,-3.9764,-3.9215,-3.8199,-3.6892,-3.5242,0.0,0.0,-3.2568,-3.2951,-3.2966,-3.2651,-3.3214,-3.0208,-2.35,-2.1182,-1.8634,-1.5861,-1.695,-1.8066,-1.8808,-1.9715,-2.0287,-2.0364,-2.1078,-2.1547,0.0,0.0,0.0,0.0,0.0,0.0,0.0,0.0,0.0,0.0,0.0,-2.9054,-2.9563,0.0,0.0,0.0,-3.2912,-3.3773,-3.4488,-3.4875,0.0,0.0,0.0,0.0,0.0,0.0,0.0,-3.6231,-3.751,-3.8388,-3.8452,-3.8877,-3.9192,-3.935,-3.9055,-3.8646,-3.8267,0.0,-3.7394,-3.6995,-3.6615,-3.6343,-3.6233,-3.6276,-3.6027,-3.5262,-3.5271,-3.5545,-3.5932,-3.639,-3.6643,-3.6701,-3.7045,-3.7422,-3.7533,-3.7899,-3.8504,-3.9106,-3.904,-3.8874,-3.879,-3.7185,-3.5684,-4.4505,-4.4366,-4.2895,-4.2841,-4.3593,-4.2802,-4.2878,-4.3509,-4.2659,-4.2304,-4.224,-4.1388,-4.1042,-4.1108,-4.1094,0.0,-4.0898,-4.0887,-4.0877,-4.0803,-4.0662,-4.0602,-4.0588,-4.0521,-4.0501,-4.0472,-3.9746,-3.9301,-3.8981,-3.6817,-3.5562,-3.5292,-3.5157,-3.451,-3.3366,-3.3149,-3.2943,-3.2614,-3.3186,-3.0386,-2.4024,-1.8132,-1.5259,-1.5675,-1.6673,-1.7716,-1.8741,-1.9781,-2.0677,-2.1376,-2.1874,-2.2443,-2.3062,0.0,0.0,0.0,0.0,0.0,0.0,0.0,0.0,0.0,0.0,0.0,0.0,0.0,0.0,0.0,-3.4582,0.0,-3.581,-3.5469,0.0,0.0,0.0,-3.5475,-3.6022,-3.6496,-3.69,-3.7281,0.0,0.0,-3.8432,-3.8831,-3.9156,-3.9272,-3.9165,-3.8931,-3.8478,-3.8034,-3.7613,-3.7226,-3.6834,-3.6502,-3.6301,-3.6216,-3.6031,-3.5841,-3.5598,-3.534,-3.541,-3.5442,-3.541,-3.5473,-3.5657,-3.5915,-3.6152,-3.6776,-3.7585,-3.914,-3.9076,-3.8705,-3.8321,-3.7094,-3.5853,-4.3683,-4.3602,-4.2578,-4.2677,-4.3493,-4.3001,-4.2714,-4.2565,-4.1771,-4.1406,-4.1387,-4.1175,-4.107,-4.1097,-4.1056,-4.102,-4.0979,-4.0915,-4.0859,-4.0804,-4.0773,-4.0713,-4.0582,-4.0043,-3.9702,-3.9579,-3.8896,-3.8179,-3.7404,-3.6818,-3.5798,-3.4506,-3.4854,-3.4244,-3.2618,-3.2366,-3.2385,-3.2596,-3.2638,-2.9617,-2.3355,-1.7202,-1.4466,-1.5338,-1.6533,-1.7638,-1.8519,-1.9441,-2.042,-2.1325,-2.2005,-2.2852,-2.3909,-2.4065,0.0,0.0,0.0,0.0,0.0,0.0,0.0,0.0,0.0,-3.0635,-3.0758,0.0,-3.2283,0.0,-3.4568,-3.5846,-3.6218,-3.6294,0.0,0.0,-3.5454,-3.5992,-3.6615,-3.7022,-3.7349,-3.7657,-3.8321,-3.8804,-3.8992,-3.9026,-3.9045,-3.9129,-3.9007,-3.8833,-3.8683,-3.8252,-3.7756,-3.7264,-3.6917,-3.6615,-3.6301,-3.5644,-3.5349,-3.581,-3.5162,-3.4731,-3.5284,-3.5394,-3.5394,-3.545,-3.5641,-3.5883,-3.6104,-3.6626,-3.7084,-3.7703,-3.7703,-3.7569,-3.7536,-3.6231,-3.4979,-4.2738,-4.266,-4.1831,-4.1759,-4.2218,-4.2104,-4.1935,-4.1696,-4.1271,-4.1085,-4.1046,-4.1022,-4.1011,-4.1011,-4.0974,-4.0957,-4.0915,-4.0878,-4.0787,-4.0706,-4.0706,-4.0462,-4.0034,-3.9637,-3.9216,-3.8786,-3.8083,-3.7424,-3.6895,-3.6431,-3.5682,-3.4653,-3.488,-3.4263,-3.2864,-3.3045,-3.3179,-3.3195,-2.9766,-2.6376,-2.297,-1.6687,-1.3897,-1.5133,-1.6114,-1.7157,-1.8385,-1.911,-2.0031,-2.1187,-2.1774,-2.2718,-2.415,-2.4504,-2.5244,0.0,0.0,0.0,0.0,0.0,0.0,0.0,0.0,0.0,0.0,0.0,-3.3151,-3.3599,-3.5203,-3.6132,-3.6054,-3.6188,-3.6074,-3.5584,-3.6069,-3.6783,-3.7613,-3.7845,-3.8088,-3.8312,-3.8701,-3.9054,-3.9229,-3.912,-3.8998,-3.9101,-3.8892,-3.8664,-3.8523,-3.8101,-3.7523,-3.7034,-3.6736,-3.6509,-3.6276,-3.5436,-3.4901,-3.5119,-3.4497,-3.3988,-3.4383,-3.4446,-3.4462,-3.4446,-3.4609,-3.4793,-3.5214,-3.5524,-3.5843,-3.6141,-3.5993,-3.5892,-3.6256,-3.5085,-3.3974,-4.1716,-4.1662,-4.0965,-4.0655,-4.0621,-4.0839,-4.0949,-4.0967,-4.1013,-4.1013,-4.0974,-4.0926,-4.089,-4.089,-4.0902,-4.0869,-4.0807,-4.0776,-4.0648,-4.0433,-4.0433,-3.9976,-3.9157,-3.911,-3.8717,-3.8035,-3.7221,-3.6833,-3.6784,-3.591,-3.5353,-3.5139,-3.4999,-3.4415,-3.3504,-3.4212,-3.4307,-3.3728,-2.6391,-2.2709,-2.2883,-1.6345,-1.3542,-1.4982,-1.5559,-1.6533,-1.8056,-1.8643,-1.9562,-2.0921,-2.1425,-2.2409,-2.3949,-2.4655,-2.5477,0.0,-2.7494,0.0,0.0,0.0,0.0,0.0,0.0,0.0,0.0,-3.3882,-3.4293,-3.4977,-3.6058,-3.651,-3.6009,-3.6073,-3.6336,-3.688,-3.7135,-3.7658,-3.8546,-3.8695,-3.8792,-3.8979,-3.9036,-3.9138,-3.9346,-3.9147,-3.8989,-3.9027,-3.8688,-3.8328,-3.8011,-3.7667,-3.7264,-3.6696,-3.6426,-3.6259,-3.6105,-3.5391,-3.4738,-3.4545,-3.3915,-3.3293,-3.3319,-3.3372,-3.334,-3.334,-3.3403,-3.3514,-3.3949,-3.4183,-3.4431,-3.4903,-3.4414,-3.4172,-3.4746,-3.4058,-3.3033,-4.0804,-4.0735,-4.0611,-4.0515,-4.0554,-4.0646,-4.0713,-4.0759,-4.0762,-4.0801,-4.084,-4.0897,-4.0906,-4.0897,-4.0848,-4.0804,-4.08,-4.0694,-4.0243,-3.9538,-3.9552,-3.9116,-3.8312,-3.7732,-3.7376,-3.7182,-3.6395,-3.596,-3.585,-3.556,-3.5033,-3.4278,-3.4783,-3.4565,-3.362,0.0,0.0,0.0,-2.5952,-2.2592,-2.2664,-1.62,-1.3178,-1.4186,-1.5259,0.0,-1.7364,-1.8172,-1.911,-2.0226,-2.1032,0.0,0.0,0.0,0.0,0.0,0.0,0.0,0.0,0.0,0.0,0.0,-3.2731,-3.3543,-3.398,-3.4373,-3.5101,-3.6235,-3.6602,-3.7058,-3.7808,-3.7895,-3.7949,-3.8072,-3.8191,-3.8382,-3.8676,-3.8688,-3.881,-3.9129,-3.91,-3.9173,-3.9399,-3.911,-3.8902,-3.883,-3.8378,-3.7631,-3.6905,-3.7234,-3.7339,-3.6736,-3.6377,-3.6148,-3.6062,-3.5253,-3.4577,-3.4399,-3.3832,-3.3293,-3.315,-3.3203,-3.3293,-3.3293,-3.3293,-3.3398,-3.3745,-3.3797,-3.3949,-3.4201,-3.361,-3.3224,-3.3957,-3.3287,-3.2477,-4.0463,0.0,-4.0427,-4.0427,0.0,-4.0479,-4.0523,-4.0574,-4.0648,-4.0707,-4.0765,-4.0754,-4.0742,-4.0742,-4.0288,-4.0076,-4.0017,-3.9102,-3.8642,-3.8589,-3.8161,-3.7733,-3.731,-3.7042,-3.6654,-3.6187,-3.5873,-3.5649,-3.5543,-3.543,-3.5055,-3.456,-3.4793,-3.4641,-3.4126,-3.418,-3.382,-3.304,-2.7786,-2.4539,-2.3231,-1.7922,-1.483,-1.4482,0.0,0.0,0.0,0.0,0.0,0.0,0.0,0.0,0.0,0.0,0.0,-2.6625,-2.7509,-2.8235,-2.8889,-3.0569,-3.1835,-3.2333,-3.4213,-3.531,-3.5039,-3.5845,-3.6646,-3.7284,-3.7489,-3.7831,-3.836,-3.8415,-3.8465,-3.8546,-3.8621,-3.8713,-3.8862,-3.8887,-3.9016,-3.9253,-3.9357,-3.9458,-3.9533,-3.9137,-3.8162,-3.6908,-3.6969,-3.6326,-3.4626,-3.5887,-3.705,-3.6388,-3.6078,-3.58,-3.5498,-3.4911,-3.4284,-3.4052,-3.3455,-3.3027,-3.3005,-3.2973,-3.3011,-3.3134,-3.3203,-3.3293,-3.3591,-3.3694,-3.3678,-3.3697,-3.3266,-3.2803,-3.3018,-3.2492,-3.2064,-4.0326,-4.0344,-4.0289,-4.0289,-4.0344,-4.0363,-4.0362,-4.0379,0.0,0.0,0.0,-4.0588,-4.0559,-4.0501,-3.9885,-3.9456,-3.9165,-3.7747,-3.7298,-3.76,-3.6894,-3.6438,-3.6249,-3.6435,-3.6119,-3.5412,-3.5469,-3.5519,-3.5489,-3.534,-3.5203,-3.507,-3.4831,-3.4647,-3.4517,-3.4124,-3.3815,-3.3442,-2.9778,-2.6543,-2.3917,-1.9695,-1.6622,-1.4838,-1.4482,-1.4903,-1.6254,-1.6811,-1.7765,-1.9156,-1.9755,-2.0827,-2.2518,-2.355,-2.4805,-2.6279,-2.724,-2.8039,-2.8715,-3.0906,-3.2611,-3.3446,-3.5752,-3.6902,-3.6341,-3.7362,-3.8018,-3.8086,-3.8285,-3.8446,-3.851,-3.8496,-3.8546,-3.8719,-3.8792,-3.8902,-3.9129,-3.9219,-3.9327,-3.9483,-3.9698,-3.9794,-3.9656,-3.8611,-3.7192,-3.4923,-3.4797,-3.4726,-3.2513,-3.4341,-3.6129,-3.5592,-3.5218,-3.5035,-3.4688,-3.412,-3.37,-3.3335,-3.2857,-3.2563,-3.2718,-3.2648,-3.2742,-3.2989,-3.3058,-3.3203,-3.3435,-3.3555,-3.3539,-3.3371,-3.2949,-3.2516,-3.213,-3.1709,-3.1552,-4.0215,-4.0215,-4.0157,-4.0157,-4.0157,-4.0215,-4.0234,-4.0252,-4.0377,-4.0447,-4.0447,-4.0441,-4.0419,-4.0419,-4.031,-3.9835,-3.9125,-3.8741,-3.7885,-3.6608,-3.6403,-3.5963,-3.5305,-3.5318,-3.5339,-3.5311,-3.5259,-3.5316,-3.5393,-3.527,-3.516,-3.5001,-3.4851,-3.4609,-3.4269,-3.4074,-3.3842,-3.3515,-2.979,-2.6558,-2.4,-1.9753,-1.6501,-1.4537,-1.4201,-1.4482,-1.5346,-1.6254,-1.7088,-1.7969,-1.8905,-2.0116,-2.1682,-2.2817,-2.4165,-2.5781,-2.6938,-2.7795,-2.846,-3.0782,-3.3267,-3.5658,-3.6698,-3.7285,-3.7524,-3.7808,-3.8119,-3.8396,-3.846,-3.8541,-3.8658,-3.8658,-3.875,-3.8881,-3.9007,-3.9156,-3.935,-3.9534,-3.9697,-3.969,-4.0139,-4.0172,-3.9564,-3.7012,-3.4969,-3.4242,-3.2107,-3.0926,-3.1921,-3.3555,-3.4382,-3.4284,-3.3887,-3.3604,-3.3252,-3.2754,-3.223,-3.2109,-3.1942,-3.1901,-3.2099,-3.2256,-3.2453,-3.2827,-3.2843,-3.2951,-3.3005,-3.3112,-3.3081,-3.2996,-3.2437,-3.1921,-3.1607,-3.0999,-3.0732,-3.9766,-3.9914,-3.9848,-3.9848,-3.9892,-3.9914,-3.9935,-3.9937,-4.0,-4.0119,-4.027,-4.0213,-3.9946,-3.9487,-3.8975,-3.827,-3.7413,-3.6426,-3.5799,-3.5458,-3.5003,-3.4813,-3.4832,-3.487,-3.4869,-3.4887,-3.4975,-3.5064,-3.5141,-3.5143,-3.5054,-3.4889,-3.4672,-3.4413,-3.4099,-3.3947,-3.3587,-3.294,-3.1568,-2.8564,-2.3951,-2.152,-1.8228,-1.4047,-1.3695,-1.3992,-1.4697,-1.5409,-1.6175,-1.6932,-1.8075,-1.9191,-2.0267,-2.1832,-2.3403,-2.4772,-2.5861,-2.6975,-2.8027,-3.1086,-3.3921,-3.6337,-3.7274,-3.798,-3.8511,-3.8346,-3.835,-3.8634,-3.8713,-3.8773,-3.891,-3.8979,-3.9045,-3.9129,-3.9313,-3.9543,-3.9633,-3.9356,-3.9252,-3.9336,-3.8994,-3.8724,-3.8607,-3.5644,-3.2661,-3.1155,-2.8031,-2.6865,-2.8867,-3.0428,-3.1636,-3.2052,-3.1975,-3.172,-3.1435,-3.0639,-3.0116,-3.0018,-3.0188,-3.0395,-3.0713,-3.115,-3.1607,-3.1936,-3.2191,-3.2444,-3.2499,-3.2648,-3.2453,-3.1849,-3.1549,-3.1087,-3.045,-2.9979,-3.0054,-3.916,-3.947,-3.9439,-3.9483,-3.9623,-3.9604,-3.9604,-3.9604,-3.9623,-3.9671,-3.9715,-3.9696,-3.9314,-3.8669,-3.7713,-3.6837,-3.5926,-3.462,-3.424,-3.4538,-3.399,-3.3984,-3.4461,-3.4545,-3.4526,-3.4442,-3.4615,-3.4754,-3.4773,-3.4889,-3.4756,-3.4447,-3.4195,-3.3868,-3.3481,-3.3335,-3.291,-3.2201,-3.2599,-3.0071,-2.4624,-2.2995,-1.9667,-1.4789,-1.3457,-1.3302,-1.4014,-1.4585,-1.5259,-1.5948,-1.7111,-1.8045,-1.8895,-2.0617,-2.2153,-2.3456,-2.4463,-2.5602,-2.71,-3.0376,-3.3201,-3.5206,-3.6894,-3.8048,-3.8607,-3.8322,-3.835,-3.8857,-3.9036,-3.9082,-3.9163,-3.9081,-3.9108,-3.9175,-3.9242,-3.928,-3.9429,-3.8917,-3.857,-3.8714,-3.8059,-3.7608,-3.693,-3.4244,-3.0335,-2.6414,-2.3795,-2.3376,-2.5286,-2.7053,-2.8454,-2.9142,-2.968,-2.9702,-2.9289,-2.8484,-2.7953,-2.7925,-2.822,-2.8592,-2.9014,-2.9579,-3.0162,-3.0426,-3.0893,-3.1228,-3.1577,-3.1751,-3.1477,-3.0822,-3.0511,-3.0119,-2.9044,-2.8725,-2.917,-3.8426,-3.8746,-3.8793,-3.9017,-3.9305,-3.935,-3.935,-3.935,-3.935,-3.892,-3.8402,-3.8535,-3.855,-3.8417,-3.7558,-3.6644,-3.581,-3.5574,-3.5075,-3.4469,-3.4357,-3.4288,-3.4227,-3.4197,-3.4179,-3.4221,-3.4227,-3.4265,-3.4323,-3.4427,-3.4145,-3.3421,-3.3148,-3.2654,-3.1924,-3.1734,-3.151,-3.1326,-3.1184,-2.9644,-2.6552,-2.2988,-1.9813,-1.7032,-1.3882,-1.2558,-1.3116,-1.3825,-1.4482,-1.5037,-1.5799,-1.6766,-1.7881,-1.892,-2.0189,-2.1749,-2.2611,-2.3522,-2.4774,-2.7442,-2.9934,-3.1379,-3.4832,-3.6863,-3.7317,-3.72,-3.774,-3.8957,-3.9383,-3.9339,-3.9491,-3.8859,-3.8563,-3.8745,-3.8367,-3.7988,-3.8226,-3.8213,-3.8201,-3.8111,-3.7985,-3.8079,-3.7022,-3.2527,-2.689,-2.2429,-2.1626,-2.1767,-2.318,-2.4516,-2.5383,-2.5764,-2.6714,-2.7409,-2.6963,-2.6499,-2.598,-2.606,-2.6499,-2.6829,-2.7157,-2.7523,-2.7886,-2.8669,-2.895,-2.9314,-2.9834,-3.0286,-3.017,-2.9369,-2.9119,-2.9004,-2.7959,-2.73,-2.7643,-3.7647,-3.7935,-3.7935,-3.8182,-3.8596,-3.8923,-3.9073,-3.9036,-3.8544,-3.8182,-3.7755,-3.6994,-3.6646,-3.67,-3.6267,-3.5597,-3.4766,-3.4705,-3.4488,-3.4099,-3.4099,-3.4049,-3.3913,-3.3868,-3.3842,-3.3887,-3.408,-3.3961,-3.3483,-3.3168,-3.2842,-3.2499,-3.2284,-3.1977,-3.1549,-3.1427,-3.1038,-3.0446,-3.027,-2.9368,-2.7657,-2.5043,-2.1224,-1.6713,-1.5081,-1.3744,-1.2592,-1.2855,-1.3262,-1.3677,-1.4348,-1.5044,-1.5993,-1.6968,-1.8031,-1.9318,-2.0608,-2.2626,-2.5606,-2.776,-3.0381,-3.359,-3.5737,-3.7122,-3.7514,-3.7519,-3.7824,-3.8421,-3.8435,-3.8366,-3.8508,-3.8268,-3.818,-3.8233,-3.8093,-3.798,-3.7993,-3.768,-3.7422,-3.7253,-3.6869,-3.6396,-3.5145,-3.0576,-2.5507,-2.1709,-2.0644,-2.0474,-2.0986,-2.1797,-2.2327,-2.242,-2.2829,-2.3529,-2.4166,-2.3554,-2.3217,-2.3405,-2.4054,-2.4692,-2.5088,-2.5967,-2.6627,-2.6952,-2.7121,-2.7223,-2.7373,-2.7571,-2.7571,-2.7015,-2.6013,-2.5481,-2.4937,-2.4749,-2.5112,-3.6925,-3.7177,-3.7288,-3.7613,-3.8059,-3.8423,-3.8517,-3.8387,-3.7834,-3.7319,-3.6803,-3.5644,-3.5071,-3.4973,-3.4921,-3.4518,-3.3976,-3.3921,-3.3868,-3.3815,-3.3815,-3.3762,-3.3689,-3.3643,-3.3615,-3.3606,-3.3681,-3.3339,-3.2556,-3.2098,-3.1778,-3.1592,-3.1422,-3.1136,-3.0833,-3.0693,-3.0275,-2.9621,-2.9429,-2.9035,-2.8167,-2.6098,-2.2182,-1.6984,-1.5218,-1.3688,-1.1833,-1.2009,-1.2323,-1.2676,-1.305,-1.3621,-1.4266,-1.5135,-1.5984,-1.6967,-1.7921,-1.9841,-2.3091,-2.5992,-2.9109,-3.2441,-3.5007,-3.6917,-3.7191,-3.7264,-3.7269,-3.7292,-3.7094,-3.7124,-3.7802,-3.7732,-3.7642,-3.7639,-3.7585,-3.7436,-3.7182,-3.6746,-3.6351,-3.6047,-3.4793,-3.3156,-3.0976,-2.7217,-2.3584,-2.0943,-1.975,-1.9166,-1.9222,-1.9803,-2.0278,-2.0171,-1.9738,-2.0289,-2.1865,-2.1719,-2.0985,-2.1273,-2.2147,-2.2718,-2.2907,-2.3992,-2.4722,-2.4494,-2.5071,-2.5239,-2.4976,-2.4912,-2.4697,-2.3615,-2.2791,-2.2298,-2.2298,-2.2196,-2.2173,-3.6266,-3.6661,-3.702,-3.7396,-3.7808,-3.7807,-3.7649,-3.7356,-3.7192,-3.6371,-3.5159,-3.4867,-3.441,-3.3799,-3.3962,-3.387,-3.3726,-3.3726,-3.3698,-3.3633,-3.3633,-3.3605,-3.3605,-3.3549,-3.3502,-3.3421,-3.2821,-3.2221,-3.1666,-3.1513,-3.1186,-3.058,-3.0452,-2.995,-2.9347,-2.9156,-2.8889,-2.8833,-2.8637,-2.8478,-2.8015,-2.5278,-2.2149,-1.8663,-1.3841,-1.1354,-1.1035,-1.1478,-1.1819,-1.2037,-1.2212,-1.2571,-1.3132,-1.3592,-1.4205,-1.4875,-1.4604,-1.4457,-1.5864,-2.1235,-2.5094,-2.6073,-3.2147,-3.5591,-3.5893,-3.5875,-3.5876,-3.575,-3.5806,-3.6316,-3.7458,-3.7161,-3.6855,-3.6836,-3.6215,-3.5766,-3.5427,-3.5427,-3.5,-3.415,-3.2147,-2.9135,-2.4058,-2.2435,-2.1291,-1.9536,-1.875,-1.8798,-1.8911,-1.9215,-1.938,-1.9149,-1.8767,-1.8629,-2.0052,-2.0172,-2.0226,-2.0431,-2.0604,-2.1035,-2.1065,-2.1238,-2.1696,-2.2034,-2.2438,-2.2639,-2.244,-2.2184,-2.1812,-2.1109,-2.0456,-2.0019,-1.9875,-2.0052,-2.0,-3.5684,-3.5915,-3.6399,-3.6689,-3.689,-3.6716,-3.6718,-3.6717,-3.5756,-3.5157,-3.4754,-3.4262,-3.3832,-3.3549,-3.3587,-3.3661,-3.3615,-3.3615,-3.3605,-3.352,-3.3491,-3.3452,-3.3339,-3.2846,-3.2857,-3.3107,-3.2192,-3.1309,-3.0691,-3.0212,-2.9826,-2.9628,-2.9558,-2.9388,-2.903,-2.8876,-2.8761,-2.8712,-2.8587,-2.8502,-2.8051,-2.5275,-2.214,-1.9022,-1.5222,-1.2336,-1.0617,-1.062,-1.0803,-1.107,-1.107,-1.1283,-1.1933,-1.2394,-1.2751,-1.3148,-1.4768,-1.699,-2.0049,-2.4225,-2.8195,-3.1114,-3.3676,-3.5394,-3.5519,-3.5512,-3.55,-3.546,-3.5387,-3.5755,-3.6028,-3.6078,-3.5872,-3.5679,-3.5414,-3.5058,-3.4827,-3.4694,-3.398,-3.1812,-2.911,-2.627,-2.4286,-2.2747,-2.1356,-2.0359,-1.9326,-1.8721,-1.8674,-1.8957,-1.9125,-1.8834,-1.8536,-1.8315,-1.8633,-1.871,-1.87,-1.8977,-1.9198,-1.9605,-1.9781,-2.0302,-2.0837,-2.074,-2.0796,-2.0643,-2.0641,-1.9572,-1.917,-1.8377,-1.7774,-1.7759,-1.745,-1.7688,-1.7509,-3.5337,-3.5441,-3.5494,-3.5677,-3.5825,-3.5444,-3.5347,-3.5402,-3.4521,-3.4105,-3.4033,-3.368,-3.3481,-3.3481,-3.3481,-3.3481,-3.3509,-3.3491,-3.3462,-3.3339,-3.3063,-3.2943,-3.2739,-3.2007,-3.1773,-3.1895,-3.0867,-3.0043,-2.9655,-2.9101,-2.8863,-2.8929,-2.8998,-2.8998,-2.897,-2.8858,-2.8761,-2.8712,-2.8594,-2.8106,-2.6748,-2.3789,-2.0644,-1.749,-1.4449,-1.2096,-1.0199,-1.0117,-1.0174,-1.0364,-1.0364,-1.052,-1.0985,-1.1306,-1.1531,-1.1755,-1.3492,-1.6048,-1.9134,-2.2588,-2.6395,-3.082,-3.263,-3.372,-3.5098,-3.5425,-3.4893,-3.3937,-3.3349,-3.3029,-3.1688,-3.1339,-3.1894,-3.2972,-3.4167,-3.411,-3.2813,-3.3525,-3.2275,-2.8987,-2.5825,-2.39,-2.2776,-2.1218,-2.0309,-2.0258,-1.916,-1.8526,-1.8549,-1.8596,-1.8586,-1.825,-1.7765,-1.7413,-1.7432,-1.7354,-1.7833,-1.8104,-1.8395,-1.8586,-1.8787,-1.9375,-1.9639,-1.9507,-1.9375,-1.911,-1.8365,-1.7267,-1.6437,-1.5666,-1.5547,-1.5656,-1.5493,-1.5371,-1.543,-3.5274,-3.514,-3.4533,-3.4428,-3.466,-3.4024,-3.3542,-3.3454,-3.353,-3.3277,-3.2991,-3.3122,-3.3274,-3.3364,-3.3364,-3.3334,-3.3214,-3.3148,-3.3118,-3.2985,-3.2391,-3.2049,-3.1941,-3.1139,-3.0463,-3.0032,-2.89,-2.846,-2.8587,-2.8404,-2.843,-2.8644,-2.8694,-2.8767,-2.8905,-2.8834,-2.8761,-2.8694,-2.8587,-2.7138,-2.3898,-2.1649,-1.8711,-1.5053,-1.2093,-1.0474,-0.9882,-1.0053,-1.0117,-1.0053,-1.018,-1.0308,-1.0334,-1.0564,-1.0586,-1.0587,-1.0725,-1.0797,-1.1814,-1.5813,-2.0653,-2.4783,-2.7354,-3.1432,-3.4301,-3.4979,-3.375,-3.115,-3.0038,-2.8458,-2.5616,-2.5185,-2.6299,-2.876,-3.205,-3.2326,-3.054,-3.1435,-3.145,-2.6312,-2.2867,-2.0041,-1.8166,-1.7931,-1.8141,-1.8232,-1.8328,-1.8482,-1.8482,-1.8327,-1.7765,-1.7217,-1.6932,-1.6733,-1.6394,-1.6123,-1.6881,-1.7432,-1.7784,-1.8066,-1.8066,-1.8452,-1.8586,-1.8519,-1.8297,-1.7959,-1.6618,-1.5517,-1.4887,-1.4266,-1.4057,-1.4057,-1.4122,-1.4186,-1.3977,-3.4339,-3.4301,-3.3629,-3.3426,-3.3541,-3.2849,-3.2564,-3.2685,-3.2337,-3.2319,-3.2606,-3.277,-3.293,-3.3147,-3.3196,-3.2841,-3.2295,-3.2277,-3.2277,-3.2236,-3.199,-3.1547,-3.1027,-3.0252,-2.9472,-2.88,-2.8397,-2.8191,-2.8183,-2.8219,-2.8362,-2.8474,-2.8619,-2.8743,-2.8905,-2.8834,-2.8761,-2.8694,-2.8612,-2.7954,-2.7009,-2.5953,-2.2891,-1.8063,-1.6472,-1.4169,-0.9974,-0.9676,-0.9804,-0.9868,-0.9926,-0.9989,-1.0117,-1.0174,-1.0155,-1.0364,-1.2342,-1.5017,-1.78,-2.0807,-2.4315,-2.8379,-3.0579,-3.1827,-3.3165,-3.3401,-3.2781,-3.1424,-3.142,-3.0576,-2.9652,-2.9245,-2.8183,-2.7704,-2.9097,-3.0791,-3.0459,-2.9016,-2.7063,-2.5035,-2.0992,-1.8144,-1.7437,-1.7382,-1.7529,-1.7716,-1.8056,-1.8414,-1.8405,-1.8056,-1.7842,-1.7628,-1.7001,-1.6245,-1.6184,-1.6123,-1.6473,-1.7028,-1.7314,-1.7529,-1.7598,-1.7451,-1.752,-1.7304,-1.7079,-1.6437,-1.5029,-1.4178,-1.3615,-1.3339,-1.3339,-1.3331,-1.3258,-1.3185,-1.3193,-3.3437,-3.3428,-3.2729,-3.2457,-3.245,-3.175,-3.1524,-3.1708,-3.1426,-3.166,-3.2214,-3.247,-3.2592,-3.2678,-3.2685,-3.2206,-3.1464,-3.1363,-3.1267,-3.1052,-3.0969,-3.0635,-3.0105,-2.9305,-2.8642,-2.8233,-2.8109,-2.8035,-2.7979,-2.8128,-2.8317,-2.8474,-2.8619,-2.8743,-2.8881,-2.8834,-2.8761,-2.8694,-2.8619,-2.8013,-2.6991,-2.6707,-2.4238,-1.9607,-1.7837,-1.522,-1.1398,-1.0201,-0.9548,-0.9676,-0.9676,-0.9734,-0.9798,-0.9798,-0.9798,-1.0236,-1.1664,-1.3978,-1.6875,-1.9116,-2.3663,-2.7343,-2.9447,-3.103,-3.1785,-3.173,-3.0304,-2.868,-2.6836,-2.5774,-2.4206,-2.4166,-2.3752,-2.3172,-2.6983,-2.9631,-3.0932,-2.7518,-2.5086,-2.378,-2.0303,-1.7695,-1.7107,-1.7314,-1.7539,-1.7657,-1.7998,-1.8347,-1.8269,-1.7784,-1.7638,-1.7207,-1.6306,-1.5965,-1.6114,-1.6193,-1.6272,-1.6621,-1.6978,-1.7116,-1.7176,-1.6821,-1.6673,-1.6026,-1.5666,-1.5163,-1.3962,-1.3528,-1.3098,-1.2886,-1.2753,-1.282,-1.2893,-1.282,-1.2746,-3.263,-3.2547,-3.1851,-3.157,-3.1487,-3.0858,-3.0692,-3.0667,-3.0982,-3.1435,-3.1897,-3.2142,-3.219,-3.2032,-3.1936,-3.1404,-3.0747,-3.061,-3.0188,-2.963,-2.944,-2.9387,-2.9244,-2.8543,-2.8167,-2.8032,-2.7933,-2.7886,-2.7876,-2.801,-2.8237,-2.8482,-2.8551,-2.8676,-2.8815,-2.8852,-2.8761,-2.8687,-2.8637,-2.7214,-2.4846,-2.4561,-2.2983,-1.9687,-1.6908,-1.486,-1.3615,-1.1107,-0.9484,-0.9548,-0.9548,-0.9548,-0.9548,-0.9478,-0.9548,-0.9542,-0.953,-1.0227,-1.082,-1.4136,-1.7495,-2.1693,-2.4553,-2.7363,-2.9625,-2.7947,-2.5558,-2.2716,-2.032,-1.7083,-1.4755,-1.5224,-1.6446,-1.7963,-2.4978,-2.9399,-3.0507,-2.6331,-2.3864,-2.3288,-2.018,-1.689,-1.6941,-1.7254,-1.747,-1.7608,-1.794,-1.8202,-1.7988,-1.7432,-1.6872,-1.6245,-1.5613,-1.548,-1.5621,-1.5762,-1.5842,-1.5912,-1.6263,-1.6482,-1.6542,-1.6175,-1.5604,-1.4887,-1.4386,-1.3818,-1.3317,-1.2952,-1.2732,-1.2673,-1.2599,-1.2599,-1.2526,-1.2452,-1.2224,-3.183,-3.1748,-3.1064,-3.0766,-3.0791,-3.0534,-3.0675,-3.0925,-3.1027,-3.1401,-3.1952,-3.1635,-3.1547,-3.1714,-3.1106,-3.0481,-2.9898,-2.9737,-2.9308,-2.862,-2.8503,-2.8503,-2.8503,-2.8266,-2.8067,-2.7986,-2.78,-2.7666,-2.763,-2.7869,-2.8075,-2.821,-2.8474,-2.8644,-2.8804,-2.8761,-2.8669,-2.8637,-2.8612,-2.8294,-2.7488,-2.7305,-2.5953,-2.2909,-1.9608,-1.6781,-1.4522,-1.1285,-0.9606,-0.967,-0.9554,-0.9542,-0.967,-0.9542,-0.9478,-0.9478,-0.9576,-1.0685,-1.2693,-1.3975,-1.6338,-1.9503,-2.1079,-2.1855,-2.2797,-2.2349,-2.1182,-2.0402,-2.0981,-2.1268,-2.0712,-2.1855,-2.3668,-2.4682,-2.4897,-2.5379,-2.5528,-2.2986,-2.0967,-2.1009,-1.8487,-1.7069,-1.6995,-1.7314,-1.752,-1.7657,-1.7862,-1.793,-1.7569,-1.7157,-1.6533,-1.5824,-1.5267,-1.5125,-1.5125,-1.5267,-1.5338,-1.5196,-1.5409,-1.563,-1.5613,-1.5392,-1.4673,-1.3954,-1.381,-1.331,-1.2886,-1.2452,-1.2378,-1.2378,-1.2378,-1.2378,-1.215,-1.2003,-1.1781,-3.1044,-3.1011,-3.065,-3.0468,-3.0468,-3.0468,-3.0617,-3.0754,-3.0509,-3.0823,-3.1237,-3.0749,-3.0557,-3.0677,-3.0243,-2.9619,-2.8976,-2.8905,-2.8655,-2.8307,-2.8217,-2.819,-2.8088,-2.7982,-2.7865,-2.7795,-2.7683,-2.7636,-2.7672,-2.8,-2.8228,-2.836,-2.8551,-2.8712,-2.8785,-2.8737,-2.8662,-2.8612,-2.8587,-2.8587,-2.8587,-2.8779,-2.8031,-2.5388,-2.1847,-1.741,-1.2955,-1.0463,-1.0115,-1.1084,-1.0504,-0.9548,-0.9676,-0.9542,-0.9478,-0.9478,-0.9478,-1.0476,-1.2227,-1.3672,-1.5486,-1.7412,-1.8599,-1.9624,-1.9561,-1.8599,-1.7548,-1.7678,-1.8215,-1.8047,-1.867,-2.1152,-2.2965,-2.2437,-2.1633,-2.1677,-2.4142,-2.1552,-1.9849,-1.9266,-1.8011,-1.6376,-1.6847,-1.7201,-1.7501,-1.7657,-1.7803,-1.7647,-1.7295,-1.6751,-1.6193,-1.548,-1.4982,-1.484,-1.4848,-1.4982,-1.4903,-1.4832,-1.4322,-1.4617,-1.4537,-1.4386,-1.3882,-1.331,-1.3091,-1.2879,-1.2519,-1.2231,-1.2231,-1.2231,-1.2231,-1.2083,-1.1855,-1.1558,-1.1335,-3.0384,-3.0375,-3.0443,-3.0435,-3.0336,-3.0352,-3.0286,-3.0194,-2.9709,-2.9796,-3.0195,-2.973,-2.9551,-2.9329,-2.9376,-2.8905,-2.8235,-2.8352,-2.8271,-2.8154,-2.8099,-2.8014,-2.7882,-2.7719,-2.7587,-2.7557,-2.7612,-2.7612,-2.7701,-2.8183,-2.8474,-2.8482,-2.8676,-2.8834,-2.8785,-2.8737,-2.8662,-2.8612,-2.8587,-2.8587,-2.8355,-2.8236,-2.7866,-2.7614,-2.2354,-1.6855,-1.229,-1.006,-1.0872,-1.4384,-1.1347,-0.9705,-0.9548,-0.9478,-0.9478,-0.9478,-0.9478,-0.9615,-0.9968,-1.2352,-1.3826,-1.4451,-1.6697,-1.8599,-1.7412,-1.5393,-1.4085,-1.406,-1.1543,-1.2617,-1.4332,-1.596,-1.9001,-2.0354,-1.9462,-2.0778,-2.3112,-2.1086,-1.8395,-1.8987,-1.7252,-1.6391,-1.6462,-1.6936,-1.7404,-1.7598,-1.7666,-1.7442,-1.7019,-1.6542,-1.5912,-1.5188,-1.484,-1.4633,-1.4705,-1.4776,-1.4625,-1.4402,-1.3528,-1.3382,-1.3382,-1.3164,-1.2879,-1.2592,-1.2512,-1.2439,-1.2372,-1.2157,-1.215,-1.2083,-1.2009,-1.1781,-1.1558,-1.1186,-1.0962,-3.0103,-3.0103,-3.0231,-2.9987,-2.9585,-2.956,-2.9453,-2.9248,-2.9046,-2.9219,-2.9506,-2.9199,-2.8987,-2.8976,-2.8639,-2.8352,-2.82,-2.8154,-2.8154,-2.8014,-2.7766,-2.7647,-2.763,-2.7565,-2.7535,-2.7496,-2.7421,-2.739,-2.7513,-2.776,-2.801,-2.8228,-2.8456,-2.8619,-2.8761,-2.8687,-2.8612,-2.8587,-2.8587,-2.8587,-2.8086,-2.6745,-2.6718,-2.7698,-2.2602,-1.7762,-1.3882,-1.0924,-1.1264,-1.2855,-1.1511,-0.9478,-0.9478,-0.9478,-0.9478,-0.9478,-0.9478,-0.9478,-0.966,-1.0309,-1.0678,-1.106,-1.1847,-1.1662,-1.1709,-1.1479,-1.0754,-1.103,-1.2095,-1.4315,-1.8241,-2.3002,-2.4034,-2.3645,-2.2055,-2.0818,-2.1312,-1.8286,-1.6177,-1.595,-1.586,-1.5597,-1.6193,-1.6683,-1.7129,-1.7444,-1.7382,-1.7295,-1.6811,-1.6263,-1.5551,-1.484,-1.4697,-1.4418,-1.4346,-1.4266,-1.3905,-1.3673,-1.2945,-1.2358,-1.2358,-1.2291,-1.215,-1.2003,-1.1929,-1.1935,-1.2077,-1.1929,-1.1855,-1.1855,-1.1781,-1.1329,-1.1031,-1.0738,-1.0207,-2.934,-2.9512,-2.9312,-2.9034,-2.8763,-2.8714,-2.8682,-2.8481,-2.8152,-2.8241,-2.8425,-2.8027,-2.7895,-2.8097,-2.8,-2.7968,-2.7996,-2.8053,-2.7996,-2.7864,-2.7659,-2.7569,-2.7496,-2.7522,-2.7491,-2.7421,-2.7345,-2.7299,-2.7376,-2.7569,-2.7869,-2.8102,-2.8317,-2.8569,-2.8737,-2.8662,-2.8612,-2.8587,-2.8587,-2.8587,-2.8164,-2.7279,-2.4755,-2.4137,-1.9854,-1.5721,-1.2146,-1.0555,-1.0594,-1.1306,-1.0502,-0.9478,-0.9478,-0.9478,-0.9478,-0.9478,-0.9478,-0.9478,-0.9478,-0.9478,-0.9564,-0.9478,-0.9478,-0.9478,-0.9478,-0.9478,-0.9478,-0.9819,-1.1233,-1.4006,-1.8633,-2.1796,-2.3999,-2.5297,-2.3276,-2.1417,-2.0575,-1.7293,-1.457,-1.4818,-1.5069,-1.5285,-1.5698,-1.6318,-1.6798,-1.712,-1.706,-1.6853,-1.6245,-1.5692,-1.5133,-1.4561,-1.4489,-1.4274,-1.4049,-1.3688,-1.3105,-1.2813,-1.2365,-1.1922,-1.1626,-1.1632,-1.1558,-1.1558,-1.1639,-1.1706,-1.1781,-1.1706,-1.1409,-1.1037,-1.0812,-1.0657,-1.0276,-0.9755,-0.9069,-2.8399,-2.8695,-2.8225,-2.797,-2.7912,-2.7912,-2.7797,-2.764,-2.7093,-2.7065,-2.7222,-2.6689,-2.691,-2.7085,-2.743,-2.7565,-2.7683,-2.7806,-2.7795,-2.7689,-2.76,-2.7526,-2.7465,-2.7434,-2.7404,-2.733,-2.7376,-2.7407,-2.7483,-2.7659,-2.7954,-2.8156,-2.8299,-2.8543,-2.8712,-2.8662,-2.8587,-2.8587,-2.8587,-2.8619,-2.8328,-2.7773,-2.4619,-1.9437,-1.678,-1.3427,-1.0835,-0.9615,-0.9621,-0.9478,-0.9478,-0.9414,-0.9414,-0.9478,-0.9478,-0.9478,-0.9478,-0.9478,-0.9478,-0.9478,-0.9478,-0.9478,-0.9478,-0.9478,-0.9478,-0.9478,-0.9478,-1.0133,-1.1281,-1.3257,-1.4904,-1.9911,-2.2478,-2.3504,-2.279,-2.144,-2.0488,-1.7295,-1.4925,-1.457,-1.4772,-1.5019,-1.5366,-1.5826,-1.6384,-1.6798,-1.6665,-1.6419,-1.5807,-1.533,-1.484,-1.4346,-1.4201,-1.3912,-1.3622,-1.3171,-1.2526,-1.215,-1.1781,-1.1558,-1.126,-1.126,-1.1335,-1.1409,-1.1564,-1.1484,-1.1484,-1.1409,-1.0962,-1.0368,-1.0067,-1.0137,-0.9528,-0.8699,-0.8084,-2.7349,-2.7434,-2.7671,-2.7477,-2.7052,-2.7004,-2.6771,-2.629,-2.6192,-2.6114,-2.6228,-2.6329,-2.6436,-2.6641,-2.6872,-2.7129,-2.7382,-2.7522,-2.7587,-2.7526,-2.7452,-2.7376,-2.7376,-2.7393,-2.7362,-2.7376,-2.7496,-2.76,-2.7672,-2.7897,-2.812,-2.8404,-2.8422,-2.8543,-2.8687,-2.8662,-2.8587,-2.8587,-2.8612,-2.8669,-2.8368,-2.59,-2.2134,-1.6417,-1.4607,-1.2574,-1.0302,-0.9478,-0.9478,-0.9478,-0.9478,-0.9215,-0.9017,-0.9285,-0.9414,-0.9414,-0.9414,-0.935,-0.9484,-0.9478,-0.9478,-0.9478,-0.9478,-0.9478,-0.9478,-0.9478,-0.9542,-1.0871,-1.3794,-1.7194,-1.8137,-2.1495,-2.5645,-2.6139,-2.3509,-2.1111,-2.0246,-1.7705,-1.4773,-1.4697,-1.4708,-1.4932,-1.5487,-1.591,-1.6363,-1.6806,-1.6823,-1.6406,-1.5807,-1.5392,-1.4974,-1.4482,-1.3992,-1.363,-1.3193,-1.2519,-1.2009,-1.1632,-1.1335,-1.1335,-1.1111,-1.1117,-1.1192,-1.1111,-1.1037,-1.0881,-1.0881,-1.0881,-1.0282,-0.9458,-0.9458,-0.9609,-0.8694,-0.7783,-0.7395,-2.6084,-2.6503,-2.6333,-2.6253,-2.6205,-2.6194,-2.6016,-2.5798,-2.5749,-2.5787,-2.5828,-2.5941,-2.6066,-2.6208,-2.6505,-2.6824,-2.7132,-2.7244,-2.7341,-2.7359,-2.7362,-2.7299,-2.7299,-2.7299,-2.7299,-2.7376,-2.7539,-2.7701,-2.773,-2.7811,-2.8165,-2.8422,-2.8466,-2.8518,-2.8687,-2.8644,-2.8612,-2.8587,-2.8612,-2.8662,-2.8249,-2.4368,-1.9026,-1.5597,-1.2824,-1.1145,-1.0096,-0.9478,-0.9478,-0.9478,-0.9478,-0.935,-0.9215,-0.9215,-0.935,-0.9087,-0.9017,-0.9151,-0.942,-0.9478,-0.9478,-0.9478,-0.9478,-0.9478,-0.9478,-0.9542,-0.9734,-1.1128,-1.3672,-1.7284,-1.7619,-2.1029,-2.2644,-2.3769,-2.1644,-1.9979,-1.9092,-1.7223,-1.6065,-1.5154,-1.4946,-1.5269,-1.6143,-1.6435,-1.6552,-1.6752,-1.6897,-1.6402,-1.5704,-1.5321,-1.4895,-1.4122,-1.3557,-1.3039,-1.2599,-1.2077,-1.1558,-1.1192,-1.0962,-1.0962,-1.0962,-1.0887,-1.0663,-1.0513,-1.0363,-1.0132,-0.983,-0.9604,-0.8998,-0.8546,-0.8546,-0.8318,-0.7629,-0.7019,-0.6633,-2.4887,-2.5627,-2.51,-2.5185,-2.5578,-2.5616,-2.5632,-2.5616,-2.5616,-2.5637,-2.568,-2.5701,-2.5754,-2.5901,-2.6189,-2.6521,-2.6873,-2.6973,-2.7103,-2.7201,-2.7282,-2.7299,-2.7299,-2.7299,-2.7299,-2.7345,-2.7417,-2.7672,-2.7829,-2.7926,-2.8192,-2.8474,-2.8543,-2.8543,-2.8644,-2.8619,-2.8612,-2.8587,-2.8587,-2.8612,-2.7229,-2.2656,-1.8111,-1.5056,-1.1609,-0.9621,-0.9472,-0.9478,-0.9478,-0.9478,-0.9478,-0.942,-0.9285,-0.9285,-0.9087,-0.8619,-0.8619,-0.9017,-0.928,-0.9478,-0.9478,-0.9478,-0.9478,-0.9478,-0.9606,-0.9728,-1.0142,-1.1211,-1.4572,-1.6599,-1.7182,-1.8084,-1.9624,-2.0305,-1.979,-1.8065,-1.8329,-1.7646,-1.6848,-1.6078,-1.5433,-1.587,-1.6982,-1.6374,-1.6348,-1.6835,-1.7034,-1.6011,-1.5429,-1.498,-1.4537,-1.3688,-1.2973,-1.2372,-1.1929,-1.1558,-1.1186,-1.0962,-1.0663,-1.0588,-1.0513,-1.0507,-1.0137,-0.9533,-0.9306,-0.8998,-0.8699,-0.8475,-0.8246,-0.8016,-0.7633,-0.7173,-0.6788,-0.6325,-0.5938,-2.4016,-2.4534,-2.4806,-2.5169,-2.5578,-2.5616,-2.5616,-2.5616,-2.5616,-2.5616,-2.56,-2.56,-2.5637,-2.5712,-2.5917,-2.6082,-2.6279,-2.659,-2.6791,-2.6908,-2.7137,-2.725,-2.7299,-2.7299,-2.7362,-2.7345,-2.7261,-2.7547,-2.7954,-2.8299,-2.8507,-2.8718,-2.8694,-2.8737,-2.8687,-2.8637,-2.8587,-2.8612,-2.8612,-2.8717,-2.7843,-2.2758,-1.9685,-1.7069,-1.3085,-0.9478,-0.9478,-0.9478,-0.9478,-0.9478,-0.9478,-0.9215,-0.8753,-0.8624,-0.8624,-0.8683,-0.9017,-0.9414,-0.9478,-0.9478,-0.9478,-0.9478,-0.9478,-0.9478,-0.9748,-1.0568,-1.1134,-1.0993,-1.5737,-1.7792,-1.7543,-2.0536,-2.2013,-2.0764,-1.8604,-1.8593,-1.8933,-1.7795,-1.7102,-1.7834,-1.7476,-1.7581,-1.8197,-1.7045,-1.6136,-1.6712,-1.6883,-1.5869,-1.5104,-1.4701,-1.3947,-1.3025,-1.2425,-1.1829,-1.1484,-1.1037,-1.0962,-1.0738,-1.0438,-1.0212,-1.0137,-0.9911,-0.8927,-0.8399,-0.8169,-0.8016,-0.7787,-0.7638,-0.7638,-0.7407,-0.7022,-0.6637,-0.6173,-0.5786,-0.5479,-2.3625,-2.4317,-2.4492,-2.495,-2.5578,-2.5616,-2.5616,-2.5616,-2.5616,-2.5616,-2.5616,-2.5616,-2.5616,-2.5654,-2.5766,-2.5864,-2.601,-2.6279,-2.6453,-2.6624,-2.6875,-2.7023,-2.7055,-2.7218,-2.7345,-2.7434,-2.7526,-2.7789,-2.8165,-2.8255,-2.8352,-2.8533,-2.8694,-2.8737,-2.8662,-2.8594,-2.8694,-2.8815,-2.8828,-2.8123,-2.5832,-2.2212,-1.8733,-1.6873,-1.21,-1.004,-0.9478,-0.9478,-0.9478,-0.9478,-0.9478,-0.9414,-0.9151,-0.9087,-0.9087,-0.9087,-0.9344,-0.9478,-0.9478,-0.9478,-0.9478,-0.9478,-0.9478,-0.9478,-1.0,-1.1809,-1.2607,-1.1652,-1.5939,-1.7423,-1.6192,-1.7589,-1.7895,-1.7409,-1.701,-1.7177,-1.7612,-1.7829,-1.7441,-1.8517,-1.9449,-1.924,-1.8718,-1.7304,-1.6717,-1.7468,-1.6962,-1.5519,-1.4816,-1.4348,-1.3397,-1.2291,-1.1749,-1.1273,-1.1013,-1.0663,-1.0812,-1.0588,-1.0143,-0.9992,-0.9765,-0.9311,-0.8246,-0.7714,-0.7787,-0.7484,-0.7026,-0.6872,-0.6949,-0.6718,-0.6486,-0.6177,-0.5944,-0.5712,-0.5482,-2.3304,-2.4036,-2.4219,-2.4751,-2.541,-2.5486,-2.554,-2.5578,-2.554,-2.554,-2.5578,-2.5616,-2.5616,-2.5616,-2.5691,-2.5844,-2.601,-2.6154,-2.6314,-2.6521,-2.6758,-2.694,-2.7055,-2.725,-2.739,-2.7582,-2.7404,-2.7659,-2.7961,-2.811,-2.812,-2.8308,-2.8669,-2.8687,-2.8637,-2.8612,-2.8712,-2.8975,-2.9209,-2.8252,-2.6053,-2.2885,-1.9446,-1.6112,-1.2693,-1.0147,-0.9354,-0.8958,-0.8894,-0.8888,-0.8823,-0.8694,-0.8689,-0.863,-0.8694,-0.8694,-0.8759,-0.8759,-0.8952,-0.9151,-0.9414,-0.9542,-0.9939,-1.0246,-1.1238,-1.3734,-1.5192,-1.3432,-1.5918,-1.6514,-1.5344,-1.5229,-1.5815,-1.5777,-1.4868,-1.4875,-1.5105,-1.6054,-1.7595,-1.9361,-2.0058,-2.0096,-1.9247,-1.7548,-1.7335,-1.8249,-1.7243,-1.5331,-1.4454,-1.3939,-1.3027,-1.1922,-1.1465,-1.0989,-1.049,-1.0363,-1.0513,-1.0282,-0.9836,-0.9387,-0.9084,-0.8475,-0.7561,-0.7334,-0.7253,-0.7026,-0.6644,-0.6412,-0.6261,-0.6335,-0.6257,-0.6025,-0.5792,-0.5637,-0.5407,-2.2844,-2.3348,-2.3994,-2.4533,-2.4958,-2.524,-2.541,-2.554,-2.5371,-2.5371,-2.5448,-2.5578,-2.5486,-2.5616,-2.5696,-2.5864,-2.601,-2.6505,-2.6573,-2.6758,-2.7055,-2.7122,-2.7154,-2.7169,-2.7313,-2.7327,-2.731,-2.7417,-2.763,-2.8,-2.8219,-2.8619,-2.8669,-2.8644,-2.8644,-2.8694,-2.8815,-2.9075,-2.9395,-2.957,-2.7868,-2.5312,-2.2013,-1.8821,-1.5268,-1.1894,-0.8833,-0.8172,-0.7847,-0.7842,-0.7842,-0.7842,-0.7907,-0.7907,-0.7912,-0.7907,-0.7907,-0.7972,-0.8172,-0.8823,-0.942,-0.967,-1.0184,-1.1093,-1.2165,-1.2902,-1.4145,-1.5253,-1.634,-1.6315,-1.5815,-1.5908,-1.5656,-1.5655,-1.5431,-1.6087,-1.5967,-1.522,-1.6951,-1.9599,-2.0381,-1.9958,-1.9372,-1.7593,-1.6882,-1.767,-1.6588,-1.4737,-1.3958,-1.3304,-1.2563,-1.1781,-1.1329,-1.0801,-1.0132,-1.0062,-1.0212,-0.9679,-0.9079,-0.8475,-0.8016,-0.7334,-0.6949,-0.6795,-0.6718,-0.649,-0.6338,-0.6338,-0.6261,-0.6183,-0.6106,-0.5948,-0.5715,-0.5482,-0.5251,-2.2692,-2.2904,-2.3421,-2.3991,-2.4608,-2.4989,-2.5178,-2.5162,-2.4879,-2.4784,-2.4879,-2.4879,-2.5013,-2.5201,-2.5317,-2.553,-2.5754,-2.5921,-2.6208,-2.6469,-2.6708,-2.6859,-2.6909,-2.7072,-2.7184,-2.7324,-2.74,-2.7624,-2.7971,-2.8055,-2.8317,-2.8594,-2.8669,-2.8644,-2.8669,-2.885,-2.9056,-2.9177,-2.9495,-2.9729,-2.8626,-2.4379,-2.1043,-1.9614,-1.3653,-1.0681,-0.8692,-0.8291,-0.7842,-0.7517,-0.7321,-0.7256,-0.7256,-0.7256,-0.7256,-0.7256,-0.7256,-0.7451,-0.7907,-0.856,-0.9081,-0.9734,-1.0192,-1.1039,-1.2375,-1.2394,-1.2966,-1.408,-1.5311,-1.5314,-1.5119,-1.5287,-1.55,-1.5938,-1.6391,-1.6954,-1.7097,-1.6196,-1.6677,-1.9532,-1.9519,-1.8998,-1.8344,-1.7549,-1.7151,-1.6859,-1.5518,-1.4326,-1.3559,-1.2799,-1.2138,-1.1539,-1.1025,-1.0426,-0.976,-0.976,-0.9906,-0.9074,-0.8318,-0.7863,-0.7407,-0.6872,-0.649,-0.6338,-0.6261,-0.6338,-0.6338,-0.6261,-0.6261,-0.6183,-0.6106,-0.6028,-0.5718,-0.5326,-0.5171,-2.2324,-2.2509,-2.2889,-2.342,-2.4059,-2.4436,-2.4614,-2.463,-2.4297,-2.4282,-2.4405,-2.4527,-2.4735,-2.4966,-2.5146,-2.5362,-2.5701,-2.5921,-2.6154,-2.6417,-2.6708,-2.6708,-2.6792,-2.6909,-2.7087,-2.7289,-2.743,-2.7642,-2.8,-2.8219,-2.8414,-2.8536,-2.8662,-2.8662,-2.8845,-2.9126,-2.9377,-2.942,-2.8261,-2.8084,-2.6955,-2.2405,-1.8063,-1.7196,-1.2561,-0.9669,-0.8217,-0.7381,-0.706,-0.6802,-0.6671,-0.6732,-0.6802,-0.6802,-0.6798,-0.6798,-0.6863,-0.7125,-0.7577,-0.8554,-0.9017,-0.9734,-1.0604,-1.1148,-1.1794,-1.2589,-1.3669,-1.4528,-1.482,-1.4515,-1.4515,-1.4831,-1.5054,-1.5433,-1.5542,-1.6128,-1.7552,-1.753,-1.8168,-1.9406,-1.8929,-1.8574,-1.7601,-1.6918,-1.624,-1.5883,-1.5056,-1.3899,-1.3028,-1.2347,-1.1734,-1.1187,-1.072,-0.9976,-0.9306,-0.9453,-0.9377,-0.8546,-0.7787,-0.7484,-0.7026,-0.6567,-0.6338,-0.6261,-0.6261,-0.6261,-0.6261,-0.6261,-0.6261,-0.6261,-0.618,-0.6025,-0.5637,-0.5323,-0.5171,-2.1807,-2.2217,-2.2572,-2.292,-2.326,-2.3537,-2.3767,-2.3937,-2.3767,-2.3879,-2.4323,-2.4639,-2.4871,-2.495,-2.5091,-2.5384,-2.5832,-2.612,-2.6418,-2.6725,-2.6809,-2.6942,-2.6942,-2.6975,-2.699,-2.6975,-2.7184,-2.7509,-2.7876,-2.8045,-2.8228,-2.8518,-2.8712,-2.881,-2.9026,-2.9377,-2.957,-2.8988,-2.5742,-2.5208,-2.2912,-1.9776,-1.6962,-1.3784,-1.158,-0.9061,-0.738,-0.6531,-0.621,-0.5885,-0.5822,-0.5818,-0.5756,-0.5756,-0.5756,-0.569,-0.5624,-0.5624,-0.5818,-0.8107,-0.9221,-0.9798,-1.0584,-1.1972,-1.4128,-1.4807,-1.4572,-1.5028,-1.5285,-1.4613,-1.4515,-1.4547,-1.4725,-1.5279,-1.5546,-1.6323,-1.7823,-1.8459,-1.8872,-1.9203,-1.897,-1.8491,-1.7339,-1.627,-1.5352,-1.4743,-1.4276,-1.3557,-1.2639,-1.1949,-1.1367,-1.0799,-1.0271,-0.9599,-0.8998,-0.9074,-0.8846,-0.7936,-0.733,-0.7026,-0.6795,-0.6412,-0.6261,-0.6257,-0.6022,-0.5789,-0.5948,-0.6183,-0.5867,-0.5553,-0.5941,-0.5864,-0.5553,-0.5246,-0.509,-2.203,-2.2217,-2.231,-2.2434,-2.2618,-2.3157,-2.3436,-2.348,-2.3436,-2.3508,-2.3724,-2.4051,-2.4343,-2.4492,-2.4695,-2.5059,-2.5631,-2.5742,-2.6068,-2.6742,-2.6825,-2.6808,-2.6808,-2.6842,-2.694,-2.7135,-2.7324,-2.7535,-2.8037,-2.811,-2.8335,-2.8612,-2.8892,-2.903,-2.9119,-2.9157,-2.8799,-2.7028,-2.635,-2.5742,-2.072,-1.8468,-1.5941,-1.2083,-0.9929,-0.8056,-0.6485,-0.6009,-0.5752,-0.5425,-0.5359,-0.5296,-0.5296,-0.5296,-0.5359,-0.5359,-0.5428,-0.5951,-0.6728,-0.8361,-0.9005,-0.9576,-1.051,-1.1788,-1.2733,-1.3159,-1.3866,-1.4814,-1.4952,-1.4455,-1.4515,-1.4515,-1.491,-1.6286,-1.697,-1.7853,-1.8839,-1.8734,-1.8867,-1.9125,-1.9064,-1.8227,-1.7162,-1.5843,-1.4874,-1.4234,-1.3864,-1.3204,-1.2282,-1.1643,-1.1106,-1.0324,-0.975,-0.9074,-0.8618,-0.8542,-0.8084,-0.7176,-0.6795,-0.6567,-0.6338,-0.6257,-0.5944,-0.5709,-0.5473,-0.5318,-0.524,-0.5085,-0.4771,-0.4691,-0.516,-0.5315,-0.5004,-0.4851,-0.501,-2.2044,-2.217,-2.217,-2.217,-2.2263,-2.2723,-2.2918,-2.2949,-2.3172,-2.326,-2.3407,-2.3797,-2.4094,-2.4261,-2.4343,-2.4719,-2.5427,-2.5556,-2.5961,-2.6624,-2.6708,-2.6791,-2.6825,-2.6791,-2.7021,-2.7276,-2.7444,-2.7666,-2.8075,-2.843,-2.8676,-2.892,-2.9191,-2.9275,-2.9375,-2.9229,-2.8115,-2.5927,-2.4727,-2.1843,-1.7365,-1.4374,-1.2406,-0.9773,-0.7827,-0.6465,-0.6141,-0.5947,-0.5881,-0.5422,-0.516,-0.5027,-0.5027,-0.5027,-0.5024,-0.5024,-0.5683,-0.6207,-0.7116,-0.835,-0.893,-0.9192,-1.0161,-1.1115,-1.1787,-1.2716,-1.3339,-1.3996,-1.4258,-1.4473,-1.4604,-1.4622,-1.5093,-1.6451,-1.677,-1.7554,-1.8332,-1.8177,-1.8261,-1.8536,-1.8516,-1.7714,-1.6866,-1.5603,-1.441,-1.3908,-1.347,-1.2698,-1.197,-1.1424,-1.0677,-0.9947,-0.9372,-0.877,-0.8241,-0.7783,-0.7249,-0.6412,-0.6261,-0.6261,-0.6103,-0.5944,-0.555,-0.5082,-0.4768,-0.4455,-0.4144,-0.391,-0.3834,-0.399,-0.4377,-0.4457,-0.4302,-0.4302,-0.446,-2.165,-2.2123,-2.217,-2.2123,-2.2184,-2.2278,-2.231,-2.231,-2.2994,-2.326,-2.3363,-2.3967,-2.4219,-2.4276,-2.4302,-2.4759,-2.5389,-2.5519,-2.6033,-2.6521,-2.6708,-2.6858,-2.6923,-2.6858,-2.7051,-2.7334,-2.7547,-2.7725,-2.8129,-2.8471,-2.8855,-2.9148,-2.9397,-2.8929,-2.8774,-2.8147,-2.67,-2.4047,-2.2378,-1.8447,-1.3342,-0.9744,-0.8222,-0.644,-0.5411,-0.5216,-0.5153,-0.509,-0.5156,-0.4891,-0.4622,-0.4356,-0.4289,-0.4289,-0.4287,-0.4616,-0.5474,-0.6133,-0.6976,-0.814,-0.9064,-0.9518,-1.0541,-1.1538,-1.2336,-1.2948,-1.3571,-1.401,-1.4446,-1.4618,-1.4802,-1.4725,-1.4744,-1.5154,-1.5174,-1.5984,-1.7029,-1.7287,-1.7403,-1.748,-1.7467,-1.695,-1.6239,-1.5148,-1.3992,-1.3407,-1.2811,-1.1912,-1.1276,-1.1103,-1.0319,-0.9311,-0.8851,-0.8623,-0.8012,-0.7096,-0.6714,-0.6028,-0.6106,-0.6028,-0.5867,-0.5631,-0.5162,-0.4616,-0.4066,-0.3597,-0.313,-0.3054,-0.3132,-0.3366,-0.3366,-0.3522,-0.3444,-0.3444,-0.3524,-2.0845,-2.0966,-2.1444,-2.1589,-2.1589,-2.2217,-2.2509,-2.2618,-2.2994,-2.326,-2.3523,-2.3925,-2.4109,-2.4094,-2.4385,-2.4799,-2.5269,-2.5721,-2.6137,-2.6469,-2.6708,-2.6758,-2.6791,-2.6841,-2.7063,-2.7357,-2.7613,-2.784,-2.8332,-2.864,-2.8566,-2.9097,-2.8275,-2.7278,-2.5924,-2.5349,-2.3371,-2.1807,-2.0564,-1.5929,-1.1265,-0.8395,-0.6506,-0.5064,-0.4084,-0.4087,-0.402,-0.402,-0.4018,-0.3818,-0.3685,-0.3485,-0.3551,-0.3485,-0.3551,-0.3618,-0.4547,-0.554,-0.6702,-0.7877,-0.893,-0.997,-1.0989,-1.1655,-1.2451,-1.313,-1.3819,-1.4487,-1.4968,-1.5289,-1.5762,-1.5867,-1.5909,-1.6033,-1.5758,-1.5516,-1.64,-1.65,-1.6598,-1.6836,-1.6796,-1.6329,-1.5651,-1.4678,-1.3631,-1.2887,-1.2149,-1.1228,-1.0613,-1.0442,-0.9965,-0.8965,-0.8165,-0.7859,-0.7019,-0.6173,-0.6022,-0.5796,-0.5873,-0.5792,-0.5476,-0.5162,-0.4698,-0.3992,-0.3054,-0.2429,-0.196,-0.204,-0.2353,-0.2041,-0.204,-0.2353,-0.2588,-0.2666,-0.2744,-2.0547,-2.0584,-2.1006,-2.1202,-2.1382,-2.2123,-2.254,-2.2754,-2.3083,-2.3407,-2.3566,-2.3882,-2.4067,-2.4302,-2.4508,-2.4895,-2.5513,-2.5791,-2.617,-2.6486,-2.6536,-2.6923,-2.6939,-2.6847,-2.7452,-2.7677,-2.784,-2.811,-2.7967,-2.6688,-2.6242,-2.4493,-2.4983,-2.3244,-2.1407,-2.0506,-1.8906,-1.7771,-1.6318,-1.3522,-1.0556,-0.7717,-0.6006,-0.4537,-0.3413,-0.3218,-0.3151,-0.3151,-0.3151,-0.3084,-0.3084,-0.2883,-0.2883,-0.2883,-0.3418,-0.3685,-0.468,-0.5997,-0.7298,-0.8215,-0.932,-1.0351,-1.1178,-1.1779,-1.2458,-1.313,-1.4366,-1.5426,-1.5768,-1.6164,-1.6725,-1.7251,-1.7509,-1.7777,-1.6632,-1.5504,-1.5621,-1.5726,-1.5965,-1.6218,-1.6053,-1.5651,-1.4923,-1.4043,-1.3139,-1.2266,-1.1508,-1.0666,-1.0117,-0.9835,-0.936,-0.8538,-0.7685,-0.6938,-0.6173,-0.5637,-0.5637,-0.5637,-0.5718,-0.5559,-0.5165,-0.454,-0.3995,-0.2901,-0.1805,-0.1492,-0.1492,-0.1414,-0.1492,-0.1258,-0.1179,-0.157,-0.1883,-0.1962,-0.2041,-2.027,-2.0534,-2.0696,-2.1068,-2.152,-2.203,-2.2449,-2.274,-2.326,-2.3553,-2.3683,-2.3882,-2.4261,-2.4533,-2.4775,-2.5169,-2.5589,-2.5901,-2.5644,-2.6148,-2.5789,-2.5727,-2.5408,-2.6598,-2.6257,-2.7315,-2.7128,-2.5385,-2.5943,-2.4315,-2.14,-1.8596,-1.8569,-1.7738,-1.654,-1.606,-1.4111,-1.1145,-1.0982,-0.9604,-0.7169,-0.5425,-0.4674,-0.3877,-0.322,-0.2883,-0.295,-0.3017,-0.3015,-0.2817,-0.2683,-0.235,-0.2283,-0.235,-0.3086,-0.3751,-0.4348,-0.5789,-0.7098,-0.8146,-0.932,-1.0351,-1.1178,-1.1841,-1.2512,-1.313,-1.433,-1.5343,-1.5675,-1.677,-1.7526,-1.733,-1.7371,-1.7733,-1.7325,-1.645,-1.6093,-1.5989,-1.5758,-1.5911,-1.5748,-1.5342,-1.451,-1.3631,-1.2765,-1.1772,-1.0968,-1.0223,-0.9434,-0.9088,-0.8592,-0.8009,-0.7218,-0.6398,-0.6096,-0.5634,-0.5482,-0.5482,-0.5482,-0.5249,-0.4854,-0.4073,-0.3137,-0.2276,-0.1414,-0.1336,-0.1336,-0.1336,-0.1178,-0.0786,-0.0786,-0.0942,-0.1099,-0.102,-0.1413,-1.8047,-1.8874,-1.9991,-2.0957,-2.1712,-2.2203,-2.2572,-2.2889,-2.3377,-2.3824,-2.4147,-2.4245,-2.4451,-2.4839,-2.5098,-2.546,-2.5647,-2.5427,-2.4803,-2.3921,-2.3601,-2.2729,-2.1034,-2.1618,-2.3403,-2.4949,-2.4147,-2.057,-2.0387,-1.9154,-1.8322,-1.7344,-1.6111,-1.4291,-1.1654,-1.1296,-0.9154,-0.5802,-0.57,-0.6017,-0.4711,-0.3478,-0.2616,-0.2284,-0.1947,-0.1678,-0.1678,-0.1746,-0.1746,-0.1679,-0.1814,-0.1681,-0.1546,-0.1747,-0.188,-0.2281,-0.3416,-0.4929,-0.6498,-0.7807,-0.8918,-1.0465,-1.1413,-1.202,-1.2634,-1.3191,-1.3934,-1.4884,-1.5918,-1.7192,-1.8032,-1.7585,-1.7279,-1.7733,-1.7987,-1.7317,-1.6652,-1.6197,-1.5748,-1.5642,-1.5536,-1.4883,-1.4103,-1.3312,-1.2389,-1.1648,-1.0912,-1.007,-0.8816,-0.815,-0.7715,-0.7131,-0.6605,-0.6015,-0.5709,-0.5556,-0.5326,-0.5171,-0.5093,-0.4859,-0.4389,-0.3294,-0.2276,-0.1806,-0.1336,-0.1336,-0.1336,-0.1257,-0.1021,-0.055,-0.0078,-0.0157,0.0157,0.0313,-0.0314,-1.7135,-1.8135,-1.9436,-2.0623,-2.1554,-2.1941,-2.2346,-2.2979,-2.3595,-2.4282,-2.4697,-2.4542,-2.4592,-2.5057,-2.5443,-2.5417,-2.528,-2.4627,-2.3644,-2.2379,-2.0644,-1.9863,-1.8567,-1.7394,-1.9908,-2.148,-1.6045,-1.2851,-1.4154,-1.3629,-1.3141,-1.2034,-1.098,-0.96,-0.6788,-0.6095,-0.5024,-0.2392,-0.2278,-0.2412,-0.2741,-0.2078,-0.161,-0.141,-0.0941,-0.0538,-0.0605,-0.0739,-0.1076,-0.1277,-0.1547,-0.1748,-0.1681,-0.1748,-0.1882,-0.235,-0.3215,-0.4276,-0.5905,-0.7274,-0.8586,-1.0255,-1.1413,-1.1965,-1.3183,-1.3791,-1.4965,-1.5847,-1.6449,-1.7603,-1.8904,-1.896,-1.8499,-1.8627,-1.8234,-1.7611,-1.6978,-1.6482,-1.614,-1.5979,-1.5633,-1.4815,-1.4103,-1.3571,-1.2512,-1.064,-1.0091,-0.9402,-0.8231,-0.7267,-0.6881,-0.6432,-0.5983,-0.5634,-0.5326,-0.5171,-0.5096,-0.4937,-0.4701,-0.4075,-0.337,-0.2276,-0.1336,-0.1178,-0.1178,-0.1336,-0.1258,-0.0942,-0.0706,-0.0235,0.0314,0.0784,0.1175,0.1488,0.0862,-1.6687,-1.7743,-1.8951,-2.0144,-2.1286,-2.1629,-2.2073,-2.2712,-2.3546,-2.4058,-2.4115,-2.3558,-2.4231,-2.5025,-2.476,-2.5012,-2.4403,-2.2432,-2.1526,-1.9948,-1.8231,-1.6399,-1.5525,-1.5513,-1.5799,-1.374,-0.9214,-0.8519,-0.9274,-0.8488,-0.6987,-0.4207,-0.3145,-0.2404,-0.2012,-0.1803,-0.1407,-0.1073,-0.0873,-0.0806,-0.0872,-0.1006,-0.1073,-0.0671,-0.0134,0.0403,0.0269,-0.0134,-0.0672,-0.1075,-0.1412,-0.1748,-0.1883,-0.1884,-0.2151,-0.2552,-0.3151,-0.4472,-0.5982,-0.7358,-0.8843,-1.0262,-1.1094,-1.2212,-1.3545,-1.4685,-1.5825,-1.6493,-1.7072,-1.7599,-1.8872,-1.9372,-1.8951,-1.8772,-1.8219,-1.7765,-1.7202,-1.6641,-1.6358,-1.6197,-1.5391,-1.4638,-1.3914,-1.3442,-1.2135,-1.0268,-0.9006,-0.8228,-0.7469,-0.6793,-0.6233,-0.5904,-0.5613,-0.5249,-0.4937,-0.4859,-0.4859,-0.4309,-0.3995,-0.3212,-0.2508,-0.1805,-0.1257,-0.0864,-0.0864,-0.0864,-0.0549,-0.0157,0.0078,0.0392,0.094,0.1646,0.2116,0.2272,0.1881,-1.4953,-1.6543,-1.8831,-2.0167,-2.0895,-2.2048,-2.231,-2.1753,-2.1834,-2.1597,-2.092,-2.0428,-2.1161,-2.3889,-2.1379,-2.0716,-2.0645,-1.9156,-1.7322,-1.5562,-1.3998,-1.2108,-1.0727,-1.0373,-0.8349,-0.6436,-0.4677,-0.3815,-0.4966,-0.4219,-0.3026,-0.186,-0.1136,-0.0603,-0.0536,-0.0335,-0.0201,0.0067,0.0403,0.0537,0.0335,0.0067,-0.0537,-0.0403,-0.0201,0.0403,0.0537,0.0067,-0.0134,-0.0604,-0.1276,-0.1748,-0.1883,-0.1883,-0.2085,-0.2353,-0.295,-0.4207,-0.5588,-0.7028,-0.8511,-1.0571,-1.164,-1.3045,-1.4255,-1.5361,-1.617,-1.6662,-1.697,-1.6667,-1.738,-1.7414,-1.7173,-1.7653,-1.75,-1.7368,-1.7034,-1.6528,-1.6187,-1.5623,-1.4874,-1.3974,-1.2992,-1.2381,-1.1516,-0.9874,-0.8723,-0.7933,-0.702,-0.6324,-0.566,-0.5454,-0.524,-0.4774,-0.446,-0.4543,-0.4465,-0.3837,-0.3288,-0.2665,-0.2196,-0.1805,-0.1256,-0.0628,-0.0235,-0.0078,0.0313,0.0627,0.1175,0.1489,0.196,0.243,0.2899,0.2899,0.243]},{"header":{"parameterUnit":"m.s-1","parameterCategory":1,"la1":31.0,"la2":29.5877,"lo1":-88.7671,"lo2":-86.6584,"dy":0.0162,"dx":0.0185,"nx":115,"ny":88,"refTime":"2023-08-12T18:00:00:Z","depth":0,"parameterNumber":3,"parameterNumberName":"V-component_of_WINDS"},"data":[0.0,0.0,0.0,0.0,0.0,0.0,0.0,0.0,0.0,0.0,0.0,0.0,0.0,0.0,0.0,0.0,0.0,0.0,0.0,0.0,0.0,0.0,0.0,0.0,0.0,0.0,0.0,0.0,0.0,0.0,0.0,0.0,0.0,0.0,0.0,0.0,0.0,0.0,0.0,0.0,0.0,0.0,0.0,0.0,0.0,0.0,0.0,0.0,0.0,0.0,0.0,0.0,0.0,0.0,0.0,0.0,0.0,0.0,0.0,0.0,0.0,0.0,0.0,0.0,0.0,0.0,0.0,0.0,0.0,0.0,0.0,0.0,0.0,0.0,0.0,0.0,0.0,0.0,0.0,0.0,0.0,0.0,0.0,0.0,0.0,0.0,0.0,0.0,0.0,0.0,0.0,0.0,0.0,0.0,0.0,0.0,0.0,0.0,0.0,0.0,0.0,0.0,0.0,0.0,0.0,0.0,0.0,0.0,0.0,0.0,0.0,0.0,0.0,0.0,0.0,0.0,0.0,0.0,0.0,0.0,0.0,0.0,0.0,0.0,0.0,0.0,0.0,0.0,0.0,0.0,0.0,0.0,0.0,0.0,0.0,0.0,0.0,0.0,0.0,0.0,0.0,0.0,0.0,0.0,0.0,0.0,0.0,0.0,0.0,0.0,0.0,0.0,0.0,0.0,0.0,0.0,0.0,0.0,0.0,0.0,0.0,0.0,0.0,0.0,0.0,0.0,0.0,0.0,0.0,0.0,0.0,0.0,0.0,0.0,0.0,0.0,0.0,0.0,0.0,0.0,0.0,0.0,0.0,0.0,0.0,0.0,0.0,0.0,0.0,0.0,0.0,0.0,0.0,0.0,0.0,0.0,0.0,0.0,0.0,0.0,0.0,0.0,0.0,0.0,0.0,0.0,0.0,0.0,0.0,0.0,0.0,0.0,0.0,0.0,0.0,0.0,0.0,0.0,0.0,0.0,0.0,0.0,0.0,0.0,0.0,0.0,0.0,0.0,0.0,0.0,0.0,0.0,0.0,0.0,0.0,0.0,0.0,0.0,0.0,0.0,0.0,0.0,0.0,0.0,0.0,0.0,0.0,0.0,0.0,0.0,0.0,0.0,0.0,0.0,0.0,0.0,0.0,0.0,0.0,0.0,0.0,0.0,0.0,0.0,0.0,0.0,0.0,0.0,0.0,0.0,0.0,0.0,0.0,0.0,0.0,0.0,0.0,0.0,0.0,0.0,0.0,0.0,0.0,0.0,0.0,0.0,0.0,0.0,0.0,0.0,0.0,0.0,0.0,0.0,0.0,0.0,0.0,0.0,0.0,0.0,0.0,0.0,0.0,0.0,0.0,0.0,0.0,0.0,0.0,0.0,0.0,0.0,0.0,0.0,0.0,0.0,0.0,0.0,0.0,0.0,0.0,0.0,0.0,0.0,0.0,0.0,0.0,0.0,0.0,0.0,0.0,0.0,0.0,0.0,0.0,0.0,0.0,0.0,0.0,0.0,0.0,0.0,0.0,0.0,0.0,0.0,0.0,0.0,0.0,0.0,0.0,0.0,0.0,0.0,0.0,0.0,0.0,0.0,0.0,0.0,0.0,0.0,0.0,0.0,0.0,0.0,0.0,0.0,0.0,0.0,0.0,0.0,0.0,0.0,0.0,0.0,0.0,0.0,0.0,0.0,0.0,0.0,0.0,0.0,0.0,0.0,0.0,0.0,0.0,0.0,0.0,0.0,0.0,0.0,0.0,0.0,0.0,0.0,0.0,0.0,0.0,0.0,0.0,0.0,0.0,0.0,0.0,0.0,0.0,0.0,0.0,0.0,0.0,0.0,0.0,0.0,0.0,0.0,0.0,0.0,0.0,0.0,0.0,0.0,0.0,0.0,0.0,0.0,0.0,0.0,0.0,0.0,0.0,0.0,0.0,0.0,0.0,0.0,0.0,0.0,0.0,0.0,0.0,0.0,0.0,0.0,0.0,0.0,0.0,0.0,0.0,0.0,0.0,0.0,0.0,0.0,0.0,0.0,0.0,0.0,0.0,0.0,0.0,0.0,0.0,0.0,0.0,0.0,0.0,0.0,0.0,0.0,0.0,0.0,0.0,0.0,0.0,0.0,0.0,0.0,0.0,0.0,0.0,0.0,0.0,0.0,0.0,0.0,0.0,0.0,0.0,0.0,0.0,0.0,0.0,0.0,0.0,0.0,0.0,0.0,0.0,0.0,0.0,0.0,0.0,0.0,0.0,0.0,0.0,0.0,0.0,0.0,0.0,0.0,0.0,0.0,0.0,0.0,0.0,0.0,0.0,0.0,0.0,0.0,0.0,0.0,0.0,0.0,0.0,0.0,0.0,0.0,0.0,0.0,0.0,0.0,0.0,0.0,0.0,0.0,0.0,0.0,0.0,0.0,0.0,0.0,0.0,0.0,0.0,0.0,0.0,0.0,0.0,0.0,0.0,0.0,0.0,0.0,0.0,0.0,0.0,0.0,0.0,0.0,0.0,0.0,0.0,0.0,0.0,0.0,0.0,0.0,0.0,0.0,0.0,0.0,0.0,0.0,0.0,0.0,0.0,0.0,0.0,0.0,0.0,0.0,0.0,0.0,0.0,0.0,0.0,0.0,0.0,0.0,0.0,0.0,0.0,0.0,0.0,0.0,0.0,0.0,0.0,0.0,0.0,0.0,0.0,0.0,0.0,0.0,0.0,0.0,0.0,0.0,0.0,0.0,0.0,0.0,0.0,0.0,0.0,0.0,0.0,0.0,0.0,0.0,0.0,0.0,0.0,0.0,0.0,0.0,0.0,0.0,0.0,0.0,0.0,0.0,0.0,0.0,0.0,0.0,0.0,0.0,0.0,0.0,0.0,0.0,0.0,0.0,0.0,0.0,0.0,0.0,0.0,0.0,0.0,0.0,0.0,0.0,0.0,0.0,0.0,0.0,0.0,0.0,0.0,0.0,0.0,0.0,0.0,0.0,0.0,0.0,0.0,0.0,0.0,0.0,0.0,0.0,0.0,0.0,0.0,0.0,0.0,0.0,0.0,0.0,0.0,0.0,0.0,0.0,0.0,0.0,0.0,0.0,0.0,0.0,0.0,0.0,0.0,0.0,0.0,0.0,0.0,0.0,0.0,0.0,0.0,0.0,0.0,0.0,0.0,0.0,0.0,0.0,0.0,0.0,0.0,0.0,0.0,0.0,0.0,0.0,0.0,0.0,0.0,0.0,0.0,0.0,0.0,0.0,0.0,0.0,0.0,0.0,0.0,0.0,0.0,0.0,0.0,0.0,0.0,0.0,0.0,0.0,0.0,0.0,0.0,0.0,0.0,0.0,0.0,0.0,0.0,0.0,0.0,0.0,0.0,0.0,0.0,0.0,0.0,0.0,0.0,0.0,0.0,0.0,0.0,0.0,0.0,0.0,0.0,0.0,0.0,0.0,0.0,0.0,0.0,0.0,0.0,0.0,0.0,0.0,0.0,0.0,0.0,0.0,0.0,0.0,0.0,0.0,0.0,0.0,0.0,0.0,0.0,0.0,0.0,0.0,0.0,0.0,0.0,0.0,0.0,0.0,0.0,0.0,0.0,0.0,0.0,0.0,0.0,0.0,0.0,0.0,0.0,0.0,0.0,0.0,0.0,0.0,0.0,0.0,0.0,0.0,0.0,0.0,0.0,0.0,0.0,0.0,0.0,0.0,0.0,0.0,0.0,0.0,0.0,0.0,0.0,0.0,0.0,0.0,0.0,0.0,0.0,0.0,0.0,0.0,0.0,0.0,0.0,0.0,0.0,0.0,0.0,0.0,0.0,0.0,0.0,0.0,0.0,0.0,0.0,0.0,0.0,0.0,0.0,0.0,0.0,0.0,0.0,0.0,0.0,0.0,0.0,0.0,0.0,0.0,0.0,0.0,0.0,0.0,0.0,0.0,0.0,0.0,0.0,0.0,0.0,0.0,0.0,0.0,0.0,0.0,0.0,0.0,0.0,0.0,0.0,0.0,0.0,0.0,0.0,0.0,0.0,0.0,0.0,0.0,0.0,0.0,0.0,0.0,0.0,0.0,0.0,0.0,0.0,0.0,0.0,0.0,0.0,0.0,0.0,0.0,0.0,0.0,0.0,0.0,0.0,0.0,0.0,0.0,0.0,0.0,0.0,0.0,0.0,0.0,0.0,0.0,0.0,0.0,0.0,0.0,0.0,0.0,0.0,0.0,0.0,0.0,0.0,0.0,0.0,0.0,0.0,0.0,0.0,0.0,0.0,0.0,0.0,0.0,0.0,0.0,-3.5818,0.0,0.0,0.0,0.0,0.0,0.0,0.0,0.0,0.0,0.0,0.0,0.0,0.0,0.0,0.0,0.0,0.0,0.0,0.0,0.0,0.0,0.0,0.0,0.0,0.0,0.0,0.0,0.0,0.0,0.0,0.0,0.0,0.0,0.0,0.0,0.0,0.0,0.0,0.0,0.0,0.0,0.0,0.0,0.0,0.0,0.0,0.0,0.0,0.0,0.0,0.0,0.0,0.0,0.0,0.0,0.0,0.0,0.0,0.0,0.0,0.0,0.0,0.0,0.0,0.0,0.0,0.0,0.0,0.0,0.0,0.0,0.0,0.0,0.0,0.0,0.0,0.0,0.0,0.0,0.0,0.0,0.0,0.0,0.0,0.0,0.0,0.0,0.0,0.0,0.0,0.0,0.0,0.0,0.0,0.0,0.0,0.0,0.0,0.0,0.0,0.0,0.0,0.0,0.0,0.0,0.0,0.0,0.0,0.0,0.0,-3.6419,-3.5762,-3.7312,-3.7386,-3.5747,0.0,0.0,0.0,0.0,0.0,0.0,0.0,0.0,0.0,0.0,0.0,0.0,0.0,0.0,0.0,0.0,0.0,0.0,0.0,0.0,0.0,0.0,0.0,0.0,0.0,0.0,0.0,0.0,0.0,0.0,0.0,0.0,0.0,0.0,0.0,0.0,0.0,0.0,0.0,0.0,0.0,0.0,0.0,0.0,0.0,0.0,0.0,0.0,0.0,0.0,0.0,0.0,0.0,0.0,0.0,0.0,0.0,0.0,0.0,0.0,0.0,0.0,0.0,0.0,0.0,0.0,0.0,0.0,0.0,0.0,0.0,0.0,0.0,0.0,0.0,0.0,0.0,0.0,0.0,0.0,0.0,0.0,0.0,0.0,0.0,0.0,0.0,0.0,0.0,0.0,0.0,0.0,0.0,0.0,0.0,0.0,0.0,0.0,0.0,0.0,0.0,0.0,0.0,0.0,0.0,0.0,0.0,0.0,0.0,0.0,0.0,0.0,-3.7113,-3.7197,-3.595,0.0,0.0,0.0,0.0,0.0,0.0,0.0,0.0,0.0,0.0,0.0,0.0,0.0,0.0,0.0,0.0,0.0,0.0,0.0,0.0,0.0,0.0,0.0,0.0,0.0,0.0,0.0,0.0,0.0,0.0,0.0,0.0,0.0,0.0,0.0,0.0,0.0,0.0,0.0,0.0,0.0,0.0,0.0,0.0,0.0,0.0,0.0,0.0,0.0,0.0,0.0,0.0,0.0,0.0,0.0,0.0,0.0,0.0,0.0,0.0,0.0,0.0,0.0,0.0,0.0,0.0,0.0,0.0,0.0,0.0,0.0,0.0,0.0,0.0,0.0,0.0,0.0,0.0,0.0,0.0,0.0,0.0,0.0,0.0,0.0,0.0,0.0,0.0,0.0,0.0,0.0,0.0,0.0,0.0,0.0,0.0,0.0,0.0,0.0,0.0,0.0,0.0,0.0,0.0,0.0,0.0,0.0,0.0,0.0,0.0,-3.5977,-3.6498,-3.6535,0.0,-3.6406,0.0,0.0,0.0,0.0,0.0,0.0,0.0,0.0,0.0,0.0,0.0,0.0,0.0,0.0,0.0,0.0,0.0,0.0,0.0,0.0,0.0,0.0,0.0,0.0,0.0,0.0,0.0,0.0,0.0,0.0,0.0,0.0,0.0,0.0,0.0,0.0,0.0,0.0,0.0,0.0,0.0,0.0,0.0,0.0,0.0,0.0,0.0,0.0,0.0,0.0,0.0,0.0,0.0,0.0,0.0,0.0,0.0,0.0,0.0,0.0,0.0,0.0,0.0,0.0,0.0,0.0,0.0,0.0,0.0,0.0,0.0,0.0,0.0,0.0,0.0,0.0,0.0,0.0,0.0,0.0,0.0,0.0,0.0,0.0,0.0,0.0,0.0,0.0,0.0,0.0,0.0,0.0,0.0,0.0,0.0,0.0,0.0,0.0,0.0,0.0,0.0,0.0,0.0,0.0,0.0,0.0,0.0,0.0,0.0,0.0,-3.5691,-3.6304,-3.6253,-3.6007,0.0,0.0,0.0,0.0,0.0,0.0,0.0,0.0,0.0,0.0,0.0,0.0,0.0,0.0,0.0,0.0,0.0,0.0,0.0,0.0,0.0,0.0,0.0,0.0,0.0,0.0,0.0,0.0,0.0,0.0,0.0,0.0,0.0,0.0,0.0,0.0,0.0,0.0,0.0,0.0,0.0,0.0,0.0,0.0,0.0,0.0,0.0,0.0,0.0,0.0,0.0,0.0,0.0,0.0,0.0,0.0,0.0,0.0,0.0,0.0,0.0,0.0,0.0,0.0,0.0,0.0,0.0,0.0,0.0,0.0,0.0,0.0,0.0,0.0,0.0,0.0,0.0,0.0,0.0,0.0,0.0,0.0,0.0,0.0,0.0,0.0,0.0,0.0,0.0,0.0,0.0,0.0,0.0,0.0,0.0,0.0,0.0,0.0,0.0,0.0,0.0,0.0,0.0,0.0,0.0,0.0,0.0,0.0,0.0,0.0,-3.5671,-3.5789,-3.6285,-3.5866,-3.545,-3.5132,0.0,0.0,0.0,0.0,0.0,0.0,0.0,0.0,0.0,0.0,0.0,0.0,0.0,0.0,0.0,0.0,0.0,0.0,0.0,0.0,0.0,0.0,0.0,0.0,0.0,0.0,0.0,0.0,0.0,0.0,0.0,0.0,0.0,0.0,0.0,0.0,0.0,0.0,0.0,0.0,0.0,0.0,0.0,0.0,0.0,0.0,0.0,0.0,0.0,0.0,0.0,0.0,0.0,0.0,0.0,0.0,0.0,0.0,0.0,0.0,0.0,0.0,0.0,0.0,0.0,0.0,0.0,0.0,0.0,0.0,0.0,0.0,0.0,0.0,0.0,0.0,0.0,0.0,0.0,0.0,0.0,0.0,0.0,0.0,0.0,0.0,0.0,0.0,0.0,0.0,0.0,0.0,0.0,0.0,0.0,0.0,0.0,0.0,0.0,0.0,0.0,0.0,0.0,0.0,0.0,0.0,0.0,0.0,-3.7516,-3.6612,-3.6342,-3.685,-3.5212,-3.4764,0.0,0.0,0.0,0.0,0.0,0.0,0.0,0.0,0.0,0.0,0.0,0.0,0.0,0.0,0.0,0.0,0.0,0.0,0.0,0.0,0.0,0.0,0.0,0.0,0.0,0.0,0.0,0.0,0.0,0.0,0.0,0.0,0.0,0.0,0.0,0.0,0.0,0.0,0.0,0.0,0.0,0.0,0.0,0.0,0.0,0.0,0.0,0.0,0.0,0.0,0.0,0.0,0.0,0.0,0.0,0.0,0.0,0.0,0.0,0.0,0.0,0.0,0.0,0.0,0.0,0.0,0.0,0.0,0.0,0.0,0.0,0.0,0.0,0.0,0.0,0.0,0.0,0.0,0.0,0.0,0.0,0.0,0.0,0.0,0.0,0.0,0.0,0.0,0.0,0.0,0.0,0.0,0.0,0.0,0.0,0.0,0.0,0.0,0.0,0.0,0.0,0.0,0.0,0.0,0.0,0.0,0.0,0.0,0.0,-3.5742,-3.6054,-3.601,-3.5532,-3.5531,-3.5491,0.0,0.0,0.0,0.0,0.0,0.0,0.0,0.0,0.0,0.0,0.0,0.0,0.0,0.0,0.0,0.0,0.0,0.0,0.0,0.0,0.0,0.0,0.0,0.0,0.0,0.0,0.0,0.0,0.0,0.0,0.0,0.0,0.0,0.0,0.0,0.0,0.0,0.0,0.0,0.0,0.0,0.0,0.0,0.0,0.0,0.0,0.0,0.0,0.0,0.0,0.0,0.0,0.0,0.0,0.0,0.0,0.0,0.0,0.0,0.0,0.0,0.0,0.0,0.0,0.0,0.0,0.0,0.0,0.0,0.0,0.0,0.0,0.0,0.0,0.0,0.0,0.0,0.0,0.0,0.0,0.0,0.0,0.0,0.0,0.0,0.0,0.0,0.0,0.0,0.0,0.0,0.0,0.0,0.0,0.0,0.0,0.0,0.0,0.0,0.0,0.0,0.0,0.0,0.0,0.0,0.0,0.0,0.0,0.0,-3.5088,0.0,-3.6035,-3.5192,-3.5488,-3.5355,0.0,0.0,0.0,0.0,0.0,0.0,0.0,0.0,0.0,0.0,0.0,0.0,0.0,0.0,0.0,0.0,0.0,0.0,0.0,0.0,0.0,0.0,0.0,0.0,0.0,0.0,0.0,0.0,0.0,0.0,0.0,0.0,0.0,0.0,0.0,0.0,0.0,0.0,0.0,0.0,0.0,0.0,0.0,0.0,0.0,0.0,0.0,0.0,0.0,0.0,0.0,0.0,0.0,0.0,0.0,0.0,0.0,0.0,0.0,0.0,0.0,0.0,0.0,0.0,0.0,0.0,0.0,0.0,0.0,0.0,0.0,0.0,0.0,0.0,0.0,0.0,0.0,0.0,0.0,0.0,0.0,0.0,0.0,0.0,0.0,0.0,0.0,0.0,0.0,0.0,0.0,0.0,0.0,0.0,0.0,0.0,0.0,0.0,0.0,0.0,0.0,0.0,0.0,0.0,0.0,0.0,0.0,0.0,-3.477,-3.5896,-3.6485,-3.649,-3.5964,-3.5005,-3.4268,0.0,0.0,0.0,0.0,0.0,0.0,0.0,0.0,0.0,0.0,0.0,0.0,0.0,0.0,0.0,0.0,0.0,0.0,0.0,0.0,0.0,0.0,0.0,0.0,0.0,0.0,0.0,0.0,0.0,0.0,0.0,0.0,0.0,0.0,0.0,0.0,0.0,0.0,0.0,0.0,0.0,0.0,0.0,0.0,0.0,0.0,0.0,0.0,0.0,0.0,0.0,0.0,0.0,0.0,0.0,0.0,0.0,0.0,0.0,0.0,0.0,0.0,0.0,0.0,0.0,0.0,0.0,0.0,0.0,0.0,0.0,0.0,0.0,0.0,0.0,0.0,0.0,0.0,0.0,0.0,0.0,0.0,0.0,0.0,0.0,0.0,0.0,0.0,0.0,0.0,0.0,0.0,0.0,0.0,0.0,0.0,0.0,0.0,0.0,0.0,0.0,0.0,0.0,0.0,0.0,0.0,0.0,0.0,0.0,-3.4117,-3.5869,-3.6314,-3.5289,-3.5238,-3.5133,0.0,0.0,0.0,0.0,0.0,0.0,0.0,0.0,0.0,0.0,0.0,0.0,0.0,0.0,0.0,0.0,0.0,0.0,0.0,0.0,0.0,0.0,0.0,0.0,0.0,0.0,0.0,0.0,0.0,0.0,0.0,0.0,0.0,0.0,0.0,0.0,0.0,0.0,0.0,0.0,0.0,0.0,0.0,0.0,0.0,0.0,0.0,0.0,0.0,0.0,0.0,0.0,0.0,0.0,0.0,0.0,0.0,0.0,0.0,0.0,0.0,0.0,0.0,0.0,0.0,0.0,0.0,0.0,0.0,0.0,0.0,0.0,0.0,0.0,0.0,0.0,0.0,0.0,0.0,0.0,0.0,0.0,0.0,0.0,0.0,0.0,0.0,0.0,0.0,0.0,0.0,0.0,0.0,0.0,0.0,0.0,0.0,0.0,0.0,0.0,0.0,0.0,0.0,0.0,0.0,0.0,0.0,0.0,0.0,-3.3736,-3.5598,-3.6094,-3.496,-3.5272,-3.5103,-3.4396,0.0,0.0,0.0,0.0,0.0,0.0,0.0,0.0,0.0,0.0,0.0,0.0,0.0,0.0,0.0,0.0,0.0,0.0,0.0,0.0,0.0,0.0,0.0,0.0,0.0,0.0,0.0,0.0,0.0,0.0,0.0,0.0,0.0,0.0,0.0,0.0,0.0,0.0,0.0,0.0,0.0,0.0,0.0,0.0,0.0,0.0,0.0,0.0,0.0,0.0,0.0,0.0,0.0,0.0,0.0,0.0,0.0,0.0,0.0,0.0,0.0,0.0,0.0,0.0,0.0,0.0,0.0,0.0,0.0,0.0,0.0,0.0,0.0,0.0,0.0,0.0,0.0,0.0,0.0,0.0,0.0,0.0,0.0,0.0,0.0,0.0,0.0,0.0,0.0,0.0,0.0,0.0,0.0,0.0,0.0,0.0,0.0,0.0,0.0,0.0,0.0,0.0,0.0,0.0,0.0,0.0,0.0,0.0,-3.4393,-3.5717,-3.599,-3.5084,-3.5154,-3.4406,0.0,0.0,0.0,0.0,0.0,0.0,0.0,0.0,0.0,0.0,0.0,0.0,0.0,0.0,0.0,0.0,0.0,0.0,0.0,0.0,0.0,0.0,0.0,0.0,0.0,0.0,0.0,0.0,0.0,0.0,0.0,0.0,0.0,0.0,0.0,0.0,0.0,0.0,0.0,0.0,0.0,0.0,0.0,0.0,0.0,0.0,0.0,0.0,0.0,0.0,0.0,0.0,0.0,0.0,0.0,0.0,0.0,0.0,0.0,0.0,0.0,0.0,0.0,0.0,0.0,0.0,0.0,0.0,0.0,0.0,0.0,0.0,0.0,0.0,0.0,0.0,0.0,0.0,0.0,0.0,0.0,0.0,0.0,0.0,0.0,0.0,0.0,0.0,0.0,0.0,0.0,0.0,0.0,0.0,0.0,0.0,0.0,0.0,0.0,0.0,0.0,0.0,0.0,0.0,0.0,0.0,0.0,0.0,0.0,-3.5202,-3.609,-3.6292,-3.5682,-3.5243,-3.473,0.0,0.0,0.0,0.0,0.0,0.0,0.0,0.0,0.0,0.0,0.0,0.0,0.0,0.0,0.0,0.0,0.0,0.0,0.0,0.0,0.0,0.0,0.0,0.0,0.0,0.0,0.0,0.0,0.0,0.0,0.0,0.0,0.0,0.0,0.0,0.0,0.0,0.0,0.0,0.0,0.0,0.0,0.0,0.0,0.0,0.0,0.0,0.0,0.0,0.0,0.0,0.0,0.0,0.0,0.0,0.0,0.0,0.0,0.0,0.0,0.0,0.0,0.0,0.0,0.0,0.0,0.0,0.0,0.0,0.0,0.0,0.0,0.0,0.0,0.0,0.0,0.0,0.0,0.0,0.0,0.0,0.0,0.0,0.0,0.0,0.0,0.0,0.0,0.0,0.0,0.0,0.0,0.0,0.0,0.0,0.0,0.0,0.0,0.0,0.0,0.0,0.0,0.0,0.0,0.0,0.0,0.0,0.0,-3.5237,-3.5624,-3.6606,-3.6916,-3.6458,-3.5454,-3.464,0.0,0.0,0.0,0.0,0.0,0.0,0.0,0.0,0.0,0.0,0.0,0.0,0.0,0.0,0.0,0.0,0.0,0.0,0.0,0.0,0.0,0.0,0.0,0.0,0.0,0.0,0.0,0.0,0.0,0.0,0.0,0.0,0.0,0.0,0.0,0.0,0.0,0.0,0.0,0.0,0.0,0.0,0.0,0.0,0.0,0.0,0.0,0.0,0.0,0.0,0.0,0.0,0.0,0.0,0.0,0.0,0.0,0.0,0.0,0.0,0.0,0.0,0.0,0.0,0.0,0.0,0.0,0.0,0.0,0.0,0.0,0.0,0.0,0.0,0.0,0.0,0.0,0.0,0.0,0.0,0.0,0.0,0.0,0.0,0.0,0.0,0.0,0.0,0.0,0.0,0.0,0.0,0.0,0.0,0.0,0.0,0.0,0.0,0.0,0.0,0.0,0.0,0.0,0.0,0.0,0.0,0.0,0.0,-3.5838,-3.5965,-3.7228,-3.7685,-3.7173,-3.5611,-3.432,0.0,0.0,0.0,0.0,0.0,0.0,0.0,0.0,0.0,0.0,0.0,0.0,0.0,0.0,0.0,0.0,0.0,0.0,0.0,0.0,0.0,0.0,0.0,0.0,0.0,0.0,0.0,0.0,0.0,0.0,0.0,0.0,0.0,0.0,0.0,0.0,0.0,0.0,0.0,0.0,0.0,0.0,0.0,0.0,0.0,0.0,0.0,0.0,0.0,0.0,0.0,0.0,0.0,0.0,0.0,0.0,0.0,0.0,0.0,0.0,0.0,0.0,0.0,0.0,0.0,0.0,0.0,0.0,0.0,0.0,0.0,0.0,0.0,0.0,0.0,0.0,0.0,0.0,0.0,0.0,0.0,0.0,0.0,0.0,0.0,0.0,0.0,0.0,0.0,0.0,0.0,0.0,0.0,0.0,0.0,0.0,0.0,0.0,0.0,0.0,0.0,0.0,0.0,0.0,0.0,0.0,0.0,0.0,-3.6204,-3.6821,-3.7551,-3.7685,-3.7226,-3.5483,-3.4491,0.0,0.0,0.0,0.0,0.0,0.0,0.0,0.0,0.0,0.0,0.0,0.0,0.0,0.0,0.0,0.0,0.0,0.0,0.0,0.0,0.0,0.0,0.0,0.0,0.0,0.0,0.0,0.0,0.0,0.0,0.0,0.0,0.0,0.0,0.0,0.0,0.0,0.0,0.0,0.0,0.0,0.0,0.0,0.0,0.0,0.0,0.0,0.0,-3.718,0.0,0.0,0.0,0.0,0.0,0.0,0.0,0.0,0.0,0.0,0.0,0.0,0.0,0.0,0.0,0.0,0.0,0.0,0.0,0.0,0.0,0.0,0.0,0.0,0.0,0.0,0.0,0.0,0.0,0.0,0.0,0.0,0.0,0.0,0.0,0.0,0.0,0.0,0.0,0.0,0.0,0.0,0.0,0.0,0.0,0.0,0.0,0.0,0.0,0.0,0.0,0.0,0.0,0.0,0.0,0.0,0.0,0.0,0.0,-3.629,-3.7089,-3.7623,-3.7703,-3.7173,-3.5759,-3.4891,0.0,0.0,0.0,0.0,0.0,0.0,0.0,0.0,0.0,0.0,0.0,0.0,0.0,0.0,0.0,0.0,0.0,0.0,0.0,0.0,0.0,0.0,0.0,0.0,0.0,0.0,0.0,0.0,0.0,0.0,0.0,0.0,0.0,0.0,0.0,0.0,0.0,0.0,0.0,0.0,0.0,0.0,0.0,0.0,0.0,0.0,0.0,0.0,0.0,0.0,0.0,0.0,0.0,0.0,0.0,0.0,0.0,0.0,0.0,0.0,0.0,0.0,0.0,0.0,0.0,0.0,0.0,0.0,0.0,0.0,0.0,0.0,0.0,0.0,0.0,0.0,0.0,0.0,0.0,0.0,0.0,0.0,0.0,0.0,0.0,0.0,0.0,0.0,0.0,0.0,0.0,0.0,0.0,0.0,0.0,0.0,0.0,0.0,0.0,0.0,0.0,0.0,0.0,0.0,0.0,0.0,0.0,-3.5654,-3.6375,-3.7253,-3.7711,-3.7667,-3.7208,-3.618,-3.5387,-3.4889,0.0,0.0,0.0,0.0,0.0,0.0,0.0,0.0,0.0,0.0,0.0,0.0,0.0,0.0,0.0,0.0,0.0,0.0,0.0,0.0,0.0,0.0,0.0,0.0,0.0,0.0,0.0,0.0,0.0,0.0,0.0,0.0,0.0,0.0,0.0,0.0,0.0,0.0,-3.5487,-3.5345,0.0,0.0,0.0,0.0,0.0,0.0,0.0,0.0,-3.4034,0.0,0.0,0.0,0.0,0.0,0.0,0.0,0.0,0.0,0.0,0.0,0.0,0.0,0.0,0.0,0.0,0.0,0.0,0.0,0.0,0.0,0.0,0.0,0.0,0.0,0.0,0.0,0.0,0.0,0.0,0.0,0.0,0.0,0.0,0.0,0.0,0.0,0.0,0.0,0.0,0.0,0.0,0.0,0.0,0.0,0.0,0.0,0.0,0.0,0.0,0.0,0.0,0.0,0.0,0.0,0.0,-3.6001,-3.6087,-3.6754,-3.8164,-3.8047,-3.7721,-3.719,-3.6425,-3.5647,-3.4906,0.0,0.0,0.0,0.0,0.0,0.0,0.0,0.0,0.0,0.0,0.0,0.0,0.0,0.0,0.0,0.0,0.0,0.0,0.0,0.0,0.0,0.0,0.0,0.0,0.0,0.0,0.0,0.0,0.0,0.0,0.0,0.0,0.0,0.0,0.0,0.0,0.0,0.0,0.0,-3.4219,-3.3451,0.0,0.0,0.0,0.0,0.0,0.0,0.0,0.0,-3.2734,0.0,0.0,0.0,0.0,0.0,0.0,0.0,0.0,0.0,0.0,0.0,0.0,0.0,0.0,0.0,0.0,0.0,0.0,0.0,0.0,0.0,0.0,0.0,0.0,0.0,0.0,0.0,0.0,0.0,0.0,0.0,0.0,0.0,0.0,0.0,0.0,0.0,0.0,0.0,0.0,0.0,0.0,0.0,0.0,0.0,0.0,0.0,0.0,0.0,0.0,0.0,0.0,0.0,0.0,0.0,-3.0005,-3.4514,-3.7351,-3.8392,-3.8135,-3.7774,-3.7208,-3.6481,-3.572,0.0,0.0,0.0,0.0,0.0,0.0,0.0,0.0,0.0,0.0,0.0,0.0,0.0,0.0,0.0,0.0,0.0,0.0,0.0,0.0,0.0,0.0,0.0,0.0,0.0,0.0,0.0,0.0,0.0,0.0,0.0,0.0,0.0,0.0,0.0,0.0,0.0,0.0,0.0,0.0,-3.2982,-3.2331,-3.1875,0.0,0.0,0.0,0.0,0.0,0.0,-3.1294,-3.1205,0.0,0.0,0.0,0.0,0.0,0.0,0.0,0.0,0.0,0.0,0.0,0.0,0.0,0.0,0.0,0.0,0.0,0.0,0.0,0.0,0.0,0.0,0.0,0.0,0.0,0.0,0.0,0.0,0.0,0.0,0.0,0.0,0.0,0.0,0.0,0.0,0.0,0.0,0.0,0.0,0.0,0.0,0.0,0.0,0.0,0.0,0.0,0.0,0.0,0.0,0.0,0.0,0.0,0.0,0.0,-2.4343,-3.115,-3.5969,-3.8332,-3.8186,-3.7739,-3.7208,-3.6358,-3.5543,0.0,0.0,0.0,0.0,0.0,0.0,0.0,0.0,0.0,0.0,0.0,0.0,0.0,0.0,0.0,0.0,0.0,0.0,0.0,0.0,0.0,0.0,0.0,0.0,0.0,0.0,0.0,0.0,0.0,0.0,0.0,0.0,0.0,0.0,0.0,0.0,0.0,0.0,0.0,0.0,0.0,-3.0792,-2.9935,-2.9755,0.0,0.0,0.0,0.0,-2.9942,-2.975,0.0,0.0,0.0,0.0,0.0,0.0,0.0,0.0,0.0,0.0,0.0,0.0,0.0,0.0,0.0,0.0,0.0,0.0,0.0,0.0,0.0,0.0,0.0,0.0,0.0,0.0,0.0,0.0,0.0,0.0,0.0,0.0,0.0,0.0,0.0,0.0,0.0,0.0,0.0,0.0,0.0,0.0,0.0,0.0,0.0,0.0,0.0,0.0,0.0,0.0,0.0,0.0,0.0,0.0,0.0,0.0,-2.3849,-2.4963,-2.9517,-3.7981,-3.8234,-3.7809,-3.7208,-3.5792,-3.496,0.0,0.0,0.0,0.0,0.0,0.0,0.0,0.0,0.0,0.0,0.0,0.0,0.0,0.0,0.0,0.0,0.0,0.0,0.0,0.0,0.0,0.0,0.0,0.0,0.0,0.0,0.0,0.0,0.0,0.0,0.0,0.0,0.0,0.0,0.0,0.0,0.0,0.0,0.0,0.0,0.0,-2.8177,-2.7367,-2.7066,-2.7092,0.0,0.0,-2.7417,-2.8421,-2.8392,0.0,0.0,0.0,0.0,0.0,0.0,0.0,0.0,0.0,0.0,0.0,0.0,0.0,0.0,0.0,0.0,0.0,0.0,0.0,0.0,0.0,0.0,0.0,0.0,0.0,0.0,0.0,0.0,0.0,0.0,0.0,0.0,0.0,0.0,0.0,0.0,0.0,0.0,0.0,0.0,0.0,0.0,0.0,0.0,0.0,0.0,0.0,0.0,0.0,0.0,0.0,0.0,0.0,0.0,0.0,-0.2048,-0.9879,-1.9549,-2.6329,-2.9981,-3.4905,-3.6964,-3.5934,-3.4836,-3.4005,0.0,0.0,0.0,0.0,0.0,0.0,0.0,0.0,0.0,0.0,0.0,0.0,0.0,0.0,0.0,0.0,0.0,0.0,0.0,0.0,0.0,0.0,0.0,0.0,0.0,0.0,0.0,0.0,0.0,0.0,0.0,0.0,0.0,0.0,0.0,0.0,0.0,0.0,0.0,0.0,0.0,0.0,-2.5395,-2.4969,0.0,0.0,0.0,-2.5182,-2.6501,0.0,0.0,0.0,0.0,0.0,0.0,0.0,0.0,0.0,0.0,0.0,0.0,0.0,0.0,0.0,0.0,0.0,0.0,0.0,0.0,0.0,0.0,0.0,0.0,0.0,0.0,0.0,0.0,0.0,0.0,0.0,0.0,0.0,0.0,0.0,0.0,0.0,0.0,0.0,0.0,0.0,0.0,0.0,0.0,0.0,0.0,0.0,0.0,0.0,0.0,0.0,0.0,0.0,0.0,0.0,0.0,0.0,0.082,-1.3841,-2.2198,-2.3882,-3.2212,-3.6134,-3.4925,-3.4094,0.0,0.0,0.0,0.0,0.0,0.0,0.0,0.0,0.0,0.0,0.0,0.0,0.0,0.0,0.0,0.0,0.0,0.0,0.0,0.0,0.0,0.0,0.0,0.0,0.0,0.0,0.0,-3.3269,0.0,0.0,0.0,0.0,0.0,0.0,0.0,0.0,0.0,0.0,0.0,0.0,0.0,0.0,-2.4767,-2.3554,-2.3136,-2.3073,0.0,0.0,-2.3323,-2.4803,-2.5016,-2.538,0.0,0.0,0.0,0.0,0.0,0.0,0.0,0.0,0.0,0.0,0.0,0.0,0.0,0.0,0.0,0.0,0.0,0.0,0.0,0.0,0.0,0.0,0.0,0.0,0.0,0.0,0.0,0.0,0.0,0.0,0.0,0.0,0.0,0.0,0.0,0.0,0.0,0.0,0.0,0.0,0.0,0.0,0.0,0.0,0.0,0.0,0.0,0.0,0.0,0.0,0.0,0.0,0.0,0.0,0.936,0.0186,-0.7333,-1.547,-2.3994,-3.1865,-3.5576,-3.4889,-3.3809,-3.2804,0.0,0.0,0.0,0.0,0.0,0.0,0.0,0.0,0.0,0.0,0.0,0.0,0.0,0.0,0.0,0.0,0.0,0.0,0.0,0.0,0.0,0.0,0.0,0.0,0.0,0.0,0.0,0.0,0.0,0.0,0.0,0.0,0.0,0.0,0.0,0.0,0.0,0.0,0.0,0.0,0.0,-2.2563,-2.1787,-2.1624,-2.1983,0.0,-2.2253,-2.2242,-2.3441,-2.3661,-2.3963,-2.4707,0.0,0.0,0.0,0.0,0.0,0.0,0.0,0.0,0.0,0.0,0.0,0.0,0.0,0.0,0.0,0.0,0.0,0.0,0.0,0.0,0.0,0.0,0.0,0.0,0.0,0.0,0.0,0.0,0.0,0.0,0.0,0.0,0.0,0.0,0.0,0.0,0.0,0.0,0.0,0.0,0.0,0.0,0.0,0.0,0.0,0.0,0.0,0.0,0.0,0.0,0.0,0.0,0.0,1.1935,0.8128,-0.4402,-1.2235,-1.5344,-2.8149,-3.4614,-3.3592,-3.2845,-3.181,0.0,0.0,0.0,0.0,0.0,0.0,0.0,0.0,0.0,0.0,0.0,0.0,0.0,0.0,0.0,0.0,0.0,0.0,0.0,0.0,0.0,0.0,0.0,0.0,0.0,0.0,0.0,0.0,-2.8655,-2.7694,-2.5542,0.0,0.0,0.0,0.0,0.0,0.0,0.0,0.0,0.0,0.0,-2.1125,-2.0557,-2.0557,0.0,0.0,-2.0769,-2.0981,-2.2178,-2.2403,-2.2627,-2.3441,-2.3902,0.0,0.0,0.0,0.0,0.0,0.0,0.0,0.0,0.0,0.0,0.0,0.0,0.0,0.0,0.0,0.0,0.0,0.0,0.0,0.0,0.0,0.0,0.0,0.0,0.0,0.0,0.0,0.0,0.0,0.0,0.0,0.0,0.0,0.0,0.0,0.0,0.0,0.0,0.0,0.0,0.0,0.0,0.0,0.0,0.0,0.0,0.0,0.0,0.0,0.0,0.0,0.0,1.3084,1.2884,-0.2803,-1.0467,-0.9569,-2.5787,-3.384,-3.2752,-3.2283,-3.1289,0.0,0.0,0.0,0.0,0.0,0.0,0.0,0.0,0.0,0.0,0.0,0.0,0.0,0.0,0.0,0.0,0.0,0.0,0.0,0.0,0.0,0.0,0.0,0.0,0.0,0.0,0.0,0.0,-2.4786,-2.3405,-2.1286,0.0,0.0,0.0,0.0,0.0,0.0,0.0,0.0,0.0,0.0,-1.9395,-1.9618,-1.9539,-1.9618,-1.9863,-1.9863,-2.0089,-2.1058,-2.1211,-2.1593,-2.2627,0.0,0.0,0.0,0.0,0.0,0.0,0.0,0.0,0.0,0.0,0.0,0.0,0.0,0.0,0.0,0.0,0.0,0.0,0.0,0.0,0.0,0.0,0.0,0.0,0.0,0.0,0.0,0.0,0.0,0.0,0.6607,0.0,0.0,0.0,0.0,0.0,0.0,0.0,0.0,0.0,0.0,0.0,0.0,0.0,0.0,0.0,0.0,0.0,0.0,0.0,0.0,0.0,0.0,1.2831,1.2056,-0.2356,-0.9999,-1.0422,-2.5458,-3.316,-3.2734,-3.2386,-3.1513,-3.0116,0.0,0.0,0.0,0.0,0.0,0.0,0.0,0.0,0.0,0.0,0.0,0.0,0.0,0.0,0.0,0.0,0.0,0.0,0.0,0.0,0.0,0.0,0.0,0.0,0.0,0.0,-2.0739,-1.9449,-1.8743,0.0,0.0,0.0,0.0,0.0,0.0,0.0,0.0,0.0,0.0,-1.5782,-1.7309,-1.8789,-1.8895,-1.8984,-1.9784,-1.9706,-1.9724,-1.9942,-2.0177,-2.0857,0.0,0.0,0.0,0.0,0.0,0.0,0.0,0.0,0.0,0.0,0.0,0.0,0.0,0.0,0.0,0.0,0.0,0.0,0.0,0.0,0.0,0.0,0.0,0.0,0.0,0.0,0.0,-0.4762,-0.1041,0.0,0.0,0.0,0.0,0.0,0.0,0.0,0.0,0.0,0.0,0.0,0.969,0.9577,0.0,0.0,0.0,0.0,0.0,0.0,0.0,0.0,0.0,0.0,0.0,0.0,1.2018,1.1309,0.2355,-0.4993,-1.0166,-2.0234,-2.7879,-3.2574,-3.2403,-3.1566,-3.0279,0.0,0.0,0.0,0.0,0.0,0.0,0.0,0.0,0.0,0.0,0.0,0.0,0.0,0.0,0.0,0.0,0.0,0.0,0.0,0.0,0.0,0.0,0.0,0.0,0.0,-1.9396,0.0,0.0,0.0,0.0,0.0,0.0,0.0,0.0,0.0,0.0,0.0,-1.313,-1.3406,-1.4781,-1.6445,-1.8069,-1.8407,-1.8656,0.0,0.0,0.0,0.0,0.0,0.0,0.0,0.0,0.0,0.0,0.0,0.0,0.0,0.0,-2.5211,-2.5024,-2.486,-2.472,-2.4567,0.0,0.0,0.0,0.0,0.0,0.0,0.0,0.0,0.0,0.0,0.0,0.0,0.0,0.0,0.0796,0.0,1.0264,0.0,0.0,0.0,0.0,0.0,0.0,0.0,0.0,0.8901,0.8593,0.811,0.825,0.8359,0.0,0.8608,0.876,0.0,0.0,0.0,0.0,0.0,0.0,0.0,0.0,1.1416,1.1191,0.4741,-0.2368,-0.9898,-1.7566,-2.5077,-3.2307,-3.2127,-3.1396,-3.0484,-2.9788,-2.942,0.0,0.0,0.0,0.0,0.0,0.0,0.0,0.0,0.0,0.0,0.0,0.0,0.0,0.0,0.0,0.0,0.0,0.0,0.0,0.0,0.0,0.0,0.0,-1.6587,0.0,0.0,0.0,0.0,0.0,0.0,0.0,0.0,0.0,-0.8404,-0.931,-1.0575,-1.2265,-1.371,-1.5213,-1.7107,0.0,0.0,0.0,0.0,0.0,0.0,0.0,-2.0068,-2.1511,-2.2128,-2.2931,-2.4426,-2.5358,-2.587,-2.5881,0.0,0.0,-2.5116,-2.4748,-2.441,-2.4331,-2.3727,-2.2919,-2.2211,-2.2369,-2.2463,0.0,0.0,0.0,0.0,0.0,0.0,0.0,0.0,0.017,0.1269,0.0,0.9352,0.0,0.0,0.0,0.0,0.0,0.7214,0.0,0.0,0.7861,0.785,0.7275,0.7525,0.7781,0.811,0.7268,0.7191,0.7777,0.9332,0.0,0.0,0.0,0.0,0.0,0.0,1.1031,1.1292,0.5165,-0.1989,-0.962,-1.7149,-2.4702,-3.1969,-3.1617,-3.1055,-3.0699,-2.9749,-2.9377,-2.9696,-2.845,0.0,0.0,0.0,0.0,0.0,0.0,0.0,0.0,0.0,0.0,0.0,0.0,0.0,0.0,0.0,0.0,0.0,0.0,0.0,0.0,-1.4914,0.0,0.0,0.0,0.0,0.0,0.0,0.0,0.0,0.0,0.0,-0.7729,-0.8408,-0.9536,-1.1388,0.0,0.0,0.0,0.0,-1.7107,-1.8175,-1.8674,-1.9073,-1.9301,-1.9478,-2.0301,-2.2372,0.0,0.0,-2.62,-2.6071,-2.5796,-2.5773,-2.578,-2.5688,-2.5363,-2.435,-2.3479,-2.3317,-2.292,-2.2399,-2.206,-2.2625,-2.2925,0.4961,0.0,0.0,0.0,0.0,0.0997,0.2166,0.596,0.274,0.2897,0.5714,0.5951,0.0,0.0,0.0,0.0,0.0,0.0,0.5968,0.594,0.659,0.6939,0.7166,0.7425,0.7774,0.8123,0.7364,0.7118,0.7455,0.7858,0.8057,0.809,0.0,0.0,0.0,0.0,1.0975,1.1666,1.0481,0.3312,-0.984,-1.1916,-1.9089,-3.1934,-3.1579,-3.1032,-3.0708,-3.0002,-2.9399,-2.8877,-2.8722,0.0,0.0,0.0,0.0,0.0,0.0,0.0,0.0,0.0,0.0,0.0,0.0,0.0,0.0,0.0,0.0,0.0,0.0,0.0,-1.634,-1.5482,-1.4448,0.0,0.0,0.0,0.0,0.0,0.0,0.0,0.0,0.0,-0.9289,-1.0521,-1.139,0.0,0.0,-1.4223,-1.5394,-1.6378,-1.7277,-1.8175,-1.8816,0.0,-1.9469,-1.9469,-2.0039,-2.1998,-2.3864,-2.5385,-2.6381,-2.6645,-2.6795,-2.6783,-2.6259,-2.581,-2.5689,-2.5056,-2.4451,-2.4357,-2.3553,-2.2681,-2.2473,-2.2818,-2.3175,0.4865,0.4418,0.3501,0.2928,0.2372,0.1398,0.1946,0.3531,0.2737,0.2713,0.3255,0.3585,0.3396,0.2774,0.2956,0.0,0.0,0.0,0.5193,0.5552,0.6077,0.652,0.6786,0.7051,0.7316,0.7401,0.654,0.6387,0.6826,0.6392,0.6505,0.733,0.0,0.0,0.957,0.9996,1.0791,1.1884,1.2666,0.5599,-0.9614,-1.5603,-2.3011,-3.1812,-3.1711,-3.1134,-3.0692,-3.007,-2.938,-2.8682,-2.8356,-2.7829,0.0,0.0,0.0,0.0,0.0,0.0,0.0,0.0,0.0,0.0,0.0,-2.2802,-2.138,0.0,0.0,0.0,-1.8337,-1.6655,-1.5265,-1.4714,0.0,0.0,0.0,0.0,0.0,0.0,0.0,-1.0475,-1.0402,-1.0376,-1.0213,-1.1516,-1.2357,-1.1843,-1.2784,-1.3971,-1.4977,0.0,-1.7041,-1.7844,-1.8656,-1.9222,-1.9469,-1.939,-1.997,-2.1927,-2.4128,-2.5707,-2.6106,-2.6439,-2.6622,-2.6542,-2.606,-2.548,-2.5317,-2.473,-2.4294,-2.4436,-2.3574,-2.2784,-2.2849,-2.3236,-2.3619,0.5958,0.5349,0.3376,0.2058,0.1332,0.0934,0.1029,0.1519,0.121,0.1293,0.1475,0.2169,0.2061,0.1436,0.1794,0.0,0.3578,0.4117,0.4748,0.5644,0.6077,0.634,0.6428,0.6599,0.6596,0.641,0.5145,0.5087,0.6087,0.5092,0.5315,0.678,0.7633,0.8524,0.941,0.9741,1.0545,1.187,1.2573,0.5495,-0.9463,-2.4729,-3.2537,-3.2317,-3.1858,-3.1312,-3.0733,-3.0027,-2.9393,-2.8889,-2.7622,-2.6628,-2.6067,0.0,0.0,0.0,0.0,0.0,0.0,0.0,0.0,0.0,0.0,0.0,0.0,0.0,0.0,0.0,-1.6867,0.0,-1.465,-1.3438,0.0,0.0,0.0,-1.2215,-1.1878,-1.1682,-1.1106,-0.9902,0.0,0.0,-1.0658,-1.1872,-1.2534,-1.21,-1.2443,-1.3215,-1.4482,-1.556,-1.655,-1.7359,-1.8264,-1.9002,-1.9301,-1.946,-2.0282,-2.2179,-2.4238,-2.5558,-2.5727,-2.575,-2.5727,-2.5773,-2.5317,-2.4915,-2.45,-2.3769,-2.3258,-2.3634,-2.3133,-2.2685,-2.314,-2.3745,-2.407,0.546,0.5161,0.4475,0.364,0.266,0.1502,0.1305,0.1672,0.1459,0.1265,0.1264,0.1708,0.1883,0.1705,0.2511,0.3048,0.3315,0.403,0.4565,0.5191,0.5277,0.5722,0.6337,0.5717,0.5757,0.618,0.4862,0.4772,0.5674,0.5502,0.583,0.6629,0.7647,0.8379,0.8816,0.9357,1.0367,1.1864,1.2366,0.5356,-0.9555,-2.503,-3.2876,-3.2521,-3.193,-3.1334,-3.0821,-3.0225,-2.9572,-2.8951,-2.8165,-2.7355,-2.6437,-2.536,0.0,0.0,0.0,0.0,0.0,0.0,0.0,0.0,0.0,-2.0664,-1.922,0.0,-1.8733,0.0,-1.7424,-1.662,-1.5842,-1.5219,0.0,0.0,-1.3966,-1.3546,-1.3327,-1.3292,-1.2952,-1.1964,-1.2451,-1.2608,-1.2014,-1.2492,-1.2875,-1.2619,-1.3052,-1.3561,-1.3984,-1.5068,-1.6221,-1.7277,-1.8006,-1.8656,-1.9301,-2.0372,-2.145,-2.2377,-2.3941,-2.5233,-2.5635,-2.5716,-2.5716,-2.5638,-2.5305,-2.4893,-2.4467,-2.3785,-2.3286,-2.3104,-2.2991,-2.291,-2.289,-2.3641,-2.4379,0.5911,0.5901,0.5322,0.4943,0.453,0.2944,0.2198,0.2276,0.2163,0.1973,0.1972,0.2419,0.2598,0.2598,0.3135,0.3583,0.403,0.4387,0.5008,0.563,0.563,0.5957,0.643,0.5659,0.5424,0.5537,0.4592,0.4512,0.5103,0.5445,0.6051,0.6893,0.7893,0.8543,0.8883,0.9398,1.0382,1.1755,0.5517,-0.1613,-0.9869,-2.5212,-3.3142,-3.2639,-3.2144,-3.16,-3.0902,-3.0435,-2.9837,-2.9028,-2.8122,-2.7315,-2.6587,-2.5154,-2.4272,0.0,0.0,0.0,0.0,0.0,0.0,0.0,0.0,0.0,0.0,0.0,-1.8187,-1.7304,-1.6885,-1.6371,-1.5583,-1.5268,-1.5035,-1.4739,-1.4481,-1.4212,-1.4063,-1.4056,-1.3675,-1.2912,-1.3043,-1.2973,-1.2369,-1.2711,-1.2954,-1.2705,-1.3392,-1.3977,-1.4307,-1.5394,-1.6706,-1.7764,-1.8416,-1.8904,-1.939,-2.0769,-2.1915,-2.2373,-2.3599,-2.4694,-2.4981,-2.5027,-2.5038,-2.5027,-2.4801,-2.4475,-2.3864,-2.3401,-2.2945,-2.2474,-2.271,-2.3086,-2.3098,-2.3777,-2.4346,0.6794,0.6878,0.6031,0.5985,0.6343,0.4743,0.3673,0.3224,0.3138,0.3138,0.3135,0.3491,0.3667,0.3667,0.3758,0.4295,0.501,0.5097,0.5622,0.6404,0.6404,0.6421,0.6465,0.5758,0.5183,0.467,0.4405,0.4359,0.4598,0.5367,0.6234,0.7149,0.8161,0.882,0.9134,0.9649,1.0571,1.1531,-0.2832,-1.017,-1.0069,-2.5412,-3.3309,-3.2687,-3.2438,-3.193,-3.1117,-3.0723,-3.0123,-2.9196,-2.7922,-2.7063,-2.6715,-2.5199,-2.4282,0.0,-2.3173,0.0,0.0,0.0,0.0,0.0,0.0,0.0,0.0,-1.8397,-1.7662,-1.6496,-1.5866,-1.531,-1.4732,-1.4575,-1.4497,-1.4342,-1.4441,-1.455,-1.4412,-1.4179,-1.3737,-1.3137,-1.2966,-1.2717,-1.2123,-1.2625,-1.3045,-1.2869,-1.3795,-1.4713,-1.5357,-1.6281,-1.7277,-1.8496,-1.9063,-1.9381,-1.9706,-2.0847,-2.1918,-2.222,-2.3309,-2.4189,-2.4319,-2.4246,-2.4223,-2.4223,-2.4269,-2.4016,-2.3224,-2.2948,-2.2574,-2.2022,-2.2778,-2.3486,-2.3547,-2.3958,-2.4443,0.692,0.7091,0.6887,0.6871,0.6877,0.6438,0.5722,0.4914,0.4554,0.4378,0.4383,0.4208,0.4119,0.4208,0.4835,0.5191,0.5371,0.5719,0.6104,0.6439,0.6353,0.6108,0.5811,0.4884,0.4424,0.4401,0.4066,0.4256,0.4959,0.5951,0.6572,0.6974,0.7791,0.8378,0.8851,0.0,0.0,0.0,-0.2899,-1.0475,-1.0689,-2.5551,-3.3455,-3.3019,-3.2537,0.0,-3.1487,-3.1004,-3.0435,-2.9705,-2.8948,0.0,0.0,0.0,0.0,0.0,0.0,0.0,0.0,0.0,0.0,0.0,-1.9088,-1.8689,-1.8258,-1.742,-1.6554,-1.5755,-1.5443,-1.5161,-1.4703,-1.4641,-1.4662,-1.4615,-1.4469,-1.435,-1.4173,-1.3795,-1.3269,-1.2619,-1.2516,-1.2351,-1.1952,-1.2802,-1.33,-1.3087,-1.4636,-1.6265,-1.7307,-1.6968,-1.7115,-1.8416,-1.924,-1.9627,-1.9784,-2.1078,-2.2134,-2.2446,-2.3361,-2.4189,-2.4418,-2.4345,-2.4189,-2.4189,-2.4189,-2.4043,-2.3519,-2.3446,-2.3224,-2.2852,-2.3644,-2.425,-2.3557,-2.4296,-2.5146,0.7499,0.0,0.7584,0.7584,0.0,0.7411,0.7054,0.6517,0.5622,0.5179,0.5186,0.5275,0.5364,0.5364,0.5662,0.59,0.6159,0.6193,0.6466,0.6891,0.6729,0.6569,0.6495,0.5453,0.4988,0.5086,0.4643,0.4693,0.5312,0.6247,0.6973,0.7346,0.8353,0.8959,0.9304,1.045,1.1563,1.2518,0.1213,-0.6289,-1.0101,-2.1549,-2.9423,-3.2719,0.0,0.0,0.0,0.0,0.0,0.0,0.0,0.0,0.0,0.0,0.0,-2.4079,-2.3185,-2.2359,-2.1572,-2.1108,-2.0477,-1.9717,-1.877,-1.7991,-1.7661,-1.6715,-1.5934,-1.5635,-1.5242,-1.4807,-1.4629,-1.465,-1.4573,-1.4412,-1.4153,-1.3899,-1.3476,-1.2917,-1.2395,-1.2095,-1.1752,-1.1408,-1.1429,-1.2528,-1.3701,-1.4538,-1.6075,-1.8013,-1.979,-1.9081,-1.8574,-1.9757,-1.9998,-2.0255,-2.0702,-2.1603,-2.2585,-2.2968,-2.3863,-2.455,-2.4646,-2.4622,-2.4539,-2.4406,-2.4345,-2.4189,-2.374,-2.3593,-2.3582,-2.3486,-2.4059,-2.4719,-2.4432,-2.5158,-2.5734,0.8204,0.8116,0.8288,0.8288,0.8116,0.812,0.8028,0.794,0.0,0.0,0.0,0.6428,0.6605,0.6596,0.6496,0.6691,0.6994,0.6826,0.6997,0.7394,0.7339,0.7331,0.7375,0.6507,0.6044,0.6005,0.5538,0.5467,0.578,0.663,0.7322,0.7936,0.9008,0.969,1.0143,1.1335,1.2224,1.2503,0.5452,-0.2031,-0.9361,-1.7501,-2.5232,-3.2559,-3.2912,-3.2702,-3.2073,-3.1785,-3.124,-3.036,-2.9151,-2.8275,-2.7807,-2.6155,-2.4913,-2.4399,-2.3471,-2.2604,-2.1835,-2.1341,-2.0676,-1.98,-1.8413,-1.7404,-1.6946,-1.6149,-1.565,-1.5484,-1.4985,-1.4566,-1.4398,-1.4489,-1.4412,-1.3997,-1.3737,-1.33,-1.2619,-1.1804,-1.137,-1.1322,-1.0544,-1.0014,-1.0163,-1.1989,-1.3906,-1.5915,-1.7921,-2.0049,-2.2555,-2.1668,-2.0545,-2.1386,-2.1476,-2.1364,-2.1886,-2.2691,-2.3379,-2.3998,-2.4647,-2.5099,-2.4992,-2.5052,-2.4897,-2.4634,-2.4574,-2.4345,-2.3959,-2.3824,-2.3813,-2.3913,-2.4492,-2.5063,-2.5557,-2.6139,-2.6358,0.8823,0.8823,0.8995,0.9087,0.9087,0.8823,0.8644,0.8464,0.7848,0.7588,0.7588,0.7404,0.7309,0.7309,0.7471,0.7563,0.7428,0.8058,0.8139,0.7948,0.8154,0.7973,0.7504,0.7346,0.6949,0.6465,0.6535,0.6546,0.656,0.7096,0.7714,0.8322,0.8851,0.9679,1.0887,1.1484,1.215,1.2698,0.5387,-0.209,-0.9575,-1.7553,-2.5288,-3.246,-3.3055,-3.2912,-3.2539,-3.2073,-3.1637,-3.1123,-3.0402,-2.9544,-2.8513,-2.7435,-2.6256,-2.4896,-2.3728,-2.2811,-2.2135,-2.1554,-2.0586,-1.926,-1.8098,-1.709,-1.6316,-1.5951,-1.5401,-1.4643,-1.4475,-1.4314,-1.4166,-1.4166,-1.3913,-1.3483,-1.3052,-1.2534,-1.1843,-1.0778,-1.0082,-1.0265,-0.8715,-0.7355,-0.7422,-1.1139,-1.4128,-1.5335,-1.9675,-2.4054,-2.4939,-2.3824,-2.2542,-2.2692,-2.3073,-2.3312,-2.3609,-2.4459,-2.4955,-2.5426,-2.5636,-2.5718,-2.5533,-2.5429,-2.5241,-2.4849,-2.4861,-2.4718,-2.4646,-2.4502,-2.4478,-2.4527,-2.5229,-2.5849,-2.6171,-2.6947,-2.731,1.0284,0.9859,1.012,1.012,0.9946,0.9859,0.9772,0.968,0.9419,0.8986,0.8285,0.8364,0.8309,0.8213,0.8462,0.8572,0.8466,0.8577,0.8677,0.8676,0.8727,0.8761,0.8765,0.8533,0.8452,0.8295,0.7914,0.7693,0.771,0.7791,0.8093,0.878,0.9453,1.0357,1.1409,1.1855,1.2225,1.2562,0.9576,0.2248,-0.9435,-1.3252,-2.0877,-3.2696,-3.3268,-3.3165,-3.2816,-3.2488,-3.2091,-3.1677,-3.0993,-3.0269,-2.9488,-2.8324,-2.7041,-2.5765,-2.4757,-2.3657,-2.2494,-2.0869,-1.9094,-1.7138,-1.6498,-1.5538,-1.4112,-1.472,-1.4817,-1.4062,-1.3899,-1.373,-1.3398,-1.3137,-1.2875,-1.2619,-1.1832,-1.0966,-1.025,-0.8905,-0.7897,-0.7468,-0.6002,-0.4498,-0.3547,-0.9218,-1.378,-1.5027,-2.1509,-2.6748,-2.7037,-2.5873,-2.4828,-2.4929,-2.4646,-2.456,-2.4893,-2.5257,-2.5608,-2.5752,-2.6242,-2.6422,-2.6232,-2.6138,-2.6171,-2.5861,-2.5606,-2.5348,-2.5277,-2.5052,-2.5241,-2.5906,-2.6239,-2.6786,-2.7537,-2.8078,-2.8026,1.2066,1.1225,1.1402,1.1322,1.0895,1.089,1.089,1.089,1.0895,1.026,0.9352,0.9347,0.9348,0.9105,0.9403,0.9441,0.9375,0.9195,0.9255,0.9497,0.9426,0.9665,1.0126,0.9906,0.99,1.0121,0.9437,0.9069,0.9074,0.878,0.8827,0.9311,1.0129,1.0923,1.1528,1.1886,1.2141,1.2361,1.3006,0.6666,-0.6656,-0.8655,-1.6213,-2.9181,-3.2288,-3.3132,-3.2816,-3.2759,-3.2537,-3.2162,-3.1514,-3.0943,-3.0385,-2.9173,-2.7975,-2.6865,-2.6005,-2.494,-2.3454,-2.0489,-1.7933,-1.5859,-1.4626,-1.338,-1.1803,-1.2822,-1.358,-1.319,-1.2966,-1.2699,-1.2254,-1.1855,-1.1492,-1.1048,-0.9966,-0.8978,-0.8201,-0.66,-0.5249,-0.4582,-0.3079,-0.1478,-0.1774,-0.7513,-1.4388,-1.9368,-2.5185,-2.8997,-2.8455,-2.7771,-2.7358,-2.7057,-2.6259,-2.5819,-2.6141,-2.633,-2.6411,-2.6384,-2.6897,-2.7015,-2.6821,-2.6985,-2.7039,-2.6801,-2.6502,-2.6319,-2.6146,-2.6057,-2.6296,-2.7031,-2.7352,-2.7841,-2.9044,-2.9359,-2.8917,1.3891,1.3153,1.3074,1.2583,1.1923,1.1843,1.1843,1.1843,1.1843,1.1714,1.1193,1.0506,1.0149,1.0114,1.0152,1.0162,1.0099,1.0285,1.039,1.0374,1.034,1.0565,1.0956,1.1111,1.1105,1.1037,1.0956,1.064,1.0248,1.0034,0.9952,1.0059,1.0611,1.0926,1.107,1.1316,1.1703,1.2025,1.2599,0.8851,0.0753,-0.5731,-1.299,-2.1316,-2.878,-3.2502,-3.226,-3.2769,-3.2912,-3.2619,-3.2213,-3.1699,-3.097,-3.0278,-2.9376,-2.8216,-2.7429,-2.6704,-2.5655,-2.1344,-1.7986,-1.6949,-1.3023,-1.0396,-0.9131,-1.0055,-1.109,-1.1171,-1.1386,-1.1187,-1.0859,-1.0503,-0.9704,-0.8324,-0.7545,-0.6698,-0.5457,-0.3764,-0.2755,-0.2916,-0.0497,0.1413,0.1455,-0.647,-1.7296,-2.5688,-2.9093,-3.0943,-3.0072,-2.9477,-2.9072,-2.8866,-2.8151,-2.7529,-2.7558,-2.7924,-2.7982,-2.8068,-2.7924,-2.7661,-2.7395,-2.7166,-2.7047,-2.7444,-2.7233,-2.7216,-2.7458,-2.763,-2.7525,-2.787,-2.8243,-2.8752,-2.9983,-3.0453,-3.0036,1.598,1.5231,1.5231,1.4657,1.3762,1.3118,1.279,1.2778,1.271,1.2498,1.2359,1.1664,1.1204,1.0958,1.1174,1.1224,1.1129,1.1193,1.1289,1.1409,1.1409,1.1558,1.2009,1.2077,1.215,1.2083,1.1403,1.0953,1.0718,1.022,0.9884,0.9936,1.049,1.0855,1.1018,1.1361,1.1682,1.1916,1.2307,1.0907,0.7411,0.0875,-0.8575,-1.9656,-2.4017,-2.7717,-3.1166,-3.1818,-3.182,-3.1643,-3.1302,-3.119,-3.122,-3.0612,-3.0157,-2.9747,-2.8627,-2.58,-2.0921,-1.8287,-1.4654,-0.9552,-0.8086,-0.688,-0.5858,-0.6194,-0.6499,-0.6602,-0.7995,-0.8769,-0.7835,-0.7439,-0.6732,-0.5544,-0.4677,-0.3741,-0.2657,-0.1069,0.0082,0.0975,0.2497,0.4388,0.4783,-0.3551,-1.4212,-2.3179,-2.7899,-3.0786,-3.0392,-2.9864,-2.9495,-2.935,-2.8958,-2.8671,-2.8547,-2.8701,-2.8799,-2.8646,-2.854,-2.8405,-2.8108,-2.7968,-2.7937,-2.8032,-2.7841,-2.7823,-2.7977,-2.8056,-2.8056,-2.8592,-2.9402,-2.9967,-3.0522,-3.07,-3.0328,1.7811,1.7139,1.6895,1.616,1.5184,1.4461,1.3924,1.3593,1.3398,1.3215,1.3033,1.2622,1.2247,1.1872,1.2024,1.2054,1.1948,1.1929,1.2077,1.2224,1.2224,1.2372,1.268,1.2746,1.282,1.2732,1.1844,1.1155,1.0972,1.0429,1.002,0.9961,1.0361,1.0721,1.0994,1.1323,1.1546,1.1668,1.204,1.2175,1.1095,0.525,-0.4513,-1.6545,-2.1532,-2.588,-3.0626,-3.1081,-3.1084,-3.0984,-3.0743,-3.0773,-3.1124,-3.069,-3.0543,-3.0768,-2.9973,-2.706,-2.1345,-1.7698,-1.3036,-0.7341,-0.492,-0.2905,-0.2356,-0.2442,-0.2361,-0.1954,-0.3572,-0.4394,-0.4474,-0.4049,-0.3376,-0.2385,-0.1559,-0.0653,0.0649,0.1926,0.334,0.4666,0.3427,0.2101,0.0135,-0.7612,-1.6133,-2.2956,-2.7561,-3.0377,-3.0318,-2.9919,-2.9504,-2.9625,-2.968,-2.952,-2.928,-2.9218,-2.915,-2.9013,-2.8993,-2.8947,-2.8797,-2.8719,-2.8818,-2.8806,-2.8462,-2.8653,-2.9243,-2.9169,-2.9044,-2.9955,-3.066,-3.1117,-3.1405,-3.1261,-3.123,1.9283,1.8479,1.7658,1.6846,1.5951,1.5854,1.5211,1.4246,1.4184,1.387,1.332,1.321,1.3037,1.2721,1.2277,1.2244,1.2526,1.2526,1.2599,1.2826,1.2826,1.29,1.29,1.3046,1.3112,1.2997,1.2435,1.1807,1.0981,1.1005,1.0814,1.0232,1.0486,1.0679,1.0681,1.0973,1.1234,1.143,1.1862,1.2088,1.1319,0.5546,-0.1597,-0.9871,-2.2258,-2.9198,-3.032,-3.0906,-3.1195,-3.1154,-3.1002,-3.0921,-3.0751,-3.0529,-3.0637,-3.1012,-3.114,-3.1359,-2.9524,-2.024,-1.3625,-1.2436,-0.3734,0.1554,0.1332,0.0548,0.047,0.1483,0.1563,0.0951,-0.049,-0.073,-0.008,0.1206,0.1581,0.2579,0.4428,0.5295,0.6645,0.6406,0.1966,-0.4941,-1.6924,-2.0558,-2.2634,-2.7137,-3.0153,-3.0675,-3.0559,-3.0161,-2.9985,-3.0203,-3.0327,-3.0251,-2.9729,-2.9766,-2.9705,-2.9589,-2.9563,-2.9354,-2.9261,-2.9232,-2.9454,-2.9641,-2.9508,-2.9772,-3.0604,-3.0958,-3.1007,-3.1443,-3.1802,-3.2193,-3.1961,-3.2403,-3.232,2.0498,2.001,1.8948,1.8292,1.7794,1.6926,1.5966,1.5115,1.4628,1.4026,1.3341,1.3152,1.3072,1.3046,1.2893,1.2753,1.282,1.282,1.29,1.3119,1.3193,1.3346,1.347,1.3438,1.3359,1.3208,1.2438,1.1628,1.0868,1.0699,1.0562,1.0419,1.0322,1.0335,1.0638,1.094,1.1185,1.131,1.1622,1.1879,1.1333,0.5372,-0.1451,-0.832,-1.7744,-2.5014,-2.937,-2.9784,-2.9885,-2.9807,-2.9807,-2.9978,-3.0293,-3.0677,-3.0974,-3.0787,-2.7629,-2.3819,-1.9276,-1.1815,-0.5098,-0.1087,0.1912,0.3876,0.3812,0.3498,0.3418,0.3805,0.4737,0.4787,0.4344,0.3315,0.3217,0.4618,0.4977,0.5631,0.7403,0.809,0.7068,0.2783,-0.3124,-0.9367,-1.4377,-1.7932,-2.1263,-2.3837,-2.7859,-3.0401,-3.0773,-3.0485,-3.0311,-3.0584,-3.0697,-3.0784,-3.0707,-3.0683,-3.0666,-3.0518,-3.0426,-3.0189,-3.0027,-2.9677,-2.9758,-2.9897,-2.9977,-3.0177,-3.0745,-3.1321,-3.1592,-3.1992,-3.2398,-3.2539,-3.2307,-3.2578,-3.2586,2.1128,2.0876,2.0082,1.9472,1.8948,1.7768,1.6765,1.5947,1.5189,1.4477,1.3837,1.3352,1.3273,1.3273,1.3273,1.3273,1.32,1.3193,1.3266,1.347,1.3526,1.3561,1.3645,1.3422,1.3323,1.313,1.2393,1.1608,1.1088,1.0953,1.0863,1.0744,1.0555,1.0555,1.0688,1.0933,1.1185,1.131,1.1553,1.093,0.8305,0.1924,-0.4956,-1.1686,-1.8577,-2.4261,-2.9001,-2.9175,-2.9134,-2.9067,-2.9067,-2.9301,-2.9777,-3.0241,-3.0636,-3.0425,-2.721,-2.3026,-1.8397,-1.2264,-0.6094,0.0202,0.2353,0.3544,0.5245,0.569,0.4749,0.3343,0.3138,0.3399,0.083,-0.0752,0.0139,0.3175,0.5871,0.7017,0.6825,0.8905,0.5691,-0.2091,-0.9336,-1.3799,-1.693,-2.1125,-2.357,-2.3615,-2.814,-3.068,-3.0871,-3.0797,-3.0781,-3.0982,-3.124,-3.1414,-3.1449,-3.147,-3.1201,-3.1044,-3.0918,-3.0781,-3.0658,-3.0267,-3.0097,-3.0182,-3.0267,-3.0435,-3.0868,-3.1473,-3.1914,-3.2299,-3.2595,-3.2824,-3.2664,-3.2592,-3.2716,2.1195,2.1115,2.0647,1.9977,1.9212,1.8666,1.7834,1.6771,1.6083,1.5429,1.4689,1.4145,1.3783,1.3564,1.3564,1.3637,1.3673,1.373,1.3803,1.3917,1.3666,1.3522,1.3476,1.3218,1.3009,1.2825,1.2491,1.2081,1.1622,1.1911,1.1849,1.1428,1.1303,1.1115,1.0807,1.0996,1.1185,1.1303,1.1622,0.8883,0.2038,-0.285,-0.9176,-1.7089,-2.3606,-2.7465,-2.9111,-2.9197,-2.9175,-2.9197,-2.9152,-2.9108,-2.9181,-2.9223,-2.9485,-3.0107,-2.9871,-3.0073,-2.9057,-2.2067,-1.4261,-0.8473,-0.4332,0.2129,0.6125,0.6958,0.4743,0.0408,-0.1115,-0.3494,-0.8509,-0.898,-0.7047,-0.3595,0.3722,0.5627,0.4292,0.7185,0.6757,-0.6196,-1.5135,-2.3054,-2.8791,-2.999,-2.9749,-2.9899,-3.0503,-3.0912,-3.0912,-3.0958,-3.124,-3.1545,-3.1677,-3.1804,-3.2002,-3.2161,-3.1748,-3.1449,-3.1274,-3.1134,-3.1134,-3.0861,-3.0781,-3.0821,-3.0908,-3.1106,-3.1754,-3.235,-3.2666,-3.3006,-3.3117,-3.3117,-3.3068,-3.3019,-3.3129,2.1043,2.0917,2.0406,1.9985,1.9561,1.9157,1.8518,1.7654,1.7104,1.6202,1.5204,1.4848,1.4489,1.3985,1.392,1.3856,1.3792,1.3784,1.3784,1.3683,1.3661,1.3554,1.333,1.3154,1.2891,1.2672,1.2569,1.2552,1.2474,1.2343,1.2112,1.1794,1.149,1.1178,1.0807,1.0996,1.1185,1.1303,1.156,1.0451,0.8646,0.6591,0.0,-1.0587,-1.3945,-1.9061,-2.8562,-2.9344,-2.9302,-2.928,-2.924,-2.9218,-2.9175,-2.9134,-2.9285,-2.9067,-2.5446,-2.1052,-1.6965,-1.1652,-0.5894,0.0124,0.3349,0.5183,0.7049,0.7252,0.6076,0.3858,0.4486,0.3551,0.2594,0.2302,0.0184,-0.0786,0.1589,0.5776,0.7242,0.2475,-0.3623,-0.905,-2.0183,-2.8481,-3.0819,-3.1521,-3.1462,-3.1312,-3.1117,-3.0952,-3.0935,-3.1117,-3.1218,-3.1317,-3.164,-3.2056,-3.2109,-3.2161,-3.1984,-3.1691,-3.1559,-3.1462,-3.1423,-3.1483,-3.1445,-3.1542,-3.162,-3.1914,-3.2601,-3.3001,-3.328,-3.3433,-3.3433,-3.3415,-3.3444,-3.3473,-3.3491,2.0793,2.0585,2.0155,1.989,1.9788,1.9361,1.8942,1.8399,1.7871,1.6922,1.5886,1.5401,1.4767,1.404,1.3874,1.3753,1.3599,1.3637,1.3514,1.3421,1.3466,1.34,1.3247,1.3124,1.2978,1.2792,1.2736,1.285,1.2972,1.2597,1.2166,1.1794,1.149,1.1178,1.087,1.0996,1.1185,1.1303,1.149,1.0404,0.8445,0.8038,0.2762,-0.7233,-1.1038,-1.6756,-2.5155,-2.7838,-2.9386,-2.9344,-2.9344,-2.9304,-2.9283,-2.9283,-2.9283,-2.8511,-2.5893,-2.1941,-1.7399,-1.3323,-0.5681,-0.0239,0.29,0.5332,0.6395,0.6168,0.352,0.0814,-0.2289,-0.368,-0.6091,-0.625,-0.6587,-0.6699,0.0707,0.6841,1.0651,0.024,-0.7729,-1.1792,-2.206,-2.9743,-3.1671,-3.1559,-3.1479,-3.1368,-3.1173,-3.0992,-3.1015,-3.1274,-3.1334,-3.1528,-3.2003,-3.2197,-3.2144,-3.2126,-3.2108,-3.1929,-3.1763,-3.1688,-3.1634,-3.1802,-3.1858,-3.2144,-3.2299,-3.2517,-3.3093,-3.3273,-3.3465,-3.3569,-3.3661,-3.3615,-3.3587,-3.3615,-3.3643,2.0389,2.0338,1.9903,1.9727,1.9675,1.9282,1.8993,1.8885,1.825,1.7335,1.6428,1.5677,1.4755,1.3762,1.3638,1.3492,1.3289,1.331,1.3204,1.3115,1.3108,1.3084,1.302,1.3008,1.2985,1.2997,1.3025,1.3078,1.3147,1.2765,1.2205,1.1725,1.1608,1.1296,1.0989,1.1003,1.1185,1.1373,1.1498,0.8646,0.3547,0.2853,-0.0501,-0.741,-1.357,-1.7947,-2.057,-2.6009,-2.9407,-2.9386,-2.9386,-2.9386,-2.9386,-2.9388,-2.9386,-2.9368,-2.933,-2.8099,-2.712,-2.1256,-1.5684,-0.9376,-0.4495,0.0119,0.3441,0.0366,-0.3934,-0.8891,-1.307,-1.889,-2.316,-2.236,-1.96,-1.5478,-0.1036,0.8222,1.0803,-0.138,-0.928,-1.2448,-2.2119,-3.1765,-3.1694,-3.1614,-3.1517,-3.144,-3.123,-3.1055,-3.1157,-3.1449,-3.1731,-3.2056,-3.2369,-3.2454,-3.2386,-3.2318,-3.2301,-3.2266,-3.2091,-3.2001,-3.1948,-3.2091,-3.2351,-3.2666,-3.289,-3.3154,-3.3379,-3.3522,-3.3606,-3.3671,-3.3698,-3.3698,-3.3726,-3.3753,-3.3815,2.0083,2.0031,1.9505,1.9318,1.9241,1.9173,1.8798,1.8307,1.8094,1.7316,1.6105,1.5515,1.4794,1.3955,1.3687,1.3412,1.3233,1.3162,1.2972,1.2742,1.2765,1.2765,1.2765,1.2956,1.3014,1.305,1.326,1.3494,1.37,1.307,1.2573,1.2266,1.1794,1.1428,1.1129,1.1185,1.1365,1.1498,1.156,1.0932,0.9131,0.8153,0.4869,-0.1904,-0.8781,-1.4782,-1.9625,-2.5953,-2.9347,-2.9326,-2.9405,-2.9368,-2.9326,-2.9368,-2.9388,-2.9388,-2.9254,-2.73,-2.3622,-2.1315,-1.7292,-1.1834,-0.922,-0.7793,-0.6376,-0.7315,-0.9375,-1.0508,-0.8906,-0.7636,-0.7847,-0.5096,-0.0413,0.2649,0.0489,-0.0775,-0.1394,-0.9112,-1.5728,-1.7318,-2.5098,-3.0017,-3.1465,-3.1559,-3.1445,-3.1368,-3.1252,-3.1213,-3.1372,-3.16,-3.193,-3.2266,-3.2555,-3.2621,-3.2621,-3.2555,-3.2521,-3.2588,-3.2488,-3.2404,-3.2369,-3.2453,-3.2763,-3.3075,-3.3136,-3.3361,-3.3569,-3.3753,-3.378,-3.378,-3.378,-3.378,-3.3842,-3.3895,-3.3972,1.9682,1.9661,1.9245,1.9131,1.9131,1.9131,1.8854,1.8479,1.8241,1.735,1.6174,1.5583,1.4739,1.3739,1.3465,1.3187,1.2901,1.2869,1.2758,1.2677,1.2637,1.2699,1.2875,1.3197,1.3441,1.3407,1.3502,1.3554,1.3571,1.2834,1.2274,1.1965,1.1608,1.131,1.1122,1.1247,1.1435,1.156,1.1622,1.1622,1.1622,1.0975,0.904,0.3174,-0.4296,-1.3848,-2.2898,-2.7616,-2.8368,-2.676,-2.7725,-2.9386,-2.9344,-2.9368,-2.9388,-2.9388,-2.9388,-2.7652,-2.4523,-2.188,-1.862,-1.5069,-1.2903,-1.1046,-1.1237,-1.2903,-1.479,-1.4573,-1.2873,-1.2637,-1.0943,-0.5421,-0.1405,-0.3004,-0.6925,-0.8703,-0.35,-1.1219,-1.7178,-2.0302,-2.525,-3.08,-3.119,-3.1353,-3.1411,-3.1368,-3.1308,-3.1351,-3.1524,-3.1839,-3.2126,-3.2454,-3.2687,-3.2752,-3.277,-3.2687,-3.2702,-3.2734,-3.2939,-3.283,-3.2844,-3.289,-3.3105,-3.3361,-3.3447,-3.355,-3.3707,-3.3834,-3.3834,-3.3834,-3.3834,-3.3887,-3.3947,-3.4049,-3.4124,1.9264,1.9351,1.9208,1.911,1.9048,1.9058,1.8833,1.8685,1.8206,1.7376,1.6224,1.5725,1.4573,1.3212,1.3156,1.2869,1.2645,1.2623,1.2661,1.2683,1.2805,1.2989,1.3224,1.3519,1.383,1.389,1.3692,1.3692,1.3511,1.2474,1.1794,1.1725,1.1296,1.0996,1.1122,1.1247,1.1435,1.156,1.1622,1.1622,1.1098,0.9723,0.8254,0.7788,-0.3691,-1.511,-2.412,-2.8408,-2.691,-2.0543,-2.6097,-2.9005,-2.9386,-2.9388,-2.9388,-2.9388,-2.9388,-2.9159,-2.8544,-2.4242,-2.1598,-2.0448,-1.6336,-1.2903,-1.5069,-1.8673,-2.1079,-2.1142,-2.5625,-2.2997,-1.928,-1.6599,-1.0479,-0.8172,-1.2161,-0.9744,-0.4231,-1.0628,-1.9216,-1.9322,-2.6314,-2.957,-3.0798,-3.1031,-3.1397,-3.1423,-3.1385,-3.1466,-3.1674,-3.1948,-3.2266,-3.257,-3.2752,-3.2866,-3.2834,-3.2802,-3.2848,-3.2925,-3.3273,-3.3332,-3.3332,-3.3419,-3.355,-3.368,-3.3689,-3.3716,-3.3762,-3.386,-3.3842,-3.3887,-3.3913,-3.3972,-3.4049,-3.4173,-3.4245,1.9736,1.9736,1.9539,1.9196,1.8847,1.8741,1.8137,1.7229,1.711,1.6616,1.5689,1.4797,1.4216,1.3743,1.3127,1.2623,1.2629,1.2683,1.2683,1.2989,1.3467,1.3709,1.37,1.3743,1.3803,1.401,1.4198,1.4258,1.4019,1.339,1.2765,1.2274,1.1787,1.149,1.1185,1.1373,1.156,1.1622,1.1622,1.1622,1.0431,0.6483,0.5436,0.7099,-0.4087,-1.4002,-2.1376,-2.6868,-2.6218,-2.3311,-2.5704,-2.9388,-2.9388,-2.9388,-2.9388,-2.9388,-2.9388,-2.9388,-2.9082,-2.7944,-2.7282,-2.6537,-2.512,-2.5443,-2.54,-2.5783,-2.7126,-2.6465,-2.3737,-1.8656,-0.9956,0.0502,0.2261,0.0568,-0.4738,-0.889,-0.7915,-1.6904,-2.4097,-2.6029,-2.7333,-2.9334,-3.0455,-3.0568,-3.0902,-3.1308,-3.1521,-3.1524,-3.1785,-3.2091,-3.242,-3.2752,-3.2816,-3.2961,-3.2993,-3.3006,-3.316,-3.3214,-3.3504,-3.3725,-3.3725,-3.377,-3.3842,-3.3895,-3.3921,-3.3939,-3.3868,-3.3921,-3.3947,-3.3947,-3.3972,-3.4105,-3.4203,-3.4316,-3.4458,1.979,1.9533,1.9126,1.8765,1.8501,1.8469,1.8009,1.7368,1.7083,1.6552,1.5837,1.5059,1.4599,1.4162,1.343,1.3042,1.2981,1.2858,1.2981,1.3216,1.364,1.3821,1.401,1.3872,1.3932,1.4198,1.4387,1.4515,1.4327,1.3821,1.307,1.2512,1.2166,1.1615,1.1247,1.1435,1.156,1.1622,1.1622,1.1622,1.067,0.7822,0.1568,-0.0421,-0.9684,-1.8165,-2.4629,-2.7497,-2.7419,-2.6157,-2.7538,-2.9388,-2.9388,-2.9388,-2.9388,-2.9388,-2.9388,-2.9388,-2.9388,-2.9388,-2.9217,-2.9388,-2.9388,-2.9388,-2.9388,-2.9388,-2.9388,-2.8719,-2.5529,-1.9277,-0.8888,-0.1859,0.3106,0.555,-0.1067,-0.6959,-0.9485,-1.9121,-2.7402,-2.7868,-2.8044,-2.8747,-2.9369,-2.9899,-3.046,-3.0885,-3.1585,-3.1696,-3.2056,-3.2352,-3.2639,-3.2898,-3.293,-3.3024,-3.3099,-3.325,-3.3484,-3.3597,-3.3743,-3.3902,-3.4005,-3.4023,-3.4049,-3.4049,-3.4042,-3.3998,-3.3972,-3.3998,-3.4099,-3.4221,-3.4293,-3.4321,-3.4416,-3.4588,-3.4754,1.961,1.9174,1.8505,1.8251,1.8126,1.8126,1.8052,1.7864,1.7594,1.6912,1.6356,1.5878,1.5225,1.4706,1.4052,1.3743,1.3502,1.3338,1.3407,1.358,1.3761,1.395,1.407,1.413,1.4189,1.4455,1.4327,1.4267,1.4079,1.364,1.2887,1.2389,1.2158,1.1677,1.131,1.1435,1.1622,1.1622,1.1622,1.149,1.0733,0.8823,0.156,-0.9691,-1.5512,-2.2237,-2.6988,-2.9159,-2.9177,-2.9388,-2.9388,-2.9409,-2.9409,-2.9388,-2.9388,-2.9388,-2.9388,-2.9388,-2.9388,-2.9388,-2.9388,-2.9388,-2.9388,-2.9388,-2.9388,-2.9388,-2.9388,-2.8029,-2.5486,-2.1011,-1.7297,-0.6087,-0.0294,0.1541,-0.2144,-0.676,-0.9717,-1.904,-2.6114,-2.7402,-2.7782,-2.8247,-2.8749,-2.93,-2.9863,-3.046,-3.1177,-3.188,-3.2231,-3.2504,-3.2752,-3.2993,-3.3055,-3.3178,-3.3298,-3.3437,-3.3726,-3.3842,-3.3972,-3.4049,-3.4148,-3.4148,-3.4124,-3.4099,-3.4067,-3.4074,-3.4074,-3.4099,-3.4245,-3.445,-3.4539,-3.4498,-3.4651,-3.4889,-3.5016,1.9508,1.9388,1.8841,1.836,1.7906,1.7873,1.7552,1.7073,1.7009,1.6878,1.6628,1.6134,1.5806,1.5459,1.4972,1.4501,1.4103,1.3872,1.383,1.395,1.4139,1.4327,1.4327,1.4336,1.4396,1.4327,1.401,1.3761,1.3571,1.3009,1.252,1.1911,1.1919,1.1677,1.1373,1.1435,1.1622,1.1622,1.156,1.1365,1.0115,0.4509,-0.3704,-1.5923,-1.983,-2.3774,-2.7926,-2.9388,-2.9388,-2.9388,-2.9388,-2.9451,-2.9492,-2.945,-2.9409,-2.9409,-2.9409,-2.9429,-2.9407,-2.9388,-2.9388,-2.9388,-2.9388,-2.9388,-2.9388,-2.9388,-2.9368,-2.6573,-1.9978,-1.2321,-1.0105,-0.2973,0.6692,0.7188,-0.0564,-0.784,-1.0427,-1.7705,-2.6514,-2.7068,-2.7373,-2.6939,-2.6556,-2.701,-2.8058,-2.8817,-2.9887,-3.1182,-3.2231,-3.2453,-3.2669,-3.2912,-3.3165,-3.3316,-3.3491,-3.3707,-3.3913,-3.4023,-3.4124,-3.4124,-3.4197,-3.4216,-3.4191,-3.4197,-3.4221,-3.425,-3.425,-3.425,-3.4435,-3.4691,-3.4691,-3.4649,-3.487,-3.5105,-3.5168,1.9745,1.9079,1.8611,1.8043,1.7592,1.7503,1.7383,1.7076,1.7043,1.6987,1.6853,1.6606,1.6446,1.6218,1.569,1.5099,1.4579,1.441,1.4309,1.4318,1.4396,1.4515,1.4515,1.4515,1.4515,1.4327,1.3881,1.3511,1.345,1.3191,1.2466,1.1919,1.1864,1.174,1.1373,1.1428,1.156,1.1622,1.156,1.1435,0.9865,0.149,-0.9852,-1.7021,-2.3016,-2.6417,-2.8312,-2.9388,-2.9388,-2.9388,-2.9388,-2.9429,-2.9451,-2.9451,-2.9429,-2.9491,-2.9492,-2.9471,-2.9427,-2.9388,-2.9388,-2.9388,-2.9388,-2.9388,-2.9388,-2.9368,-2.9304,-2.67,-2.1256,-1.3504,-1.3581,-0.5733,-0.223,-0.0052,-0.636,-1.1132,-1.3493,-1.8309,-2.1909,-2.5346,-2.6417,-2.5163,-2.2118,-2.3255,-2.5488,-2.7072,-2.8401,-3.0209,-3.202,-3.2486,-3.2684,-3.3068,-3.3345,-3.353,-3.3698,-3.3868,-3.4049,-3.4191,-3.4245,-3.4245,-3.4245,-3.4269,-3.434,-3.4386,-3.4431,-3.448,-3.4567,-3.463,-3.4793,-3.4926,-3.4926,-3.4982,-3.5138,-3.5285,-3.536,1.9885,1.879,1.832,1.7799,1.7334,1.7278,1.7289,1.7278,1.7278,1.7211,1.7078,1.7011,1.6965,1.674,1.6285,1.57,1.505,1.4951,1.4715,1.4616,1.4506,1.4515,1.4515,1.4515,1.4515,1.4387,1.4121,1.3571,1.3199,1.2948,1.2405,1.1794,1.1677,1.1677,1.1428,1.149,1.156,1.1622,1.1622,1.156,0.8066,-0.1883,-1.1594,-1.7706,-2.5037,-2.9177,-2.937,-2.9388,-2.9388,-2.9388,-2.9388,-2.9427,-2.945,-2.945,-2.9491,-2.957,-2.957,-2.9492,-2.9431,-2.9388,-2.9388,-2.9388,-2.9388,-2.9388,-2.9347,-2.9286,-2.9042,-2.7574,-2.0242,-1.6241,-1.5883,-1.4192,-1.0766,-0.9739,-1.1774,-1.6481,-1.445,-1.5543,-1.707,-2.0303,-2.3652,-2.2983,-1.945,-2.2433,-2.5294,-2.4381,-2.5615,-2.9954,-3.1633,-3.2494,-3.2844,-3.325,-3.3577,-3.3762,-3.3921,-3.4049,-3.4173,-3.4245,-3.434,-3.4363,-3.4386,-3.4367,-3.4498,-3.467,-3.4732,-3.4793,-3.4889,-3.4964,-3.5019,-3.5072,-3.5157,-3.5254,-3.533,-3.5416,-3.5483,1.9534,1.8911,1.8356,1.7788,1.7334,1.7278,1.7278,1.7278,1.7278,1.7278,1.7267,1.7267,1.7211,1.7099,1.6751,1.6457,1.6104,1.5584,1.5235,1.5069,1.4734,1.4565,1.4515,1.4515,1.4396,1.4387,1.4419,1.3734,1.2887,1.2158,1.1663,1.124,1.1303,1.1247,1.1373,1.1498,1.1622,1.156,1.156,1.0808,0.7395,-0.3757,-1.0193,-1.5369,-2.2779,-2.9388,-2.9388,-2.9388,-2.9388,-2.9388,-2.9388,-2.9451,-2.9551,-2.9589,-2.9589,-2.9551,-2.9492,-2.9409,-2.9388,-2.9388,-2.9388,-2.9388,-2.9388,-2.9388,-2.9135,-2.8265,-2.7731,-2.827,-1.7866,-1.4216,-1.5865,-0.8349,-0.4931,-0.8867,-1.52,-1.4461,-1.212,-1.2003,-1.3482,-1.4965,-1.8176,-1.8047,-1.61,-2.0955,-2.4966,-2.3538,-2.356,-2.8049,-3.1313,-3.2257,-3.3057,-3.3494,-3.368,-3.3873,-3.4074,-3.4221,-3.4245,-3.4316,-3.4409,-3.4476,-3.4498,-3.4564,-3.4831,-3.4982,-3.5037,-3.5072,-3.5124,-3.5176,-3.5176,-3.5226,-3.5304,-3.5379,-3.5463,-3.5528,-3.5596,1.9823,1.8999,1.8709,1.8127,1.7334,1.7278,1.7278,1.7278,1.7278,1.7278,1.7278,1.7278,1.7278,1.7222,1.7054,1.6797,1.657,1.6104,1.5816,1.5526,1.5128,1.4902,1.4843,1.4625,1.4387,1.413,1.395,1.3329,1.2466,1.2212,1.2035,1.16,1.1303,1.1247,1.1435,1.1553,1.1303,1.0989,1.0279,0.7998,0.2544,-0.5026,-1.2107,-1.6012,-2.4673,-2.8353,-2.9388,-2.9388,-2.9388,-2.9388,-2.9388,-2.9409,-2.9471,-2.9491,-2.9491,-2.9491,-2.9411,-2.9388,-2.9388,-2.9388,-2.9388,-2.9388,-2.9388,-2.9388,-2.8636,-2.5913,-2.5425,-2.8131,-1.9336,-1.7047,-2.1007,-1.7821,-1.7205,-1.875,-1.9916,-1.891,-1.5582,-0.9934,-0.9868,-1.1237,-1.251,-1.3039,-1.509,-2.1273,-2.3654,-2.091,-2.2922,-2.8288,-3.1062,-3.2416,-3.3158,-3.377,-3.388,-3.3938,-3.4147,-3.434,-3.4293,-3.4363,-3.4517,-3.4561,-3.4626,-3.4751,-3.5019,-3.516,-3.5124,-3.5209,-3.5324,-3.5354,-3.5339,-3.5383,-3.5427,-3.5482,-3.5522,-3.556,-3.5616,2.0169,1.9291,1.9093,1.8398,1.7545,1.7434,1.739,1.7334,1.739,1.739,1.7334,1.7278,1.7278,1.7278,1.7166,1.6864,1.657,1.6343,1.6046,1.57,1.5294,1.501,1.4843,1.4565,1.4258,1.3752,1.4189,1.364,1.2964,1.2589,1.252,1.2089,1.1365,1.1373,1.1498,1.156,1.131,1.0618,0.9773,0.6979,0.2279,-0.383,-1.0724,-1.7128,-2.3378,-2.7879,-2.9223,-2.9531,-2.955,-2.9531,-2.9551,-2.9589,-2.957,-2.9608,-2.9589,-2.9589,-2.957,-2.957,-2.9512,-2.9471,-2.9409,-2.9368,-2.8864,-2.8342,-2.5846,-2.198,-2.0344,-2.4999,-2.0651,-2.0855,-2.4796,-2.5096,-2.3446,-2.3612,-2.6146,-2.5895,-2.326,-1.3531,-0.7333,-0.797,-0.93,-1.0461,-1.4048,-2.1477,-2.2592,-1.8815,-2.1872,-2.8235,-3.0822,-3.2445,-3.3284,-3.3902,-3.4018,-3.4073,-3.4311,-3.4431,-3.4386,-3.4435,-3.4586,-3.473,-3.4811,-3.4964,-3.5193,-3.5261,-3.5258,-3.5324,-3.5417,-3.546,-3.5507,-3.5474,-3.5488,-3.5528,-3.5566,-3.5591,-3.5647,2.066,2.0029,1.9344,1.8655,1.805,1.7755,1.7545,1.739,1.7601,1.7601,1.749,1.7334,1.7434,1.7278,1.7088,1.6797,1.657,1.569,1.5575,1.5294,1.4843,1.4803,1.4743,1.4675,1.4446,1.4378,1.4369,1.4121,1.37,1.2834,1.2343,1.149,1.1365,1.1428,1.1428,1.1303,1.0989,1.0225,0.9198,0.8549,0.5039,0.0,-0.6625,-1.2222,-1.8115,-2.3598,-2.9119,-2.9717,-2.9805,-2.9786,-2.9786,-2.9786,-2.9769,-2.9769,-2.9787,-2.9769,-2.9769,-2.9751,-2.9717,-2.9551,-2.9427,-2.9326,-2.8758,-2.7115,-2.3876,-2.602,-2.4625,-2.1483,-2.0269,-2.165,-2.3446,-2.3146,-2.388,-2.3318,-2.3537,-2.0965,-1.7502,-1.1314,-0.5961,-0.5481,-0.7217,-1.0389,-1.4664,-2.2417,-2.4111,-2.0688,-2.3363,-2.9557,-3.0986,-3.252,-3.3378,-3.3972,-3.4105,-3.4255,-3.448,-3.452,-3.4476,-3.4609,-3.4792,-3.4964,-3.5072,-3.5261,-3.5339,-3.5369,-3.5383,-3.5446,-3.5493,-3.5493,-3.5507,-3.552,-3.5534,-3.5541,-3.5579,-3.5616,-3.567,2.0885,2.0623,2.0003,1.9254,1.8459,1.8073,1.7877,1.7865,1.8159,1.8255,1.8159,1.8159,1.8007,1.781,1.7645,1.7301,1.6965,1.6673,1.6218,1.5826,1.5498,1.5274,1.5147,1.4852,1.4606,1.43,1.4112,1.3623,1.2895,1.2712,1.2166,1.1553,1.1365,1.1428,1.1365,1.0787,1.0218,0.9621,0.8597,0.7827,0.5759,-0.2133,-0.8502,-1.0984,-2.1639,-2.6271,-2.9345,-2.9644,-2.9786,-2.9869,-2.9918,-2.9934,-2.9934,-2.9934,-2.9934,-2.9934,-2.9934,-2.9886,-2.9769,-2.9608,-2.9472,-2.9304,-2.8983,-2.7496,-2.39,-2.7041,-2.7032,-2.4887,-2.3242,-2.4747,-2.5413,-2.4946,-2.4098,-2.1736,-1.9621,-1.7404,-1.3298,-0.8521,-0.7954,-0.8901,-1.127,-1.4122,-1.8749,-2.3824,-2.3824,-2.3312,-2.6877,-2.9867,-3.1184,-3.2492,-3.3348,-3.3993,-3.4184,-3.4371,-3.4607,-3.4607,-3.4545,-3.4773,-3.4982,-3.5107,-3.5226,-3.5354,-3.5446,-3.5493,-3.5507,-3.5493,-3.5493,-3.5507,-3.5507,-3.552,-3.5534,-3.5547,-3.5598,-3.5639,-3.5662,2.1277,2.1082,2.061,1.9914,1.9137,1.875,1.8548,1.856,1.8898,1.8886,1.8727,1.8566,1.8387,1.8139,1.7854,1.7512,1.7011,1.6673,1.6343,1.5951,1.5498,1.5498,1.5391,1.5147,1.4784,1.4282,1.4052,1.3631,1.2834,1.2343,1.1988,1.1747,1.1435,1.1435,1.0856,0.9958,0.9192,0.8784,0.6072,0.4826,0.2893,-0.4967,-1.2648,-1.4113,-2.2201,-2.693,-2.8893,-2.9883,-2.9981,-3.006,-3.009,-3.0056,-3.006,-3.006,-3.0041,-3.0041,-3.0026,-2.9965,-2.9834,-2.9589,-2.9492,-2.9304,-2.8938,-2.7767,-2.6647,-2.6843,-2.6683,-2.4059,-2.5159,-2.7299,-2.7299,-2.6347,-2.5429,-2.3652,-2.3041,-2.0736,-1.5057,-1.0377,-1.1686,-1.2967,-1.4856,-1.5934,-2.0976,-2.5082,-2.5248,-2.5174,-2.7161,-2.9637,-3.088,-3.2165,-3.3368,-3.3926,-3.426,-3.4505,-3.4732,-3.4672,-3.4693,-3.4926,-3.5124,-3.5209,-3.5324,-3.5432,-3.5493,-3.5507,-3.5507,-3.5507,-3.5507,-3.5507,-3.5507,-3.5507,-3.5501,-3.5528,-3.5591,-3.562,-3.5662,2.1807,2.1361,2.0957,2.0547,2.0131,1.9837,1.9592,1.9384,1.9592,1.9423,1.8833,1.8483,1.8236,1.8127,1.7897,1.7446,1.6775,1.6322,1.5874,1.543,1.5323,1.5088,1.5088,1.5029,1.4961,1.5029,1.4606,1.3941,1.3147,1.2781,1.2421,1.174,1.131,1.1059,1.0421,0.9192,0.8619,0.7497,0.1744,0.0605,-0.3271,-0.8395,-1.3312,-1.8543,-2.2245,-2.6502,-2.9058,-3.008,-3.0188,-3.0273,-3.0305,-3.0286,-3.0318,-3.0318,-3.0318,-3.033,-3.0343,-3.0343,-3.0286,-2.9735,-2.947,-2.9283,-2.8883,-2.6889,-2.2609,-2.3243,-2.5887,-2.3589,-2.458,-2.6914,-2.7299,-2.7215,-2.6429,-2.4216,-2.3156,-2.0157,-1.4114,-1.2865,-1.3964,-1.5139,-1.543,-1.665,-2.1995,-2.6038,-2.659,-2.7154,-2.8171,-2.9408,-3.0703,-3.196,-3.3247,-3.399,-3.4398,-3.4612,-3.4793,-3.4773,-3.4832,-3.507,-3.5242,-3.5324,-3.5369,-3.546,-3.5507,-3.5488,-3.5509,-3.5547,-3.5541,-3.552,-3.5534,-3.5565,-3.5502,-3.5515,-3.5565,-3.5631,-3.5654,2.1554,2.1361,2.1264,2.1104,2.0908,2.0308,2.0016,1.9965,2.0016,1.9901,1.9643,1.9303,1.8934,1.8709,1.8441,1.7875,1.7045,1.6877,1.6368,1.5362,1.5254,1.5245,1.5245,1.5186,1.501,1.4656,1.43,1.3803,1.2704,1.2589,1.2174,1.156,1.073,1.0351,1.0098,0.8845,0.7047,0.3738,0.2247,0.1011,-0.7135,-1.0824,-1.4865,-2.1034,-2.4574,-2.7639,-2.987,-3.0209,-3.0299,-3.0379,-3.039,-3.0421,-3.0421,-3.0421,-3.039,-3.039,-3.0398,-3.026,-3.0037,-2.9644,-2.9455,-2.9254,-2.8682,-2.7438,-2.582,-2.6394,-2.5941,-2.4776,-2.5511,-2.733,-2.7299,-2.7299,-2.5695,-2.0112,-1.7497,-1.4201,-1.0767,-1.3424,-1.5278,-1.6552,-1.724,-2.0067,-2.4511,-2.6368,-2.6971,-2.749,-2.8268,-2.9483,-3.0785,-3.199,-3.3191,-3.4035,-3.4569,-3.4773,-3.4889,-3.4908,-3.5016,-3.5273,-3.5369,-3.5432,-3.5493,-3.5488,-3.5522,-3.554,-3.5558,-3.5581,-3.5593,-3.5615,-3.5639,-3.563,-3.5585,-3.5562,-3.5607,-3.5648,-3.5646,2.1568,2.141,2.141,2.141,2.1313,2.0822,2.0636,2.0573,2.0321,2.022,2.008,1.9617,1.9251,1.904,1.8934,1.8375,1.7313,1.7157,1.6539,1.5526,1.542,1.5235,1.5177,1.5235,1.4824,1.435,1.3983,1.3494,1.2573,1.1849,1.1296,1.0598,0.9767,0.9512,0.9262,0.8106,0.5211,0.1245,-0.0972,-0.5396,-1.2617,-1.736,-2.0344,-2.4342,-2.7522,-3.0095,-3.0182,-3.0241,-3.0254,-3.0359,-3.0425,-3.0447,-3.0447,-3.0447,-3.0428,-3.0428,-3.0292,-3.0169,-2.9927,-2.9607,-2.9437,-2.9377,-2.9097,-2.8767,-2.8456,-2.7903,-2.7654,-2.7174,-2.739,-2.7078,-2.6897,-2.6931,-2.4996,-1.9519,-1.8462,-1.553,-1.338,-1.6152,-1.7557,-1.878,-2.0385,-2.3507,-2.5726,-2.6488,-2.7244,-2.7744,-2.8241,-2.9556,-3.0782,-3.182,-3.3106,-3.4127,-3.4674,-3.4851,-3.5,-3.5105,-3.5239,-3.546,-3.5507,-3.5507,-3.5515,-3.5522,-3.5546,-3.5596,-3.562,-3.5641,-3.5678,-3.5704,-3.5732,-3.5715,-3.565,-3.566,-3.5679,-3.5679,-3.5679,2.1935,2.1458,2.141,2.1458,2.1423,2.1326,2.1264,2.1264,2.0523,2.022,2.0131,1.9408,1.9093,1.9052,1.8987,1.8321,1.7368,1.7213,1.6425,1.57,1.542,1.5118,1.5001,1.5118,1.4688,1.4154,1.3734,1.3373,1.2451,1.1648,1.0717,0.9894,0.9128,0.8091,0.7308,0.5663,0.2277,-0.2527,-0.491,-1.0975,-1.9055,-2.4269,-2.6078,-2.846,-2.9925,-3.0356,-3.0386,-3.0417,-3.0406,-3.0449,-3.0472,-3.0511,-3.052,-3.052,-3.0501,-3.0433,-3.0271,-3.0144,-2.992,-2.9604,-2.9416,-2.9293,-2.8962,-2.8558,-2.8201,-2.7926,-2.7672,-2.7496,-2.7313,-2.6644,-2.6162,-2.6429,-2.6463,-2.5096,-2.5129,-2.2306,-1.8912,-1.9284,-2.0376,-2.1683,-2.3179,-2.513,-2.5988,-2.6774,-2.7461,-2.7795,-2.8439,-2.9671,-3.0772,-3.1354,-3.2728,-3.4447,-3.4851,-3.4908,-3.5053,-3.527,-3.5364,-3.5547,-3.5534,-3.5547,-3.5534,-3.5553,-3.5604,-3.5659,-3.5687,-3.5718,-3.5781,-3.5807,-3.5801,-3.5779,-3.5779,-3.5764,-3.5772,-3.5772,-3.5784,2.2649,2.2483,2.2109,2.1969,2.1969,2.1361,2.1082,2.0908,2.0523,2.022,1.9914,1.946,1.9263,1.9251,1.8881,1.8267,1.7611,1.6944,1.6332,1.5826,1.542,1.5294,1.5235,1.5108,1.4542,1.3939,1.3468,1.313,1.1881,1.1066,1.0256,1.0161,0.705,0.5117,0.261,0.1051,-0.3233,-0.6356,-0.774,-1.505,-2.199,-2.5838,-2.7904,-2.947,-3.0509,-3.0528,-3.0537,-3.0537,-3.0518,-3.0543,-3.056,-3.0583,-3.0576,-3.0583,-3.0576,-3.0568,-3.0424,-3.0259,-2.9923,-2.9655,-2.9437,-2.9163,-2.8815,-2.8489,-2.8129,-2.784,-2.7417,-2.627,-2.5411,-2.4232,-2.2511,-2.2245,-2.2407,-2.2271,-2.3696,-2.5196,-2.2366,-2.2607,-2.3594,-2.3713,-2.5257,-2.5631,-2.6437,-2.7034,-2.7642,-2.7954,-2.8622,-2.9832,-3.0822,-3.1436,-3.2593,-3.4357,-3.5018,-3.5088,-3.5285,-3.5463,-3.5509,-3.5586,-3.5573,-3.5566,-3.5577,-3.5604,-3.5688,-3.5735,-3.5807,-3.5855,-3.5903,-3.5919,-3.5899,-3.5938,-3.5919,-3.5899,-3.5883,-3.5878,-3.5872,2.292,2.286,2.2526,2.2342,2.2142,2.1458,2.1019,2.0759,2.0422,2.008,1.9862,1.9512,1.9316,1.8987,1.8721,1.817,1.729,1.6909,1.6353,1.5836,1.5013,1.5001,1.4932,1.42,1.3837,1.3201,1.2761,1.2589,1.0526,0.7026,0.5518,0.0962,0.0927,-0.132,-0.4307,-0.6074,-0.9221,-1.1651,-1.4185,-1.8783,-2.2899,-2.6476,-2.8255,-2.9477,-3.0552,-3.0613,-3.062,-3.062,-3.062,-3.0626,-3.0626,-3.0646,-3.0646,-3.0646,-3.0591,-3.056,-3.0404,-3.0151,-2.9823,-2.9624,-2.9336,-2.903,-2.8743,-2.8438,-2.8147,-2.784,-2.5263,-2.2978,-2.2004,-2.0782,-1.8739,-1.7026,-1.6761,-1.6505,-2.1383,-2.632,-2.6387,-2.6302,-2.618,-2.5955,-2.6195,-2.6437,-2.6922,-2.7413,-2.7858,-2.821,-2.8844,-2.9913,-3.0906,-3.1672,-3.2914,-3.4566,-3.5026,-3.5281,-3.5463,-3.5591,-3.5591,-3.5591,-3.5598,-3.5604,-3.5623,-3.5689,-3.5754,-3.5859,-3.5951,-3.5985,-3.5965,-3.5988,-3.5985,-3.6013,-3.6016,-3.5962,-3.5927,-3.5942,-3.5938,2.3113,2.2905,2.2785,2.2495,2.2091,2.1554,2.1118,2.0746,2.022,1.9939,1.9784,1.9512,1.904,1.8655,1.8333,1.7788,1.7179,1.674,1.488,1.4945,1.2928,1.1792,0.9945,1.1565,0.784,0.9339,0.9341,0.6447,0.6709,0.277,-0.3822,-1.0954,-0.9925,-1.0293,-1.1689,-1.2212,-1.5468,-2.0106,-2.1322,-2.4073,-2.7721,-3.0002,-3.0365,-3.0477,-3.0632,-3.0646,-3.0639,-3.0633,-3.0614,-3.0652,-3.0664,-3.0711,-3.0716,-3.0711,-3.0646,-3.0552,-3.0453,-3.0132,-2.9851,-2.9623,-2.9336,-2.903,-2.8743,-2.8412,-2.8102,-2.784,-2.5329,-2.3291,-2.2595,-1.9038,-1.6487,-1.8423,-1.9208,-1.8768,-2.1205,-2.4854,-2.6262,-2.6349,-2.6487,-2.635,-2.647,-2.6708,-2.7147,-2.7642,-2.801,-2.842,-2.8949,-2.9902,-3.11,-3.1955,-3.3223,-3.4693,-3.5085,-3.5383,-3.5476,-3.5572,-3.5616,-3.5616,-3.5616,-3.5651,-3.5667,-3.5745,-3.5859,-3.5924,-3.5988,-3.601,-3.601,-3.601,-3.5996,-3.6007,-3.6007,-3.5984,-3.5979,-3.5962,-3.5968,2.4839,2.4266,2.3406,2.2572,2.1902,2.1348,2.0957,2.061,2.0055,1.9552,1.9121,1.9028,1.8762,1.8213,1.782,1.7335,1.7056,1.4903,1.2366,0.9242,0.7441,0.4367,-0.0184,0.0377,-0.1278,-0.2898,-0.3179,-0.2162,-0.3824,-0.6642,-0.8495,-1.0943,-1.2531,-1.506,-1.865,-1.8892,-2.183,-2.6721,-2.7402,-2.7714,-2.9746,-3.0525,-3.067,-3.0735,-3.0739,-3.0735,-3.0735,-3.0751,-3.0751,-3.0755,-3.0767,-3.0794,-3.0781,-3.0771,-3.0743,-3.0697,-3.0571,-3.0265,-2.9928,-2.9653,-2.94,-2.8948,-2.8608,-2.8316,-2.8047,-2.7811,-2.6766,-2.4894,-2.2112,-1.7881,-1.5606,-1.8693,-2.1243,-2.0763,-2.106,-2.351,-2.5888,-2.6175,-2.647,-2.6556,-2.664,-2.6989,-2.7382,-2.7754,-2.8156,-2.8471,-2.8803,-2.9665,-3.1261,-3.2389,-3.3418,-3.4665,-3.5206,-3.547,-3.554,-3.5584,-3.5639,-3.5662,-3.5673,-3.5706,-3.5747,-3.5845,-3.5924,-3.597,-3.601,-3.601,-3.601,-3.5994,-3.6001,-3.5992,-3.5976,-3.5957,-3.5937,-3.5917,-3.5956,2.5524,2.4847,2.3894,2.2904,2.203,2.1561,2.1113,2.051,1.9798,1.8886,1.8274,1.8578,1.8447,1.7709,1.7324,1.6192,1.5416,1.2413,0.9254,0.5424,0.009,-0.2792,-0.6123,-0.8578,-0.7148,-0.8299,-0.8802,-0.9294,-1.3373,-1.4744,-1.5386,-1.801,-1.9706,-2.1188,-2.5114,-2.5633,-2.6779,-3.0394,-3.0658,-3.0647,-3.0561,-3.0672,-3.0719,-3.0749,-3.0786,-3.0796,-3.0795,-3.0792,-3.0801,-3.0794,-3.0801,-3.079,-3.0794,-3.079,-3.0763,-3.0711,-3.0593,-3.0424,-3.003,-2.9728,-2.9458,-2.896,-2.8608,-2.836,-2.7794,-2.7213,-2.4066,-2.2115,-1.9954,-1.606,-1.2453,-1.3712,-1.6583,-1.737,-2.0976,-2.4576,-2.5652,-2.5997,-2.621,-2.6332,-2.6539,-2.7004,-2.7382,-2.7672,-2.8102,-2.8842,-2.9101,-3.0048,-3.1541,-3.2778,-3.3819,-3.4702,-3.5277,-3.5572,-3.5639,-3.5662,-3.5693,-3.5695,-3.5707,-3.5765,-3.5818,-3.5924,-3.601,-3.5996,-3.5996,-3.601,-3.6013,-3.5984,-3.595,-3.5956,-3.5936,-3.5929,-3.5899,-3.5887,-3.5927,2.5819,2.5105,2.4256,2.3275,2.2235,2.1819,2.0404,1.8722,1.7824,1.5848,1.3299,1.4225,1.5437,1.579,1.4223,1.3936,1.1444,0.5697,0.3169,-0.1133,-0.6144,-1.0752,-1.2516,-1.2562,-1.3917,-1.429,-1.4532,-1.7467,-2.1077,-2.1826,-2.4166,-2.9467,-3.0561,-3.055,-3.0696,-3.0572,-3.069,-3.0723,-3.0769,-3.0771,-3.0749,-3.0726,-3.0723,-3.0735,-3.0761,-3.0798,-3.078,-3.0781,-3.0793,-3.0782,-3.0788,-3.079,-3.0782,-3.0802,-3.0765,-3.0714,-3.062,-3.0376,-3.0075,-2.9788,-2.9382,-2.8979,-2.8713,-2.8255,-2.7619,-2.5824,-2.2705,-2.0921,-1.8795,-1.6921,-1.3399,-1.2341,-1.5142,-1.7126,-2.1809,-2.5137,-2.5503,-2.5872,-2.6052,-2.6175,-2.6657,-2.71,-2.7457,-2.7713,-2.8246,-2.8997,-2.9924,-3.0977,-3.2031,-3.3019,-3.4043,-3.4815,-3.5437,-3.5651,-3.5695,-3.5706,-3.5706,-3.5737,-3.5754,-3.5813,-3.5869,-3.5951,-3.5994,-3.5986,-3.5986,-3.5986,-3.5972,-3.5937,-3.5918,-3.5916,-3.5906,-3.59,-3.5875,-3.5866,-3.5888,2.6838,2.5842,2.4102,2.2996,2.2309,2.1199,1.6965,1.1084,1.0298,0.6449,0.1784,0.0223,0.1712,0.6457,0.056,-0.0542,0.1263,-0.3034,-0.8636,-1.389,-1.488,-1.9472,-2.2365,-2.1625,-2.5134,-2.4884,-2.4061,-2.6721,-2.6472,-2.7412,-2.8787,-3.0412,-3.0623,-3.0717,-3.0718,-3.074,-3.0781,-3.0781,-3.0759,-3.0737,-3.074,-3.0723,-3.0776,-3.0798,-3.0781,-3.0759,-3.0737,-3.0762,-3.0742,-3.0756,-3.0774,-3.079,-3.0782,-3.0782,-3.0789,-3.075,-3.0639,-3.0414,-3.0151,-2.9848,-2.9439,-2.8847,-2.8453,-2.7816,-2.7238,-2.6607,-2.4664,-2.4358,-2.3038,-2.3258,-2.1084,-2.1031,-2.2789,-2.2494,-2.5109,-2.5389,-2.5615,-2.5944,-2.6158,-2.6522,-2.6971,-2.7426,-2.7862,-2.8139,-2.8504,-2.9299,-3.0171,-3.1235,-3.2333,-3.3311,-3.4282,-3.4928,-3.5593,-3.5658,-3.5679,-3.5708,-3.5718,-3.5752,-3.5787,-3.5858,-3.5909,-3.5951,-3.5974,-3.5971,-3.5937,-3.5918,-3.5897,-3.5912,-3.5899,-3.5907,-3.5903,-3.5875,-3.584,-3.584,-3.5875]}]]